GFSGBSN_sfc_temp_000.txt.gz
Temp
63 63 62 62 61 61 61 61 61 61 60 60 60 60 60 60 60 59 58 58 60 59 59 59 58 57 52 52 58 70 67 67 67 69 67 66 62 62 58 61 62 57 61 63 62 64 61
62 62 62 61 60 60 61 60 60 60 60 59 59 59 59 59 58 59 59 58 59 59 58 58 57 57 48 52 73 72 68 68 69 68 66 67 66 67 64 61 60 63 58 57 60 59 59
62 62 62 60 60 60 60 59 59 60 59 59 58 58 58 58 58 58 59 58 58 58 57 56 56 55 51 60 73 70 72 69 69 69 67 68 70 66 63 59 64 61 58 59 60 57 57
62 61 61 60 59 58 58 58 58 60 59 59 58 58 57 57 57 58 58 58 57 57 56 56 56 54 53 73 71 72 69 72 74 71 71 73 71 66 65 63 60 56 53 48 56 57 56
61 61 61 60 59 58 58 58 58 59 59 58 58 57 57 56 58 57 57 57 56 56 56 55 50 49 58 74 71 74 74 72 73 72 70 76 71 62 61 54 50 50 44 46 51 56 56
61 61 60 60 59 58 58 58 58 58 58 57 57 57 57 56 56 56 56 55 55 55 55 56 55 51 64 65 71 73 74 73 69 69 68 65 59 56 54 52 43 45 45 40 48 49 50
61 61 60 60 59 59 59 59 59 58 57 57 57 57 56 56 56 55 53 51 48 48 49 56 58 60 63 70 70 69 71 70 68 65 55 58 53 47 48 52 54 52 49 46 46 52 49
60 60 60 60 59 59 59 59 58 57 56 56 56 56 56 56 55 54 53 49 60 62 53 59 61 63 67 67 63 66 70 63 61 54 55 54 48 53 56 55 54 52 47 44 48 52 49
59 59 60 60 59 59 59 59 58 56 56 56 55 56 56 55 55 53 49 56 65 62 53 60 63 64 66 69 62 62 66 62 57 54 54 50 52 58 55 53 52 49 47 46 46 51 50
59 58 59 59 59 58 58 58 57 56 56 55 55 55 55 54 51 51 52 63 63 61 46 54 59 65 67 66 61 67 67 64 58 52 53 52 55 55 53 52 51 46 51 50 47 45 40
58 58 58 58 58 57 56 56 56 56 55 55 54 55 54 56 51 54 64 63 61 60 29 55 60 72 65 63 62 62 65 64 54 54 54 49 51 52 52 50 53 49 54 50 47 44 42
58 57 57 57 57 56 56 55 55 55 54 54 54 55 54 53 50 57 61 59 60 40 32 52 60 58 58 60 59 61 62 64 60 55 54 51 55 54 51 54 54 55 51 48 44 42 33
57 57 57 56 56 56 55 55 55 54 54 54 54 55 54 58 58 60 58 56 40 31 53 50 52 56 55 53 55 55 53 51 49 45 44 51 51 53 54 50 52 50 45 34 34 29 30
56 56 56 56 56 55 55 54 54 53 53 54 54 53 53 55 57 57 57 49 35 47 48 54 54 54 51 53 52 52 50 47 51 49 43 42 38 49 55 49 47 45 44 34 30 25 33
57 56 56 56 55 55 54 54 53 53 53 54 53 52 51 58 56 56 52 33 39 46 53 53 53 49 47 52 52 50 45 46 47 48 45 41 42 52 53 53 51 45 39 45 34 32 30
57 56 56 55 55 54 54 53 53 53 53 53 52 52 55 58 57 56 44 40 47 54 55 54 47 50 45 47 48 46 45 49 49 50 51 48 41 48 53 54 53 48 50 38 33 28 25
56 56 55 55 54 54 54 52 52 53 53 54 53 52 57 57 57 51 37 42 51 58 58 54 50 48 49 48 47 45 46 49 50 51 51 47 44 44 49 46 43 46 42 39 38 31 25
55 55 55 54 54 54 52 51 52 53 53 53 50 47 57 57 48 40 43 50 53 56 57 55 55 52 49 48 46 45 46 47 50 50 47 46 41 32 42 49 49 46 43 41 29 32 26
55 55 54 54 54 53 50 51 52 53 55 54 49 49 56 56 37 31 46 52 55 54 54 53 52 53 51 47 43 45 46 50 51 49 48 48 38 31 39 45 47 43 44 41 37 32 31
54 54 54 54 53 51 52 51 52 53 55 55 50 43 48 47 45 47 47 48 50 55 54 55 53 54 49 46 47 44 45 49 50 49 49 49 41 38 33 37 40 39 42 41 40 28 30
53 53 53 52 50 51 51 52 52 53 54 55 48 45 48 37 41 46 49 49 49 48 54 55 52 52 49 42 42 41 45 46 50 49 46 46 38 37 37 39 40 40 41 41 40 38 35
53 52 51 50 50 49 50 51 52 52 53 53 48 46 45 43 47 48 44 49 50 50 51 50 51 49 49 44 48 44 46 44 45 46 42 41 33 33 34 38 37 37 41 40 39 40 39
51 49 49 49 49 49 51 51 51 52 55 51 49 50 50 39 41 43 41 50 52 53 50 52 52 48 44 47 47 46 46 45 46 45 37 35 30 31 29 32 32 30 38 40 39 40 40
50 49 49 49 51 52 51 51 51 52 54 55 52 52 44 34 37 43 50 51 51 51 50 49 51 47 48 51 50 49 46 45 45 41 41 30 29 26 24 25 22 40 42 43 42 42 42
50 50 51 52 52 51 51 51 51 52 52 54 52 53 46 32 41 46 49 48 49 48 46 47 49 50 52 47 38 39 34 38 36 40 38 38 28 25 24 23 33 40 41 40 40 41 42
51 52 52 51 51 50 50 50 50 52 53 55 53 52 50 42 41 52 48 48 40 40 40 44 50 50 47 32 32 29 30 36 33 37 39 36 30 29 19 20 21 37 42 46 45 34 43
51 52 51 51 51 51 50 50 50 51 53 58 52 53 52 45 49 51 47 47 47 43 39 44 46 45 45 28 24 27 30 37 33 29 26 27 25 22 17 17 29 40 45 47 34 37 42
51 51 51 51 51 51 50 50 50 51 53 57 54 54 55 47 48 52 53 49 47 45 41 46 44 41 34 32 28 28 24 32 32 35 33 31 26 23 22 17 26 44 44 38 43 40 42
50 50 51 51 50 49 48 48 49 51 53 57 57 56 53 51 50 53 54 53 53 55 47 44 47 44 41 34 26 31 31 33 27 29 38 33 35 30 33 32 42 45 44 46 45 44 43

GFSGBSN_sfc_temp_003.txt.gz
Temp
63 63 62 62 62 61 61 61 60 60 60 60 59 60 60 60 60 59 60 59 59 59 59 58 58 58 54 52 60 73 67 67 69 71 72 70 67 67 64 65 66 64 66 66 66 68 69
62 62 61 61 62 62 61 61 60 59 60 59 59 59 58 59 59 58 59 59 58 58 58 58 58 57 50 54 77 73 69 69 71 72 69 71 70 71 68 67 67 67 66 66 66 65 67
62 61 61 61 61 61 60 59 59 59 59 59 59 59 58 58 58 58 59 58 58 57 57 57 58 56 50 61 76 72 73 72 72 73 68 70 73 71 69 64 69 67 65 65 65 67 65
62 61 61 61 60 59 59 58 58 58 59 59 59 58 57 58 57 58 58 57 57 57 56 57 56 54 52 72 73 73 72 74 73 74 74 75 73 71 69 68 65 63 61 59 65 67 64
62 61 61 61 60 59 58 58 58 58 59 58 58 58 57 56 56 57 56 56 56 56 56 56 53 50 57 74 74 78 77 77 73 72 72 75 74 67 68 62 60 58 55 56 60 61 65
62 61 61 61 60 59 58 58 58 58 58 58 58 57 56 56 56 55 55 56 55 55 55 56 55 50 64 70 74 76 80 78 74 71 69 69 65 63 61 62 52 55 55 57 58 60 60
61 61 61 61 60 59 60 59 58 57 58 57 57 57 56 56 56 55 53 52 50 50 50 58 59 60 66 73 73 75 76 75 73 69 62 63 62 57 60 60 60 58 57 56 57 58 56
60 61 61 61 60 60 60 59 58 57 58 57 57 56 56 57 55 55 53 49 59 65 58 56 60 62 66 70 67 72 77 70 67 60 63 61 56 60 60 60 58 57 54 52 55 57 57
58 60 60 60 60 59 59 59 58 57 57 56 56 56 56 56 54 53 51 51 64 66 57 61 61 64 69 70 66 68 72 68 64 60 58 56 60 61 60 57 56 55 54 51 53 56 58
58 58 59 60 60 59 58 58 58 57 56 56 55 55 55 54 51 52 50 60 59 62 50 56 63 68 70 69 63 70 71 68 62 56 57 59 60 59 58 56 58 53 56 55 53 53 49
57 57 58 59 59 58 57 57 57 56 56 55 54 54 54 56 51 53 63 64 61 61 35 58 64 75 69 66 66 67 69 68 58 58 60 56 57 57 56 56 58 55 56 56 54 52 52
57 56 57 58 58 57 56 56 56 55 55 55 54 54 54 53 52 54 60 63 60 44 36 55 63 62 62 61 61 64 66 67 64 58 59 57 62 60 60 58 58 57 56 54 52 51 45
56 56 56 57 57 56 56 56 55 55 54 54 54 54 54 56 54 59 59 58 44 37 55 53 56 60 58 56 58 58 56 55 56 51 49 56 56 60 60 58 59 57 53 45 43 42 41
56 56 55 57 56 56 56 55 54 54 54 54 53 54 55 55 56 54 57 52 40 48 50 58 56 57 55 57 56 55 54 52 56 54 49 49 47 57 60 58 55 53 53 44 35 36 43
56 55 54 56 56 56 55 55 54 53 53 53 53 52 51 54 57 54 54 37 42 47 55 55 56 53 53 56 55 54 51 52 54 55 51 48 48 58 58 60 60 52 49 52 41 38 40
56 55 54 56 56 55 54 54 54 53 53 53 51 50 53 60 57 56 47 43 50 55 57 56 50 53 49 52 52 52 52 54 54 56 57 53 47 54 58 59 57 56 54 47 44 35 33
55 54 54 55 55 55 54 54 53 53 53 54 53 52 58 58 57 53 42 45 52 58 58 56 53 51 52 51 51 51 51 54 56 56 58 54 51 50 55 53 52 52 49 44 45 40 37
54 53 54 55 55 54 54 54 54 53 53 52 51 48 58 56 50 44 45 51 53 57 60 58 57 55 52 52 50 50 50 53 54 56 54 53 48 43 49 55 56 55 50 48 41 38 35
53 52 53 55 55 54 54 53 52 53 54 52 50 52 58 57 41 37 49 54 56 56 56 57 55 56 55 50 47 50 51 54 54 55 52 53 46 40 46 52 54 52 49 46 43 40 36
52 52 53 55 54 54 53 51 52 53 54 55 51 45 51 49 48 49 49 51 52 56 56 57 55 56 52 50 50 47 49 53 54 53 48 52 45 45 42 45 48 46 47 47 47 40 39
51 51 53 54 54 53 51 51 52 53 53 53 50 47 51 41 43 48 52 52 51 51 57 58 55 55 52 46 47 46 50 51 53 50 50 51 44 44 43 43 46 48 46 46 46 46 43
51 52 53 53 53 52 51 51 52 52 54 51 48 47 46 46 48 49 46 50 52 54 54 54 53 53 54 48 51 46 49 49 50 50 48 46 40 41 40 42 42 43 47 46 45 45 45
51 52 52 51 51 51 51 51 52 52 56 52 51 52 52 40 43 45 44 49 52 55 52 55 55 52 49 52 52 50 49 48 50 49 43 42 36 38 36 37 38 37 42 46 45 47 49
52 51 51 50 50 50 50 51 51 53 55 55 53 52 46 36 41 45 49 53 53 53 52 53 54 52 51 54 53 53 50 47 48 44 45 36 36 34 35 31 33 48 49 49 47 48 49
50 50 50 50 50 51 51 51 51 53 55 56 53 54 47 34 43 46 49 49 50 50 49 50 51 53 54 51 43 42 39 40 39 42 42 43 36 31 34 34 39 47 45 45 45 49 51
49 49 50 51 51 50 50 51 51 52 54 55 54 53 51 42 42 52 49 50 43 44 44 46 52 53 50 39 38 36 37 41 40 41 43 40 36 38 31 33 31 44 49 51 52 42 52
51 51 51 51 50 50 50 50 51 52 54 56 54 55 54 47 50 52 49 48 49 46 43 46 49 48 50 37 34 36 39 41 39 34 32 34 31 33 26 33 37 46 50 52 41 45 49
51 51 51 51 50 50 50 50 51 53 54 57 54 55 56 49 51 54 54 49 49 49 45 48 48 46 40 37 36 36 35 39 39 41 36 38 34 31 27 30 33 48 50 44 51 50 50
51 50 50 49 49 47 48 49 51 53 54 55 56 56 56 53 52 54 56 56 57 56 50 47 51 47 46 40 35 34 33 33 33 37 42 38 41 39 39 40 48 50 50 52 51 51 52

GFSGBSN_sfc_temp_006.txt.gz
Temp
63 63 63 62 62 62 62 62 61 60 60 61 59 59 60 60 59 59 59 58 59 59 59 59 59 58 61 64 72 83 67 68 78 82 81 80 77 76 71 75 75 72 75 74 76 79 81
62 62 62 62 61 62 62 62 60 59 59 60 59 59 59 59 59 59 58 58 58 58 58 57 58 57 59 64 86 85 80 76 81 82 82 82 79 81 77 75 75 76 74 73 74 77 76
61 62 61 61 61 61 61 61 60 59 59 59 59 59 58 58 58 58 58 58 57 57 57 57 57 59 58 71 86 86 82 82 86 84 81 84 83 78 78 72 77 77 71 74 75 77 74
61 61 62 61 60 60 60 60 59 59 59 59 60 58 57 57 57 57 57 57 56 57 57 57 57 57 64 82 87 82 85 82 84 86 84 82 83 79 75 77 75 72 74 66 71 76 73
61 61 62 61 60 60 59 59 59 59 58 58 59 58 57 56 56 57 57 56 56 57 57 57 57 57 70 78 80 87 85 83 81 81 79 80 79 75 74 72 68 69 63 65 66 73 74
61 61 61 61 60 60 59 59 58 58 58 58 58 57 57 56 56 56 56 56 56 56 57 59 60 56 75 77 83 83 89 86 80 76 73 75 75 72 72 70 59 62 63 67 66 69 74
60 61 61 61 60 60 60 60 58 57 57 58 58 57 56 56 56 55 56 59 58 57 55 69 70 69 75 83 83 84 86 84 82 77 70 73 68 66 70 72 71 70 68 66 68 68 68
59 60 61 61 61 60 61 60 58 57 57 58 57 56 56 56 55 55 59 62 70 70 67 69 69 69 76 78 74 81 86 78 75 70 72 68 64 68 70 70 70 69 67 65 64 66 68
58 59 60 60 61 60 60 60 58 57 57 57 56 56 56 55 55 55 57 63 74 74 66 68 71 73 76 77 75 77 82 77 72 70 69 68 66 69 70 69 67 66 66 63 65 65 68
57 58 59 60 60 60 59 59 58 57 57 57 56 55 55 54 54 63 61 71 74 70 63 65 70 75 77 78 71 79 80 78 70 67 70 67 68 68 69 66 65 63 66 66 63 63 59
57 57 58 58 59 59 58 58 57 57 57 56 55 55 54 55 64 63 71 74 73 69 44 68 71 83 77 73 74 74 78 77 69 67 67 62 66 66 66 64 66 62 68 66 65 65 62
57 57 57 57 57 57 57 57 56 56 56 56 55 54 54 55 58 65 70 72 71 56 44 62 72 70 70 70 70 74 74 77 74 68 70 66 70 70 67 66 67 67 66 65 65 63 52
55 56 57 57 57 57 57 56 56 56 55 55 54 54 54 64 66 68 68 70 56 48 63 61 64 69 68 65 66 68 68 67 66 59 60 65 65 68 70 65 67 67 64 53 50 50 49
55 55 56 56 56 56 56 56 55 55 54 54 54 54 55 63 70 64 68 64 49 58 60 66 66 67 64 66 64 65 65 63 65 66 63 59 53 65 67 66 64 64 64 54 41 44 53
54 55 56 56 56 56 56 56 55 54 54 53 53 54 54 62 63 62 65 51 55 60 66 63 65 61 61 63 65 64 63 63 64 66 61 58 56 66 65 67 67 60 57 63 51 48 49
54 55 55 56 55 55 55 55 54 54 53 53 56 54 63 68 66 64 60 54 61 65 65 66 59 63 58 61 62 63 62 63 62 65 67 62 54 62 63 67 65 64 65 54 56 41 41
53 55 55 55 54 55 55 55 54 54 53 54 62 60 66 69 67 65 56 60 63 67 67 64 63 60 63 60 63 62 62 62 64 64 68 66 62 57 61 61 62 59 59 57 58 52 46
53 54 54 55 54 54 54 54 54 54 53 52 63 57 65 67 61 65 60 64 58 66 66 66 67 65 63 63 61 61 60 63 64 67 62 64 61 52 58 63 64 64 61 61 52 47 48
52 53 54 54 54 54 54 54 53 53 54 56 61 64 66 65 55 53 60 64 65 65 66 65 64 66 65 62 57 60 61 60 62 64 63 63 58 49 52 58 62 60 61 60 56 52 47
52 52 53 54 54 53 54 54 53 53 54 66 65 55 61 65 67 63 60 61 62 65 65 66 63 65 63 59 60 57 58 59 61 62 49 59 58 56 50 55 60 54 58 60 60 50 52
51 52 53 53 52 52 54 54 53 53 54 62 65 62 67 52 58 64 65 64 62 60 66 67 63 65 63 55 57 56 59 58 59 52 59 62 54 55 54 54 55 57 58 57 57 58 51
52 52 51 51 51 51 53 52 52 53 54 59 61 61 62 63 62 62 57 61 63 63 64 63 64 64 64 59 62 57 60 60 60 59 60 57 52 50 48 52 53 52 58 59 59 60 57
51 51 51 50 51 53 52 52 52 52 56 63 66 66 69 48 60 60 59 62 63 66 61 64 67 64 60 61 63 65 63 63 63 60 56 54 48 48 47 47 48 41 52 58 59 62 59
52 51 50 51 52 53 52 51 51 53 59 73 70 70 63 51 57 59 62 64 63 66 62 61 65 64 59 65 66 65 62 60 60 56 57 47 48 46 43 39 35 57 59 58 59 62 64
51 50 52 52 52 52 52 51 52 53 56 70 69 70 64 41 59 59 62 63 62 61 59 61 59 62 66 62 57 52 50 47 49 54 54 55 50 40 39 44 51 59 55 55 54 59 64
50 51 52 51 50 50 50 51 51 52 55 69 69 69 70 54 54 65 62 62 58 59 57 54 59 63 61 56 52 46 46 51 47 49 52 51 49 50 40 38 36 53 57 59 59 52 62
50 50 50 49 49 50 50 50 51 52 54 68 68 64 72 64 65 64 61 59 64 62 58 56 56 55 59 51 44 47 49 52 48 43 38 43 42 40 41 39 48 58 58 59 46 51 62
49 50 50 50 50 50 50 50 51 52 54 65 65 65 70 66 62 64 65 61 59 64 57 57 58 56 54 48 48 49 45 50 50 51 47 47 43 39 39 36 37 58 56 50 59 61 61
50 50 50 50 50 50 50 50 51 52 54 60 66 66 69 66 62 64 63 64 66 72 66 61 63 60 62 54 49 47 39 38 45 46 51 47 52 51 50 53 59 61 62 65 61 60 62

GFSGBSN_sfc_temp_009.txt.gz
Temp
62 62 63 63 62 62 62 62 61 61 60 60 60 61 60 60 60 59 58 58 58 59 60 59 59 59 63 67 76 82 66 68 79 81 83 83 80 80 74 78 79 76 79 80 80 82 83
61 62 61 62 62 62 62 62 61 60 60 60 59 60 59 59 59 59 58 58 58 58 59 58 59 58 65 65 92 92 87 83 86 86 85 86 83 85 79 78 77 80 79 77 81 80 82
61 61 61 61 61 61 62 61 61 60 60 59 59 60 58 58 58 58 58 58 58 58 58 58 58 65 65 73 93 94 88 86 90 89 85 88 89 81 81 76 82 79 73 74 77 80 79
60 61 61 61 60 60 60 60 60 60 60 59 59 59 58 58 57 57 58 57 57 57 58 58 58 66 67 91 94 91 92 87 90 92 89 88 88 82 78 82 78 74 75 67 75 80 80
60 60 61 61 60 60 60 60 60 60 60 59 58 59 58 57 56 56 57 57 57 57 58 58 61 65 72 79 83 92 93 84 87 87 87 85 82 76 78 71 70 72 62 66 69 81 79
60 60 60 61 60 60 60 60 59 59 59 58 58 58 57 57 56 56 56 57 57 56 60 65 69 61 78 81 88 90 93 89 83 81 77 77 77 70 72 70 57 62 66 68 68 75 78
59 60 60 60 60 61 61 60 59 58 58 58 58 58 57 56 56 55 57 65 63 62 65 71 75 76 81 88 90 89 91 88 84 80 70 74 69 65 69 72 73 72 69 68 73 76 74
58 59 60 60 60 61 61 61 59 58 58 58 58 58 57 56 56 55 61 67 75 74 68 76 76 78 82 85 76 85 91 81 77 71 74 70 63 71 76 76 73 72 68 68 72 74 73
58 58 59 59 60 60 61 60 59 58 58 57 57 57 56 56 55 56 64 70 82 78 68 74 78 77 81 83 78 82 87 83 76 70 71 68 70 74 73 71 70 71 68 66 67 72 75
57 57 58 58 59 60 60 60 59 58 57 57 57 56 55 54 55 69 67 78 79 76 63 67 72 79 82 83 75 85 87 82 76 70 71 68 74 73 72 70 71 64 73 71 68 66 60
55 57 57 57 58 58 58 58 58 58 57 56 56 55 54 55 67 69 77 81 80 71 45 72 75 88 84 77 78 78 86 82 72 72 73 68 70 71 69 69 72 62 73 71 70 67 66
55 56 57 57 57 57 57 56 57 57 57 56 55 55 54 56 63 71 77 76 73 55 46 65 75 73 73 76 76 80 80 83 81 73 75 71 78 75 73 72 73 73 70 70 70 67 54
54 55 56 56 56 56 57 56 56 56 56 56 55 55 55 67 69 75 73 71 55 48 69 64 67 73 71 69 71 73 71 70 67 58 62 69 70 73 75 69 73 72 66 55 53 52 50
53 54 55 56 56 56 56 56 55 55 55 55 54 54 55 68 75 71 70 62 49 62 64 72 71 71 66 71 70 70 70 67 74 72 64 60 56 70 74 72 68 67 67 55 44 47 55
53 53 53 55 55 56 56 55 55 55 55 54 53 56 56 62 66 68 66 50 56 65 72 67 69 64 65 69 69 69 68 69 73 74 62 61 59 71 71 73 73 67 60 70 58 57 52
53 52 52 54 55 55 55 55 55 54 54 53 61 55 63 67 66 64 61 54 65 72 73 72 61 67 61 65 64 66 66 72 69 73 75 68 58 68 68 72 71 68 72 57 59 44 43
52 52 52 53 54 55 55 55 54 54 54 54 64 60 74 71 67 63 55 60 69 74 74 69 66 65 67 65 67 65 67 70 72 71 75 72 65 62 66 64 66 64 62 63 63 58 47
51 51 50 53 54 55 55 55 54 54 54 54 62 56 68 71 60 63 60 67 66 72 73 71 71 70 67 68 65 66 65 69 74 74 67 72 66 55 62 69 71 70 66 65 52 51 54
51 50 50 53 54 54 54 55 54 53 54 62 60 63 65 67 54 56 67 69 71 70 70 69 68 72 73 67 62 67 68 66 68 70 68 69 62 52 56 63 68 64 67 67 65 57 52
50 50 51 53 54 54 54 54 53 53 55 66 65 56 58 58 69 65 63 65 64 72 71 73 72 73 69 66 69 64 65 64 67 70 53 62 65 59 51 59 66 59 64 66 63 52 53
49 50 52 53 54 54 54 54 53 53 55 63 67 63 67 52 62 66 67 67 65 64 71 73 69 69 67 61 64 63 67 63 64 54 64 66 57 62 64 63 63 64 64 65 62 62 55
50 51 51 52 53 54 53 53 52 53 55 58 63 66 70 65 66 65 60 65 66 68 69 66 67 70 71 65 65 63 66 65 63 65 65 65 57 57 53 62 61 59 64 65 65 65 65
50 51 51 52 52 53 52 52 52 53 56 60 70 69 71 57 64 63 64 66 68 71 67 73 72 69 67 68 70 71 72 71 71 65 62 60 54 51 49 54 54 44 54 62 65 68 66
51 51 51 52 52 53 51 49 52 53 58 70 69 73 59 56 64 63 67 68 69 70 66 69 73 70 66 74 73 71 69 68 66 64 67 53 54 52 47 41 34 61 67 66 64 68 71
51 51 52 51 51 51 50 49 52 53 54 69 71 72 66 47 65 65 67 68 71 69 68 67 66 71 73 71 60 54 53 51 55 61 61 63 56 46 41 47 56 61 63 61 59 61 69
51 51 51 51 50 50 50 51 51 52 55 59 63 75 73 60 61 71 67 69 63 64 61 59 67 72 68 64 56 50 48 55 51 55 60 58 55 52 46 38 35 56 62 65 65 55 67
50 51 51 50 50 50 51 51 51 52 53 58 72 71 76 66 72 71 66 65 71 68 64 60 60 60 65 55 45 51 52 59 51 47 40 47 46 43 45 41 51 64 64 65 49 53 65
50 50 50 50 50 51 51 51 51 52 52 56 73 74 76 70 69 72 75 69 70 70 60 63 61 61 58 51 49 55 49 55 55 58 52 50 46 42 46 37 37 65 62 53 61 66 67
49 49 49 49 49 50 50 51 51 51 51 54 69 74 80 74 66 71 71 71 76 77 73 65 69 65 65 61 55 55 44 42 53 47 60 51 57 54 55 55 64 67 66 69 68 65 66

GFSGBSN_sfc_temp_012.txt.gz
Temp
62 62 62 62 62 62 63 62 62 61 61 61 60 60 61 61 61 60 59 59 59 59 60 60 60 59 61 66 72 82 68 70 80 82 80 81 78 77 71 76 78 73 77 80 81 78 79
61 61 61 61 61 62 62 62 61 61 61 60 60 59 60 60 60 59 59 58 58 59 59 59 60 58 60 63 93 88 83 80 84 82 82 84 81 83 78 77 75 78 78 78 80 81 78
61 61 60 60 60 61 62 61 61 61 61 60 60 59 59 59 59 58 58 58 58 59 59 59 59 62 64 70 93 93 88 85 88 84 82 86 87 81 81 75 82 79 72 74 77 79 77
60 60 60 60 60 60 60 60 60 60 60 60 60 59 59 58 58 57 57 58 59 58 59 59 59 64 63 90 92 90 91 88 89 90 87 89 87 81 77 79 77 71 72 62 72 76 79
60 60 60 60 59 59 59 59 60 60 60 60 59 59 59 58 57 57 57 58 58 58 59 59 60 64 68 81 84 91 92 85 89 88 88 88 82 76 75 67 65 68 60 61 65 76 77
60 60 59 59 59 59 60 60 59 59 59 59 59 59 58 57 57 57 57 57 58 57 58 68 70 62 73 79 89 91 94 89 83 82 77 76 74 69 68 66 54 58 60 64 64 73 75
59 59 60 59 59 59 60 61 60 59 59 59 59 59 58 57 57 56 55 62 60 57 64 69 74 72 82 89 92 87 92 86 84 77 67 74 65 61 66 68 69 68 66 65 70 76 72
58 59 59 59 59 59 60 61 60 58 58 59 58 58 58 57 57 55 60 64 74 73 64 72 76 78 84 86 77 84 92 79 76 68 73 68 61 70 72 71 69 69 66 66 71 75 72
57 57 58 59 59 59 59 60 59 58 58 58 58 58 57 56 55 56 61 67 80 77 65 74 78 77 80 84 77 80 86 81 74 70 69 59 63 74 71 68 66 68 66 65 66 71 73
56 56 57 58 58 58 59 59 59 58 57 57 57 57 56 54 53 66 64 73 74 73 58 67 72 77 82 82 74 88 89 82 76 67 70 59 69 70 69 68 70 59 69 69 66 60 56
55 55 56 56 57 57 57 57 58 58 57 57 56 56 54 55 64 67 75 81 80 71 42 72 74 89 84 76 79 79 88 81 71 70 69 64 69 68 66 68 72 62 68 68 69 64 62
54 54 55 56 56 56 56 56 57 57 57 56 56 55 54 55 60 66 73 75 71 52 42 66 75 72 72 75 77 81 78 83 82 72 73 65 75 73 70 74 74 73 67 68 69 64 47
53 53 54 55 55 56 56 56 56 56 56 56 55 55 56 66 65 76 72 65 51 45 69 65 67 71 70 69 71 73 70 68 65 59 59 65 68 75 76 69 73 71 64 51 46 46 46
52 53 53 54 55 55 56 56 55 55 55 55 55 54 56 64 72 71 67 54 45 59 62 73 71 71 65 70 70 70 68 64 71 69 62 58 55 69 75 71 61 66 64 51 33 33 46
52 52 53 54 54 55 55 55 55 55 55 54 54 56 55 60 64 65 56 44 52 63 70 69 70 64 64 70 69 68 67 66 71 72 59 51 54 71 74 75 72 66 60 69 56 50 49
52 52 51 53 53 54 55 55 55 55 54 54 57 54 57 64 64 61 52 49 60 72 74 73 62 66 60 65 64 65 65 72 70 75 75 52 43 62 71 73 73 67 71 56 57 41 40
50 51 51 52 51 52 54 55 55 55 54 55 61 55 69 68 64 57 48 55 63 74 76 69 66 65 66 64 66 64 66 72 74 73 75 70 57 61 66 63 63 64 61 62 62 55 43
50 50 51 52 52 51 53 55 55 54 54 52 60 50 67 66 52 57 53 62 64 71 76 72 72 70 67 68 65 65 61 68 76 75 66 71 64 52 61 71 73 69 64 64 48 48 51
49 49 51 51 52 51 52 54 55 54 53 53 56 57 64 66 50 51 59 63 68 69 70 69 68 71 73 67 62 66 69 69 71 71 66 70 60 49 55 63 68 63 66 67 65 55 48
50 50 51 51 51 50 52 54 54 53 54 55 59 47 52 56 64 59 57 60 62 72 72 73 71 73 70 66 70 65 66 66 69 70 55 64 63 57 48 57 64 58 63 66 63 46 47
49 49 50 50 51 49 52 54 54 53 53 52 57 56 59 45 54 60 63 63 62 63 71 74 69 69 67 61 64 63 68 64 66 56 65 66 55 60 63 66 64 63 63 64 61 61 51
50 49 50 50 50 49 52 53 54 53 53 50 54 60 64 59 60 59 58 61 63 67 68 66 66 69 70 64 65 62 67 64 62 64 64 66 55 56 53 62 63 58 63 64 64 64 63
50 50 49 49 50 51 53 53 53 53 52 51 64 65 64 56 58 58 59 64 65 69 71 74 71 69 67 69 71 71 70 70 71 64 61 60 52 48 45 54 52 43 53 59 62 66 65
50 50 48 50 51 52 53 53 53 52 52 62 65 64 53 53 59 60 63 67 67 70 66 72 74 70 69 76 74 72 70 68 68 65 69 53 52 48 43 40 35 58 69 68 63 66 69
50 49 50 51 52 52 53 52 52 52 53 57 66 57 54 46 61 64 64 67 70 71 69 70 68 72 75 70 58 53 50 49 56 64 63 64 53 45 38 43 52 58 64 62 60 59 67
50 50 51 51 51 52 51 51 50 50 52 55 59 60 57 56 59 70 66 69 63 63 62 60 71 75 73 62 53 48 46 53 51 54 62 60 55 48 44 38 35 55 63 67 66 50 66
50 50 50 51 51 52 51 50 49 50 51 54 56 60 57 57 69 69 65 64 71 65 61 62 61 61 67 52 43 50 49 61 48 45 39 44 45 40 43 39 46 64 65 67 47 49 64
50 50 50 50 50 50 49 49 49 50 51 52 55 59 58 59 69 74 76 70 70 68 57 62 60 62 58 50 48 52 46 54 54 58 49 46 43 40 44 35 34 66 63 51 59 65 65
50 50 50 50 49 50 49 49 50 50 51 52 51 59 64 59 64 71 70 73 74 77 68 64 66 63 63 59 54 54 41 41 48 45 63 49 55 51 51 49 63 67 65 69 68 65 64

GFSGBSN_sfc_temp_015.txt.gz
Temp
62 62 61 61 61 61 62 63 62 61 61 61 60 60 60 60 60 60 60 59 59 59 59 59 60 59 54 55 63 73 68 69 73 73 70 71 69 66 62 65 66 66 68 73 70 71 67
61 61 61 61 60 61 62 62 62 61 60 60 60 60 59 60 60 59 59 58 58 58 58 59 59 58 51 55 78 73 74 72 75 72 73 74 72 74 69 68 63 71 70 69 71 71 69
61 60 60 60 60 60 60 60 60 60 60 60 60 60 59 59 59 58 58 57 58 58 59 58 59 58 56 58 78 76 78 73 76 75 71 76 76 70 69 65 72 71 63 65 68 66 66
60 60 60 60 59 59 59 60 60 60 60 60 60 60 59 58 58 57 57 57 57 58 58 58 58 54 52 79 74 77 78 76 79 79 77 78 77 71 66 69 67 64 63 54 67 70 69
60 60 60 60 59 59 58 59 59 60 60 60 60 59 58 58 57 57 56 56 57 58 58 58 52 51 56 78 76 82 81 78 79 80 78 84 74 64 67 57 53 58 49 56 62 72 65
59 60 59 59 59 59 59 59 59 59 59 59 59 59 58 58 57 56 56 56 58 56 57 61 60 52 63 71 80 83 82 82 77 74 71 68 62 56 56 52 46 51 53 53 57 63 63
59 59 59 59 59 59 59 60 59 58 58 59 59 59 58 57 57 56 53 51 50 49 52 55 62 63 75 80 84 79 82 78 75 69 56 62 53 49 58 60 64 62 59 57 59 66 61
58 58 59 59 59 59 59 59 58 58 58 58 58 58 58 57 56 56 51 51 62 62 53 64 65 69 75 78 72 77 81 70 66 58 62 58 52 63 67 67 62 60 57 57 64 66 62
57 57 58 58 58 59 59 59 58 58 58 58 58 58 57 56 55 53 51 56 67 64 52 65 69 68 73 76 70 71 76 72 66 62 63 54 61 67 67 64 60 60 58 56 58 61 59
56 56 56 57 58 58 58 58 58 57 57 57 57 57 56 55 51 54 52 63 62 60 44 60 65 71 76 76 67 79 80 73 67 63 61 60 66 65 63 62 62 54 64 62 61 57 46
56 55 55 56 56 56 57 57 57 57 57 56 56 56 54 56 52 54 65 65 64 59 32 64 68 81 77 69 70 73 80 72 62 65 63 59 60 60 59 62 66 58 64 60 59 55 53
55 55 55 55 55 55 56 56 56 56 56 56 56 56 54 53 52 55 62 63 61 46 33 61 69 67 66 68 69 74 72 73 71 65 65 62 68 63 62 69 67 66 61 59 56 51 39
53 54 55 54 54 54 55 55 56 56 56 56 55 55 54 60 54 63 60 56 41 33 62 60 61 66 64 62 65 66 64 59 54 50 50 60 62 66 67 61 64 61 53 40 38 35 33
53 54 54 54 54 53 54 55 55 55 55 55 54 54 55 58 62 62 57 50 37 52 54 68 64 64 58 63 62 64 60 54 60 59 51 49 45 59 67 62 57 57 53 39 33 29 39
53 51 53 54 54 53 53 54 55 55 54 54 54 53 54 55 58 57 52 41 41 53 62 61 63 57 57 63 62 60 57 56 61 61 50 47 50 62 65 66 63 58 49 56 42 43 37
52 52 52 52 52 53 53 54 54 55 54 54 52 51 52 58 57 54 47 44 51 63 65 65 54 59 52 58 58 57 56 63 62 66 60 51 45 56 61 64 65 60 61 46 43 32 31
51 51 51 51 52 52 52 53 54 55 54 54 52 47 56 60 56 50 42 47 55 65 66 62 59 57 58 56 59 56 58 64 66 63 61 53 51 49 57 56 54 54 51 53 51 40 32
50 50 50 51 51 52 51 53 54 54 54 52 51 43 56 59 44 47 42 51 56 62 66 63 63 61 58 61 57 56 56 59 67 66 57 56 50 37 51 63 65 61 55 53 35 40 35
50 50 50 50 51 51 51 52 54 54 54 51 47 50 57 59 40 40 49 54 58 59 60 62 60 62 61 59 51 57 58 63 64 63 58 58 49 34 44 53 59 55 58 59 53 41 38
49 49 50 50 50 51 50 51 52 54 54 52 48 43 49 50 53 49 47 50 51 62 61 65 64 63 59 58 60 56 54 61 62 60 53 58 54 45 36 46 53 49 56 57 52 34 35
49 49 49 50 49 49 50 50 51 54 54 52 48 47 53 43 45 48 53 53 52 53 62 65 61 60 58 51 55 54 55 56 60 55 58 56 47 49 53 56 58 55 56 56 53 50 41
48 49 49 49 48 50 51 50 51 53 54 48 45 50 49 47 51 48 51 51 54 57 60 59 58 61 60 55 56 54 58 55 54 55 54 56 43 44 42 54 53 49 53 54 54 54 52
48 48 49 48 50 51 51 50 49 52 53 47 49 53 55 49 49 47 50 54 56 60 62 67 62 59 56 59 61 60 59 58 59 53 51 49 41 37 35 44 44 35 46 52 54 56 53
49 49 49 49 50 51 51 49 49 52 53 50 52 52 49 44 49 50 56 58 58 59 57 65 64 58 61 65 62 60 58 56 55 54 57 44 42 35 32 33 26 48 59 59 55 56 56
49 49 50 50 50 50 50 49 50 52 53 50 53 52 50 38 52 54 56 58 61 62 60 61 62 65 64 59 46 44 38 42 46 56 53 52 39 34 31 30 41 50 55 52 50 49 56
49 49 50 50 49 49 50 50 51 53 53 51 51 52 51 47 49 60 57 60 52 51 50 55 60 61 64 47 39 37 33 42 41 49 53 52 44 35 31 28 25 43 55 60 58 38 55
49 49 49 49 48 49 49 51 52 52 52 51 50 53 49 49 54 60 57 56 58 53 47 52 52 52 56 35 35 34 35 51 38 37 35 33 33 31 26 25 35 53 58 58 38 39 54
49 48 47 48 49 49 51 51 51 51 50 50 49 53 51 50 52 58 65 58 57 53 45 53 48 49 41 39 36 35 33 39 39 46 41 36 32 29 32 29 29 58 56 45 47 53 55
49 49 49 49 49 50 50 50 50 51 49 50 47 54 55 49 53 60 63 66 67 64 56 52 51 53 50 43 40 38 34 35 37 33 51 37 43 36 40 36 50 56 55 57 57 55 54

GFSGBSN_sfc_temp_018.txt.gz
Temp
62 62 61 61 61 61 62 62 61 61 61 61 60 60 60 61 60 59 59 58 58 58 58 59 59 59 53 53 58 71 68 68 69 70 67 66 64 61 58 62 60 60 65 67 66 66 64
61 61 60 60 60 61 61 61 61 60 60 60 60 60 59 59 59 59 58 58 57 57 58 59 59 58 51 53 74 71 70 69 70 67 68 67 66 68 64 63 59 64 67 65 66 65 66
61 60 60 60 59 59 60 59 60 60 60 60 60 59 59 59 59 58 58 57 57 57 57 58 58 57 52 58 73 70 73 70 71 70 68 71 71 66 65 63 66 67 61 62 62 64 63
60 60 60 60 59 59 58 59 59 59 60 60 60 59 58 58 58 57 57 56 56 57 57 58 58 52 51 71 68 70 71 72 75 74 72 74 73 68 64 66 64 60 58 52 62 66 63
60 60 60 59 59 58 58 58 58 59 60 60 59 59 58 58 57 57 56 56 56 57 57 57 50 50 53 72 71 75 74 72 73 73 72 79 70 62 64 55 50 53 47 52 59 69 65
59 59 59 59 59 59 59 58 58 58 59 59 59 59 58 57 57 56 55 56 56 55 56 59 58 49 60 67 75 78 75 76 72 68 67 64 59 54 54 51 43 48 51 51 54 63 62
59 59 59 59 59 59 59 59 58 58 58 59 59 59 58 57 57 56 53 51 51 50 50 53 58 58 66 73 78 76 78 74 70 66 55 58 52 47 53 54 58 59 56 55 54 61 58
58 58 59 59 59 59 59 59 58 57 57 58 58 58 58 57 57 56 52 49 57 57 50 60 62 63 69 70 64 72 77 67 63 56 57 54 48 58 61 63 61 57 54 53 57 61 59
57 57 58 58 58 58 58 59 58 57 57 57 57 58 57 57 55 53 50 52 63 61 49 58 63 63 66 70 64 68 73 67 62 57 57 52 58 63 64 61 57 55 54 52 53 57 57
57 56 57 57 58 58 58 58 58 57 57 57 57 57 56 55 52 53 50 60 59 58 43 53 60 65 71 71 63 74 75 70 62 58 58 55 61 62 59 57 57 50 62 59 57 52 45
55 56 56 56 56 56 56 57 57 57 57 57 56 56 54 57 52 53 61 61 60 57 28 59 62 75 71 65 66 67 75 68 60 60 59 55 57 56 57 58 61 55 59 57 56 50 46
53 54 56 56 55 55 55 56 56 56 56 56 55 55 54 53 51 53 59 61 57 40 31 55 65 62 62 64 64 68 68 71 68 62 60 57 64 62 62 66 63 62 58 55 51 47 35
53 53 55 55 55 55 55 55 55 56 56 56 55 55 55 57 52 57 59 57 43 35 57 55 57 61 59 58 60 62 59 57 53 48 47 55 57 61 64 56 61 58 49 39 37 32 32
53 52 54 54 55 55 55 54 54 55 55 55 55 54 55 58 56 56 56 49 35 46 50 61 60 60 55 59 59 59 56 52 55 55 48 46 43 56 62 57 52 54 50 37 32 29 38
53 52 53 53 54 54 54 54 54 54 55 55 54 53 52 56 55 57 51 40 40 47 57 56 58 53 52 58 58 56 53 52 57 57 48 44 47 57 61 60 58 54 47 52 39 37 35
53 53 52 52 52 53 53 53 53 54 55 54 51 50 52 56 57 54 46 42 48 58 60 59 51 55 48 53 53 53 52 57 57 60 59 52 44 55 59 62 59 55 57 44 40 33 31
52 52 52 52 52 52 53 53 53 53 54 55 50 46 54 57 56 47 41 43 51 61 61 56 54 52 54 52 54 52 53 59 61 59 58 52 48 47 55 54 55 51 49 49 47 38 33
52 51 52 52 52 51 52 53 53 53 53 52 48 41 54 57 43 45 43 49 51 56 61 58 58 55 54 54 53 52 53 58 62 58 54 54 47 35 49 59 64 55 52 50 34 39 32
51 51 51 51 51 51 51 52 52 53 53 48 44 47 54 56 38 38 47 50 53 54 56 56 56 59 59 54 49 53 55 60 63 60 55 53 45 34 43 51 54 52 55 53 47 37 36
51 51 51 51 51 50 51 52 52 52 53 49 45 40 46 48 50 45 43 45 46 56 55 57 57 57 55 52 55 53 53 58 59 60 51 55 49 43 36 44 50 46 52 52 48 33 35
50 50 50 50 50 50 51 51 52 52 52 49 46 46 48 38 42 47 47 47 45 46 57 59 55 56 53 48 48 50 53 53 56 53 57 53 46 47 49 51 52 51 51 50 49 47 39
49 49 49 50 50 50 51 51 51 51 52 45 43 46 47 44 48 44 46 45 46 50 53 54 53 56 55 52 53 51 54 52 52 53 53 52 43 42 42 48 49 46 50 50 50 50 48
49 49 49 49 50 50 50 50 51 50 51 44 48 51 49 46 45 43 44 48 49 53 56 59 57 55 51 57 58 57 58 57 56 52 48 47 39 36 36 40 42 34 44 49 51 52 51
49 49 49 49 50 50 50 50 50 50 50 49 49 50 46 41 46 45 48 51 51 54 52 59 61 55 57 61 58 56 54 53 53 51 53 42 39 33 30 32 26 46 54 54 50 50 51
48 49 49 49 50 50 49 49 50 50 49 47 50 48 45 35 47 48 50 51 55 56 55 58 59 62 62 55 45 42 37 41 46 52 51 52 38 32 30 30 39 47 52 50 47 44 51
48 48 48 49 49 48 49 50 50 50 50 48 48 49 46 42 45 54 50 54 49 50 51 53 57 57 57 43 37 35 34 40 39 45 50 46 41 35 29 28 25 41 51 56 53 37 52
48 48 48 48 49 49 49 50 49 50 50 48 48 50 46 45 50 56 50 51 57 49 50 49 51 50 52 35 32 32 34 46 36 36 34 32 31 29 23 24 33 48 54 54 38 39 52
48 48 48 49 49 49 49 50 49 49 50 49 48 51 48 45 49 54 59 56 56 53 45 49 48 47 39 37 36 33 31 37 37 42 39 36 31 26 31 25 30 52 52 44 46 48 52
48 48 48 49 48 48 49 49 49 50 51 51 46 51 53 46 48 53 56 59 64 59 52 49 51 51 49 42 37 36 32 32 35 32 46 37 40 35 37 36 48 52 52 53 53 52 51

GFSGBSN_sfc_temp_021.txt.gz
Temp
61 61 61 61 60 61 61 61 61 60 60 61 60 60 60 61 60 59 58 58 58 58 58 58 59 59 52 51 59 68 67 66 65 67 65 64 61 58 55 58 56 55 61 63 64 64 63
61 60 60 60 60 60 61 61 60 59 60 60 60 60 59 60 59 59 58 57 57 57 57 58 58 58 48 51 71 69 67 65 66 65 64 64 64 64 60 60 57 63 63 61 60 62 64
60 60 60 60 59 59 59 59 59 59 59 59 60 59 59 59 59 58 58 57 57 56 57 58 58 56 49 56 68 66 70 66 67 66 65 67 67 62 63 60 65 63 59 59 58 60 60
60 60 60 59 59 59 58 58 58 58 59 59 60 59 58 58 58 57 57 57 56 57 57 57 58 50 48 69 64 67 66 68 71 70 68 70 68 64 60 64 63 58 57 50 57 61 61
59 59 59 59 59 58 58 58 58 58 58 59 59 59 58 57 57 57 56 56 56 57 57 57 49 48 51 69 66 71 71 68 70 70 69 76 66 59 61 51 48 52 46 49 55 64 62
59 59 59 59 59 58 58 58 58 57 57 58 58 59 58 57 57 56 55 56 56 55 56 58 56 48 58 64 71 72 68 71 67 65 64 61 56 52 51 49 41 44 47 47 51 58 59
59 59 59 59 59 59 59 59 58 57 57 57 58 58 58 57 57 56 53 50 51 50 51 54 55 55 61 68 72 69 72 69 67 62 53 56 50 46 51 53 54 54 50 50 53 60 56
56 58 59 58 58 59 59 59 58 57 57 57 57 57 57 57 57 56 50 49 56 56 49 57 59 59 65 67 61 67 74 65 61 54 54 52 47 56 57 56 54 56 51 50 55 57 57
56 55 58 58 59 58 58 59 58 57 57 57 57 57 57 57 56 52 49 53 62 60 48 56 60 59 62 65 60 62 70 64 59 54 54 49 55 60 60 57 55 54 50 49 51 52 53
55 55 55 57 58 58 58 58 57 57 56 56 56 56 56 55 51 52 50 59 58 56 43 51 56 61 65 66 60 70 71 67 58 56 54 52 59 58 55 56 57 49 56 55 53 48 42
54 55 55 55 57 56 56 56 57 57 57 56 55 56 54 56 53 52 59 61 58 54 29 56 58 71 66 63 63 66 71 65 57 57 56 54 55 54 54 58 58 54 57 54 52 46 46
54 54 54 55 54 56 56 56 56 56 56 56 55 56 54 54 52 54 58 59 57 39 30 52 61 59 58 61 61 63 65 66 64 57 56 56 60 58 59 62 60 59 54 52 47 45 35
54 54 54 54 54 54 56 55 55 55 56 56 55 56 54 57 50 57 57 56 41 31 54 52 54 57 56 54 57 59 57 54 52 46 45 52 54 57 61 55 57 55 47 37 36 32 32
54 54 54 54 53 53 54 55 54 55 55 56 55 54 55 57 55 55 57 48 35 44 46 57 57 55 52 56 55 56 53 50 52 51 45 45 42 54 59 55 51 50 49 36 32 29 37
54 53 53 53 54 53 53 54 54 54 54 55 54 52 53 56 57 54 49 39 39 46 54 54 55 50 49 54 55 54 51 50 54 55 47 42 45 53 57 59 59 50 45 49 37 34 32
53 53 53 53 53 53 53 54 54 54 53 54 47 48 51 58 58 54 45 41 46 55 57 54 48 51 45 49 50 50 49 55 54 57 57 51 43 51 55 57 57 53 55 42 38 32 31
53 53 53 52 52 52 53 53 54 54 53 54 46 43 54 57 56 46 38 43 49 59 57 52 49 49 50 49 50 48 50 56 57 56 56 51 48 46 53 51 52 49 46 45 44 36 31
52 52 52 52 52 52 52 53 54 53 53 50 45 38 52 57 43 44 40 48 52 55 56 54 54 52 50 51 50 49 50 56 59 56 52 52 46 35 49 54 56 53 50 47 33 37 31
52 52 52 52 52 51 51 52 53 53 53 47 40 44 52 54 39 39 45 47 52 52 52 52 52 54 53 50 47 50 51 58 57 56 51 52 43 33 41 48 51 48 51 49 44 36 34
52 51 51 52 52 51 51 51 52 53 53 47 43 37 44 47 50 45 42 43 44 54 51 53 52 54 51 50 52 49 50 55 57 55 52 54 45 43 38 43 47 43 49 49 46 32 34
51 50 51 51 52 51 51 52 52 52 52 47 42 42 47 37 41 44 46 45 44 45 51 53 49 50 48 43 46 46 50 52 54 52 51 52 45 45 46 49 50 49 49 47 46 45 38
51 50 50 50 51 51 51 51 51 51 52 43 39 42 47 41 46 43 44 43 44 47 48 48 49 53 53 47 49 47 51 49 50 51 49 50 41 43 39 45 46 45 49 48 48 47 46
50 50 49 50 50 51 51 51 50 50 51 41 45 48 47 44 43 42 42 44 46 50 50 54 54 52 47 52 56 55 53 54 55 51 46 45 38 36 36 38 39 34 42 47 48 50 49
50 49 49 50 50 50 50 49 49 51 50 44 47 47 43 38 42 42 45 47 47 49 47 53 55 49 54 56 55 54 51 51 51 48 50 40 37 33 30 32 25 45 49 50 47 46 48
49 49 49 49 50 50 50 49 51 51 51 42 48 46 44 35 45 45 46 46 50 51 49 52 55 60 58 52 44 41 36 41 43 48 48 47 36 31 31 30 38 45 48 47 45 43 47
49 49 49 49 49 49 49 50 50 50 51 44 47 50 45 41 42 51 46 48 44 45 46 49 59 55 53 41 35 35 33 39 37 43 47 43 39 36 28 30 27 41 48 53 51 36 49
48 48 49 49 49 49 49 49 49 50 50 44 47 50 46 41 47 52 46 46 52 48 45 47 50 49 50 33 30 32 32 44 36 35 34 32 30 30 24 25 33 45 51 53 37 39 49
47 48 48 48 49 49 49 49 49 50 50 47 45 50 46 42 44 49 52 49 51 51 44 47 50 46 36 38 35 32 31 37 35 40 38 36 31 27 26 24 31 50 50 43 45 46 49
48 48 48 48 48 48 48 49 49 50 50 49 43 50 52 45 43 50 51 52 50 60 54 47 50 48 47 41 37 34 31 29 35 31 43 37 39 35 37 36 47 49 49 50 49 49 48

GFSGBSN_sfc_temp_027.txt.gz
Temp
61 61 61 60 61 61 61 61 60 59 59 59 59 59 60 61 61 60 59 58 58 58 58 58 58 59 57 58 63 67 66 66 66 69 69 68 66 64 61 62 63 60 64 66 66 65 62
60 60 60 60 60 61 61 61 59 58 58 58 58 58 59 60 60 59 59 58 58 57 57 58 58 58 55 55 70 68 66 65 68 69 68 69 68 68 64 63 62 65 64 65 64 64 64
59 60 59 59 59 60 60 60 59 59 58 58 58 58 58 59 59 59 58 58 57 57 57 58 58 56 53 60 68 68 68 69 68 70 68 70 71 68 67 62 67 65 61 62 62 64 62
59 59 59 59 59 58 58 59 59 59 58 58 58 57 57 58 58 58 58 57 57 57 57 57 57 53 52 69 68 67 68 69 70 70 71 73 72 68 65 67 65 61 61 57 62 63 63
58 59 59 58 59 58 58 58 58 59 59 58 57 57 57 56 56 56 57 56 56 57 57 57 53 51 55 68 66 71 71 70 69 70 71 74 71 64 64 60 57 57 55 56 58 65 63
58 58 58 59 57 59 59 58 58 59 58 58 57 57 56 56 56 56 56 56 56 56 56 57 56 51 60 64 70 70 69 71 70 67 67 67 62 60 58 59 50 52 54 56 57 63 62
58 58 58 58 58 58 59 59 58 57 59 58 57 57 56 56 56 56 55 54 53 51 51 55 57 55 61 68 70 69 69 69 70 67 60 61 58 54 58 57 59 58 55 55 60 63 61
57 57 58 58 58 58 58 58 58 57 57 58 58 57 56 56 56 55 54 50 55 55 47 56 56 58 62 67 60 66 71 65 62 58 59 57 53 59 58 58 57 57 55 56 59 60 61
56 56 57 57 57 57 58 57 58 57 57 57 57 56 56 55 55 54 51 53 60 59 47 53 56 57 60 64 59 62 68 64 60 56 56 54 60 59 59 57 56 57 54 54 55 57 57
56 55 56 56 57 56 57 57 56 57 57 56 56 56 55 55 52 53 51 59 59 57 43 50 53 59 61 63 58 68 70 68 61 57 55 57 60 58 57 56 58 54 61 57 55 54 51
55 55 55 55 55 55 55 56 56 55 57 56 56 56 55 54 51 51 57 58 57 55 31 56 55 69 63 61 63 63 69 67 58 57 58 57 57 56 56 58 59 58 59 58 56 52 51
55 55 55 55 55 55 55 55 55 55 55 57 56 56 55 52 53 55 58 59 56 42 32 51 57 54 55 59 62 64 65 69 65 59 59 58 63 62 61 62 61 60 58 55 52 51 44
55 55 55 54 54 54 54 54 54 55 54 56 56 56 55 56 52 57 58 55 41 33 52 51 52 54 55 54 57 58 57 56 55 49 49 56 58 62 63 59 60 59 55 46 43 41 41
54 54 54 54 54 54 54 54 54 54 54 54 55 55 54 55 58 55 56 45 34 43 47 56 56 53 50 54 55 56 54 53 56 55 49 49 47 58 61 60 57 55 55 44 36 36 43
54 54 54 54 54 54 54 54 54 53 53 53 55 50 49 51 56 55 48 36 39 45 51 51 55 48 49 53 54 55 52 54 57 56 51 45 48 59 60 61 62 53 50 55 42 39 40
54 54 54 53 53 53 53 53 53 53 53 53 47 45 46 53 55 50 43 40 44 53 55 54 46 51 45 49 50 52 49 55 55 57 60 54 48 55 58 62 59 57 57 47 45 37 35
54 53 54 53 53 53 53 53 53 53 53 53 45 39 50 53 53 45 36 41 47 54 56 51 48 47 49 48 50 48 51 56 57 55 59 55 53 50 56 55 55 53 51 48 50 45 40
51 52 53 53 53 53 53 53 53 53 53 49 43 33 48 53 38 42 38 45 49 51 55 53 53 51 48 50 47 48 50 56 57 57 54 56 50 43 51 57 60 57 54 51 44 42 40
51 51 52 51 52 53 52 52 52 53 52 46 38 40 48 49 33 37 44 46 50 49 51 50 49 53 54 51 45 50 51 57 55 56 54 54 47 42 47 53 55 54 54 51 47 44 40
51 52 52 51 51 52 52 51 52 52 53 46 40 33 41 42 47 42 40 41 43 51 51 52 51 53 52 50 50 49 50 55 54 57 51 56 48 47 43 48 52 48 50 50 51 42 44
51 51 51 52 51 50 51 51 51 52 52 45 40 36 42 33 37 41 44 44 41 42 50 53 48 49 49 45 46 46 51 52 54 51 54 56 47 46 49 52 51 52 51 49 49 50 46
50 51 51 51 51 51 51 51 51 51 52 42 36 37 41 42 43 40 41 41 41 45 48 46 46 49 50 47 49 47 51 51 50 52 51 51 46 46 46 48 49 48 51 51 51 49 49
50 51 51 51 51 52 51 50 50 51 50 41 42 44 42 42 40 38 38 42 44 48 49 52 51 48 46 51 53 54 55 55 55 54 48 48 42 42 42 43 46 39 45 49 50 52 53
49 50 50 51 51 52 51 50 50 51 50 45 44 43 38 35 40 39 42 44 45 47 45 50 52 48 53 56 56 56 52 50 51 49 52 44 43 41 37 38 33 51 53 55 53 53 54
50 50 50 51 51 51 50 49 50 51 51 46 44 43 40 35 41 42 42 43 47 49 48 49 52 55 57 53 46 44 40 43 44 47 48 49 42 36 36 38 43 49 51 51 50 54 56
49 50 50 50 51 51 50 49 49 51 52 47 45 45 43 39 37 47 43 45 42 43 44 47 54 54 53 44 38 37 36 41 40 44 47 44 44 44 35 36 35 48 55 55 57 46 55
49 50 50 50 50 50 49 49 50 51 51 47 41 46 44 38 42 45 44 42 49 46 43 45 48 47 52 38 35 35 37 45 38 38 37 39 38 38 33 37 42 51 54 56 44 50 54
49 49 50 50 50 49 49 49 50 50 51 48 41 46 44 40 42 45 47 46 47 48 40 44 45 45 40 37 37 37 36 41 41 43 41 41 39 37 35 35 38 52 51 48 55 53 53
49 50 49 49 49 48 49 49 50 50 51 49 40 46 46 39 41 48 49 50 50 56 50 49 46 46 46 41 39 38 36 35 40 39 45 41 45 43 45 46 53 53 56 56 55 55 52

GFSGBSN_sfc_temp_030.txt.gz
Temp
60 61 60 61 60 60 61 61 60 59 59 59 59 59 60 60 60 60 59 59 59 59 58 59 59 59 65 69 74 79 67 68 77 79 80 77 75 74 70 72 72 69 73 75 76 73 70
60 60 60 60 60 60 60 60 59 59 59 59 58 58 58 59 59 59 59 59 58 58 58 58 59 58 65 63 80 78 79 77 81 80 79 79 77 77 73 72 70 74 74 74 73 73 71
59 59 59 58 59 59 60 59 59 59 59 59 58 58 58 58 58 58 59 58 58 58 58 58 59 63 61 68 81 80 78 80 81 82 78 81 80 76 75 71 75 74 68 72 72 71 70
58 58 59 59 58 58 59 59 59 59 59 59 59 58 57 57 57 57 57 57 57 57 58 58 58 62 63 77 82 77 81 79 79 82 79 81 81 77 73 76 74 70 69 65 70 71 71
59 58 58 58 58 58 57 58 59 59 59 59 59 58 57 56 56 57 57 57 57 57 58 58 60 61 65 70 72 81 81 78 79 79 79 80 79 74 74 70 68 68 62 63 65 73 71
59 59 58 58 58 58 58 57 58 58 58 58 59 58 57 56 56 56 56 56 59 57 61 63 64 58 68 71 77 78 82 80 76 76 73 73 74 70 71 68 58 61 62 65 63 71 71
58 59 58 59 58 58 58 59 57 58 58 58 59 58 57 56 56 56 59 68 64 60 59 64 66 66 70 76 77 76 78 76 77 74 67 71 66 63 68 70 68 66 64 63 69 71 68
57 57 58 58 58 58 58 58 58 56 58 58 58 58 58 57 56 56 62 62 62 62 56 68 66 68 72 73 68 74 80 71 69 65 70 65 62 70 70 68 66 65 63 63 68 69 67
56 56 57 57 58 58 58 58 57 56 55 57 57 58 57 56 56 55 61 63 69 67 56 63 67 66 68 70 68 73 76 74 69 66 66 64 67 69 67 66 63 65 64 62 62 65 68
56 56 56 56 57 57 57 57 57 57 56 55 57 56 56 55 54 62 60 67 68 66 52 59 59 65 67 71 64 80 79 76 69 65 68 67 71 66 66 65 67 61 70 65 63 61 57
55 55 55 56 56 56 56 56 56 56 56 55 55 56 55 54 54 59 65 67 65 62 38 63 60 74 69 67 70 69 80 74 67 66 66 64 66 65 64 66 69 64 68 66 65 63 60
55 55 55 55 55 55 55 55 55 55 55 56 54 56 55 56 57 61 67 66 62 48 39 57 62 59 59 64 68 71 70 76 76 69 69 69 72 70 70 69 70 69 65 64 64 63 50
54 55 55 55 55 55 55 54 55 54 55 55 54 55 54 58 54 65 63 58 45 40 59 56 57 59 60 59 63 66 64 62 62 56 57 65 66 71 70 66 67 68 63 52 50 49 48
55 54 55 55 55 55 54 54 54 54 54 55 54 54 55 57 62 60 56 46 38 52 54 61 60 60 56 62 63 63 63 60 67 66 62 57 53 66 71 68 64 64 64 52 40 43 52
55 55 54 54 54 54 54 54 54 54 54 54 54 50 53 58 61 54 47 37 45 54 60 58 59 55 56 60 62 61 61 61 65 68 59 57 57 68 68 70 69 61 58 66 54 50 50
55 55 54 54 54 54 54 54 54 54 54 54 51 46 49 59 59 48 40 41 52 61 63 62 53 58 54 56 57 59 59 65 65 70 73 63 55 65 65 68 67 66 68 54 56 42 41
54 54 54 54 54 54 53 54 53 53 53 53 49 39 52 59 57 41 33 44 54 63 63 58 57 58 58 56 59 58 58 60 68 67 72 69 62 57 62 61 63 60 60 60 60 56 47
52 53 53 54 54 54 53 53 53 53 53 50 46 34 53 58 38 41 36 49 55 58 62 60 61 60 57 58 57 58 56 61 68 71 61 68 62 54 59 65 68 69 64 63 52 50 52
51 52 52 53 53 52 53 53 53 53 52 49 38 40 51 55 34 35 47 49 54 55 57 56 57 61 61 57 53 58 59 65 65 67 65 65 58 50 54 59 63 61 64 65 61 57 52
51 52 52 52 52 52 52 53 52 52 52 50 39 33 40 43 52 45 46 45 47 56 57 60 59 61 57 55 58 54 56 58 61 68 56 63 62 56 49 56 63 56 61 63 61 52 54
51 51 51 52 52 52 52 52 52 51 51 48 39 38 43 32 41 47 51 49 45 46 56 59 56 57 56 50 53 52 55 56 58 54 64 65 56 60 62 64 64 62 62 62 59 60 55
50 50 50 51 51 52 52 50 51 51 51 43 36 42 47 45 46 45 47 48 45 50 53 51 52 56 58 52 55 50 55 55 56 59 61 64 56 59 55 62 60 58 63 64 63 63 63
50 50 50 50 51 52 52 51 51 50 49 41 44 54 50 46 44 43 45 48 49 52 55 59 57 53 52 54 58 58 57 58 59 58 57 58 56 52 49 55 54 45 55 61 62 65 63
50 50 50 50 51 51 51 50 50 50 49 50 52 51 43 41 45 43 46 49 49 52 51 57 59 53 56 62 61 59 58 58 59 60 63 54 54 53 48 42 36 60 64 67 64 66 68
49 49 51 50 51 51 51 50 50 50 50 53 55 50 47 40 47 46 44 48 52 54 52 55 57 61 62 58 50 45 44 47 52 57 58 60 55 48 42 46 55 57 59 60 59 61 70
49 50 50 50 50 50 50 49 50 50 50 51 54 56 52 45 45 51 44 47 46 48 51 54 60 61 56 51 47 40 36 45 47 49 54 54 55 52 44 43 39 59 68 70 67 54 72
49 48 49 50 50 50 50 49 49 49 50 52 51 55 52 46 51 52 45 44 53 53 50 52 53 52 56 45 40 40 44 52 45 43 41 45 47 44 46 45 54 65 66 67 51 56 70
49 49 49 49 50 50 50 50 49 49 50 50 48 54 52 47 48 49 51 49 53 55 48 53 50 50 46 41 43 44 41 47 50 54 49 47 45 43 49 42 41 65 61 58 67 67 69
49 49 49 49 49 50 49 49 49 49 50 51 45 54 57 50 44 49 45 49 53 62 59 55 54 53 53 47 49 50 40 41 50 43 53 45 54 52 55 56 67 65 70 71 70 70 66

GFSGBSN_sfc_temp_033.txt.gz
Temp
60 60 60 60 60 60 61 61 60 59 59 60 59 59 59 60 60 60 59 59 59 59 59 59 60 59 67 72 78 84 67 68 81 83 83 82 79 79 75 77 78 75 77 80 81 79 77
59 59 59 59 59 60 61 60 60 59 59 59 59 59 59 59 59 59 59 59 58 58 59 59 59 57 69 64 88 87 85 81 86 85 84 85 82 83 77 77 76 78 78 79 79 78 78
59 59 59 59 59 59 59 59 59 59 59 59 59 59 59 58 58 58 58 58 58 58 58 59 59 66 65 70 88 89 86 86 89 87 83 86 85 80 81 76 81 79 73 77 78 78 76
59 59 59 59 58 58 58 58 58 59 59 59 59 58 58 58 57 57 57 57 57 58 58 58 59 67 64 86 90 86 88 86 88 89 85 87 86 81 78 82 78 74 75 63 73 77 78
59 59 59 59 58 58 58 58 58 58 59 59 59 58 58 58 56 56 56 57 57 58 59 58 63 65 67 73 77 86 88 84 85 86 85 86 83 78 79 71 70 73 64 60 66 78 77
59 59 59 59 58 58 58 58 58 58 57 58 58 58 58 58 57 56 56 56 61 57 61 70 71 62 72 74 83 86 88 86 81 81 78 77 77 72 74 71 59 63 66 69 64 71 75
58 59 59 59 58 58 59 59 58 57 57 56 58 58 58 58 57 56 59 72 66 62 67 68 70 72 75 82 83 82 86 81 82 77 68 75 68 65 70 73 73 71 68 67 70 72 72
57 57 58 58 58 58 58 58 58 57 57 56 56 58 58 58 57 56 60 65 69 67 61 74 73 74 79 79 73 79 86 73 72 68 73 71 63 72 77 75 71 69 67 67 71 74 71
56 56 57 57 58 57 58 58 57 57 57 56 55 56 57 57 56 58 62 69 76 72 60 68 75 73 75 78 71 76 80 77 71 68 70 66 71 76 71 70 68 68 66 65 66 71 74
56 56 56 57 57 57 57 57 57 57 56 56 55 55 56 56 54 66 64 74 77 71 54 63 66 71 76 76 68 83 83 78 74 67 71 70 76 71 69 68 70 63 73 69 67 65 57
56 56 56 56 56 56 56 56 56 56 56 56 55 55 55 54 61 61 71 76 73 66 39 68 70 79 76 68 76 74 85 78 69 70 71 66 70 68 66 69 73 67 72 69 69 66 65
55 55 56 56 55 55 55 55 55 55 56 56 55 55 55 57 61 60 61 66 67 50 40 62 67 63 63 67 73 78 76 79 79 72 73 71 79 75 73 75 74 75 69 68 68 64 53
55 55 55 55 55 55 55 55 54 55 55 55 55 55 54 60 58 66 59 53 46 41 65 61 61 64 63 62 65 70 67 65 63 58 59 67 70 76 77 70 73 71 64 53 49 50 49
55 55 55 55 55 55 55 54 54 54 54 55 54 54 54 59 66 65 50 44 38 53 57 66 66 65 58 65 63 66 64 61 68 67 62 58 54 69 74 70 67 66 65 54 37 40 51
54 55 55 55 55 54 54 54 54 54 54 54 54 58 56 59 61 61 44 34 43 54 63 61 63 58 59 64 64 64 63 63 67 69 58 59 60 75 75 75 74 66 61 70 58 58 52
54 54 54 54 54 54 54 54 54 54 54 54 51 53 55 59 60 54 38 37 50 61 65 66 54 61 56 59 59 61 61 68 67 72 73 66 58 71 72 74 74 69 73 58 59 42 41
53 54 54 54 54 54 54 54 54 54 54 53 47 41 58 61 55 43 32 41 53 63 66 61 59 59 61 60 61 61 62 68 72 71 73 68 64 64 68 64 64 64 62 64 63 59 46
52 53 53 53 53 54 54 54 54 53 53 50 44 35 58 56 38 39 36 47 55 61 66 64 62 62 61 63 60 60 61 67 73 73 64 69 65 56 61 71 75 70 66 65 54 52 56
51 51 52 52 53 53 53 53 53 53 53 47 39 41 55 55 33 35 46 48 54 56 59 59 59 62 64 62 57 62 65 72 70 69 67 68 61 50 57 65 69 64 67 67 63 63 49
52 52 52 52 52 52 52 53 53 53 52 47 39 33 40 44 49 45 44 46 47 57 60 62 60 63 61 58 63 59 61 67 70 70 61 64 63 57 51 58 65 59 64 67 64 54 54
51 51 51 52 52 52 52 53 53 52 52 47 39 38 43 33 38 47 50 49 47 49 59 62 58 57 56 55 58 58 61 63 63 61 65 66 56 59 63 67 67 65 64 65 62 63 54
51 51 51 51 51 52 52 52 52 52 52 43 34 40 46 45 46 46 46 47 49 53 56 54 55 58 54 51 57 50 58 58 59 65 63 66 56 60 58 65 66 62 66 67 66 66 65
50 50 50 50 51 51 52 52 52 51 50 41 42 55 52 46 42 44 46 48 49 55 59 61 60 59 56 58 62 58 58 56 59 59 58 60 56 53 49 61 61 51 61 64 66 69 67
50 50 50 50 50 51 51 51 51 51 50 44 46 55 47 40 40 46 49 52 51 54 54 60 62 58 63 67 65 61 55 57 54 57 62 58 56 54 49 48 39 59 71 70 66 69 72
50 50 50 50 50 50 51 51 51 52 51 45 54 54 47 39 47 48 49 51 54 56 55 57 62 66 69 62 53 47 42 44 47 53 58 60 55 49 45 46 55 61 67 65 64 64 74
50 50 50 50 50 50 50 50 51 50 50 48 50 59 52 46 44 53 50 52 50 52 50 57 65 66 63 54 49 42 40 46 39 46 60 60 58 51 49 43 40 58 70 75 74 57 74
49 49 49 50 50 50 50 50 50 50 49 48 49 58 53 45 51 52 48 49 56 54 51 50 52 54 60 48 42 43 44 54 43 37 41 45 46 44 47 46 54 68 74 77 53 58 75
49 48 48 49 50 49 49 50 50 50 50 48 52 59 54 46 49 50 55 54 54 55 48 54 51 50 50 45 46 47 44 51 51 54 45 45 45 44 49 45 42 72 70 61 68 75 75
48 48 49 49 49 49 49 50 50 49 49 49 49 58 59 49 45 56 56 59 61 63 59 57 54 53 57 52 52 52 46 46 51 45 58 43 53 52 57 56 67 72 71 76 78 75 75

GFSGBSN_sfc_temp_036.txt.gz
Temp
60 60 60 60 60 60 60 61 60 60 61 61 61 60 60 60 60 59 58 58 59 59 59 60 60 60 64 70 74 78 67 69 79 80 80 81 78 77 72 77 79 74 77 80 81 80 79
60 60 59 59 59 59 60 59 59 59 59 59 60 60 60 59 59 59 58 58 58 58 59 59 59 58 66 59 89 83 82 79 84 81 82 85 81 82 76 76 75 78 77 78 80 79 79
60 59 59 59 59 59 59 59 58 58 59 59 59 60 59 60 59 58 58 57 57 57 58 59 59 64 62 63 88 91 87 83 86 86 82 86 86 79 79 73 81 79 71 76 78 78 75
59 59 59 59 59 58 58 58 58 58 58 58 59 59 59 59 58 57 57 57 57 57 58 59 59 63 56 81 86 85 89 84 89 90 87 88 86 79 76 79 76 72 72 64 74 76 71
59 59 59 59 58 58 58 58 58 58 58 58 58 58 58 58 59 57 56 56 57 58 59 60 61 62 60 77 76 84 88 81 85 86 86 88 82 75 76 69 65 69 61 64 66 76 70
59 59 59 59 58 58 58 58 58 57 57 57 57 57 58 57 57 57 56 56 60 60 63 69 69 62 68 70 82 83 87 86 81 80 77 76 74 68 70 66 54 61 61 65 64 72 73
58 59 59 59 58 58 59 59 58 57 57 57 57 57 57 57 57 57 58 64 65 59 64 64 67 67 75 81 86 81 85 82 82 76 65 72 64 60 66 70 71 70 66 63 69 73 70
57 57 58 58 58 58 58 58 58 57 57 57 57 56 56 57 57 57 58 56 70 69 57 71 71 72 77 81 72 78 86 73 71 65 70 67 60 70 74 73 71 69 65 64 70 73 71
56 56 57 57 57 57 57 58 57 57 57 57 56 55 56 56 57 56 57 60 74 75 57 64 72 72 74 77 71 74 80 74 69 65 67 62 68 75 72 69 67 67 64 65 65 68 73
55 55 56 56 57 57 57 57 57 57 56 56 55 55 55 55 52 62 60 72 73 73 49 59 68 73 76 76 67 80 83 75 70 64 67 67 73 72 69 66 69 61 72 69 66 64 56
55 55 55 56 56 56 55 56 56 56 56 56 55 55 55 54 58 61 65 67 75 66 34 67 71 83 78 69 73 71 82 76 65 67 68 63 67 67 65 67 72 66 72 68 68 64 62
55 55 55 55 55 55 55 55 55 55 55 56 55 55 55 55 56 61 68 64 66 45 35 60 68 65 66 68 69 75 73 79 76 68 71 69 77 73 71 73 74 75 69 67 66 63 50
54 54 55 55 55 55 55 55 55 54 55 55 55 55 55 61 54 65 60 55 42 38 62 59 62 65 63 62 63 66 65 63 60 54 57 66 68 74 75 67 73 71 63 50 47 47 46
54 54 54 55 55 55 55 54 54 54 54 55 54 54 55 60 63 62 52 42 36 50 52 69 68 66 59 63 62 62 63 59 66 65 59 55 52 67 74 69 65 65 63 50 39 40 47
54 54 54 54 54 54 54 54 54 54 54 54 54 53 53 57 60 56 45 31 40 50 61 58 62 58 59 63 63 61 61 61 65 66 56 55 56 72 73 74 71 64 57 67 55 53 44
53 53 53 53 54 54 54 54 54 54 54 54 49 48 51 58 56 52 38 34 44 57 61 62 53 59 54 59 59 59 59 66 64 69 71 64 55 68 72 74 72 68 72 54 57 42 38
52 53 53 53 53 53 54 54 54 54 54 53 47 41 53 57 54 42 33 38 48 57 61 56 54 54 57 57 60 59 59 66 69 69 71 67 61 60 68 64 62 64 60 61 60 56 43
52 52 52 52 53 53 53 54 54 54 53 51 44 35 54 57 37 38 35 44 51 54 59 58 60 58 57 59 57 58 59 64 72 71 63 67 61 52 59 70 73 69 64 63 50 50 54
51 51 52 52 52 53 53 53 54 53 53 47 40 40 52 53 31 33 41 45 50 51 54 55 56 60 63 56 46 52 58 69 71 69 63 66 57 47 53 62 68 63 66 65 63 59 51
50 51 51 52 52 52 52 52 53 53 53 48 40 33 41 43 50 42 39 42 44 54 53 57 57 62 59 55 55 48 48 65 68 70 58 61 60 54 45 55 61 58 63 66 61 50 50
50 51 51 52 52 52 52 52 53 53 52 48 39 35 41 33 36 45 46 47 43 45 53 56 55 56 56 49 48 45 48 52 61 62 66 62 54 57 60 64 64 63 62 63 61 58 52
51 51 51 51 51 52 52 52 52 52 52 45 32 37 46 46 43 42 43 44 45 49 51 48 50 55 58 53 52 47 49 50 54 61 62 64 53 56 52 61 63 58 63 65 64 64 63
50 50 50 51 51 51 51 52 52 52 50 45 40 47 48 44 42 39 41 45 47 52 55 57 55 55 54 59 62 55 53 50 49 53 54 57 54 52 46 57 56 47 58 63 65 68 65
50 50 50 50 51 51 51 51 52 52 51 44 41 45 39 38 42 43 45 48 48 51 50 56 59 55 62 62 59 55 49 49 48 53 55 50 55 53 45 44 36 58 70 69 65 67 69
50 50 50 50 50 50 50 50 51 51 52 46 43 46 42 37 45 46 46 48 50 52 51 54 59 66 68 53 44 40 39 42 43 46 49 53 50 46 42 43 52 59 64 63 61 61 70
50 50 50 50 50 50 50 50 50 51 52 49 44 48 46 40 43 52 48 50 45 47 49 53 62 64 64 55 43 34 36 43 37 41 50 50 52 46 45 40 37 53 66 72 71 52 71
50 50 50 50 50 50 49 49 50 50 51 49 45 47 47 40 50 52 46 46 53 50 48 52 55 55 62 41 35 38 41 52 41 39 37 37 41 41 42 41 50 63 68 72 50 53 72
49 48 49 49 50 49 48 49 49 50 51 49 45 50 48 42 49 51 52 49 51 52 46 54 49 47 48 42 40 43 42 47 48 52 44 39 36 41 43 40 38 67 67 57 63 70 72
48 48 48 48 48 49 49 49 50 50 50 50 43 50 56 46 46 56 55 59 56 59 56 56 53 48 45 43 49 49 44 45 48 39 54 40 44 43 45 48 62 64 64 70 73 71 72

GFSGBSN_sfc_temp_039.txt.gz
Temp
60 60 60 60 60 59 60 60 59 59 59 60 61 60 60 60 60 59 58 58 58 58 58 59 60 60 56 58 63 72 68 68 71 74 70 70 68 67 62 66 67 64 67 71 72 73 69
59 60 60 60 59 59 60 59 59 58 58 58 59 60 60 60 60 59 58 58 57 57 58 58 59 58 54 50 76 76 73 71 73 70 72 73 71 74 68 67 63 68 69 68 71 70 69
59 59 59 59 59 59 59 58 58 58 58 58 58 58 59 60 60 59 58 58 57 57 57 58 59 59 53 54 73 73 78 74 74 74 71 76 77 68 68 63 71 70 62 66 68 69 65
59 59 59 58 59 58 58 58 58 58 58 58 58 58 58 58 58 58 58 57 57 57 58 58 59 55 49 71 70 73 75 74 78 78 78 79 77 70 65 69 67 61 60 52 65 65 63
59 59 59 59 58 58 58 58 58 58 58 58 58 57 57 57 57 57 57 57 57 58 58 58 54 52 50 73 67 73 76 75 77 78 77 84 73 64 65 56 52 55 48 52 59 70 62
59 59 59 59 58 58 58 58 58 57 57 57 57 57 57 56 56 56 56 57 58 58 59 63 62 50 60 65 74 76 77 78 74 73 70 67 62 55 54 50 42 48 50 49 53 64 61
58 58 58 58 58 58 59 59 58 57 57 57 57 57 56 56 56 56 54 54 53 50 55 54 56 58 67 74 79 73 77 74 73 67 57 61 52 47 52 58 61 61 58 55 58 67 63
57 57 57 58 58 58 58 58 57 57 57 57 56 56 56 56 56 56 52 47 54 56 47 63 63 64 69 72 64 71 77 65 63 57 61 56 51 60 65 64 63 62 57 55 62 68 63
56 56 57 57 57 57 58 58 57 56 56 56 56 56 56 55 55 51 49 52 61 59 47 56 63 63 66 70 63 65 71 68 61 58 58 53 58 67 64 62 61 61 57 56 57 62 67
56 55 56 56 57 57 56 57 56 56 56 56 56 55 55 54 49 50 49 61 61 58 39 49 59 64 68 69 61 74 74 69 62 58 59 58 66 64 63 61 63 55 65 64 61 54 46
55 55 55 55 55 55 55 55 56 56 56 56 55 55 54 55 47 47 58 60 62 55 22 57 62 76 71 63 65 65 75 67 59 60 59 56 58 59 59 63 65 59 65 61 59 52 49
54 54 54 55 55 55 55 55 55 55 55 55 55 55 54 51 48 51 58 58 53 37 26 52 63 61 61 63 63 66 66 69 68 62 62 61 69 65 63 68 67 68 63 60 57 51 38
54 54 54 54 54 54 55 55 54 54 54 55 54 55 54 55 45 56 56 50 35 27 55 52 56 61 58 56 59 61 57 56 52 48 49 58 60 67 69 60 65 61 54 41 37 35 34
53 53 53 54 54 54 54 54 54 54 54 54 54 54 54 54 53 56 51 40 27 43 45 60 59 59 53 57 56 58 56 50 58 56 49 47 44 61 67 63 58 58 56 39 33 30 40
53 53 53 53 54 54 54 54 54 54 54 54 54 49 49 52 52 52 43 30 34 41 52 51 54 49 50 57 56 55 53 52 57 59 49 47 49 65 68 68 66 58 50 59 46 46 38
53 53 52 53 53 53 53 53 54 54 54 53 48 46 47 54 54 48 38 34 39 49 53 52 43 50 46 53 53 51 52 58 57 63 64 55 47 61 66 68 66 61 63 48 46 33 31
52 52 52 52 52 52 53 53 53 54 54 53 47 40 50 55 50 40 32 34 42 51 54 47 45 46 48 48 51 52 50 59 61 62 65 60 52 52 62 58 57 55 54 54 53 46 35
51 52 52 52 52 52 52 53 53 54 53 51 45 35 51 53 36 37 33 39 46 49 52 50 50 48 46 49 48 50 48 54 60 60 57 61 52 45 52 63 67 61 58 55 39 41 45
51 51 51 51 52 52 52 52 53 53 53 48 41 40 49 50 31 31 39 40 43 43 46 48 47 50 51 47 43 48 50 57 56 52 54 59 52 42 47 56 61 58 59 60 55 47 42
50 50 51 51 51 52 52 52 52 52 53 48 40 32 40 41 43 37 35 37 36 47 44 48 48 50 48 45 51 46 48 55 54 53 52 54 55 49 41 48 54 50 56 58 55 39 41
50 50 50 50 51 51 52 52 52 52 53 47 39 33 40 32 34 38 40 40 37 37 47 48 44 45 45 40 44 45 48 50 55 52 52 52 47 53 55 57 58 57 57 56 54 54 46
50 50 50 50 51 51 51 51 52 52 52 45 32 34 40 40 40 37 40 36 37 42 43 43 42 46 47 42 45 43 47 46 46 48 47 52 45 49 46 57 58 54 56 57 57 56 56
50 50 50 50 50 51 51 51 51 52 51 44 43 41 43 40 38 35 36 38 39 43 46 49 48 45 43 46 50 50 50 51 49 45 40 43 41 45 41 48 49 40 51 56 57 61 59
50 50 50 50 51 51 51 51 51 51 51 46 40 43 37 33 37 36 40 41 41 44 42 49 50 46 51 57 51 49 47 48 48 47 48 38 37 41 34 40 32 51 61 61 57 60 62
49 50 50 50 51 50 51 50 51 51 52 46 42 42 39 33 38 40 40 41 43 46 45 47 51 55 57 51 43 39 33 37 41 46 45 45 37 33 34 39 44 50 57 56 54 54 63
50 50 50 50 50 50 50 50 50 51 51 47 43 44 42 36 36 46 41 43 39 40 41 45 54 55 51 43 37 31 29 37 37 40 48 42 40 34 34 34 31 46 58 64 61 44 62
49 49 50 50 50 49 50 50 50 50 51 48 45 46 42 34 41 46 42 41 47 44 40 45 46 46 49 33 31 30 31 43 33 32 32 32 32 30 31 30 38 55 62 64 44 44 62
49 49 49 49 49 50 50 50 50 50 51 48 45 47 43 38 42 47 50 47 48 47 39 43 43 44 38 32 33 31 30 38 40 43 36 34 32 32 34 31 31 53 58 52 53 59 64
49 49 48 49 49 49 49 49 50 50 50 50 42 47 46 42 41 50 52 54 54 55 48 47 46 45 42 37 36 36 30 35 40 34 46 34 39 36 40 37 49 54 54 55 59 59 62

GFSGBSN_sfc_temp_042.txt.gz
Temp
60 60 60 60 60 60 60 60 59 59 59 59 59 59 60 61 60 60 59 58 58 58 58 58 59 60 55 53 57 71 68 68 68 70 68 67 63 61 57 61 62 59 63 67 68 66 61
59 59 59 59 59 59 59 59 59 58 58 58 58 58 59 59 60 60 59 58 57 57 57 58 59 59 52 46 71 73 70 68 70 67 67 67 66 67 63 62 58 64 64 63 68 65 62
59 59 59 59 58 59 58 58 58 58 58 58 58 58 57 58 58 58 58 58 57 57 58 58 59 59 52 50 67 67 71 67 69 70 67 70 69 65 64 61 66 65 59 62 64 63 62
59 59 59 59 59 58 58 58 58 57 57 58 58 57 57 57 57 57 57 57 57 57 58 58 58 57 47 66 64 65 65 65 71 72 72 73 72 68 63 64 62 58 56 49 60 61 61
59 59 59 59 58 58 58 58 58 58 58 57 57 57 56 56 56 56 56 56 57 58 58 58 54 51 46 67 63 68 69 67 71 72 71 78 70 63 62 53 48 49 44 48 54 63 60
59 59 59 58 58 58 58 58 57 57 57 57 57 57 56 56 55 55 55 56 58 56 56 61 60 49 55 61 69 72 68 72 69 68 66 65 59 54 51 47 39 44 46 45 48 57 57
58 58 58 58 58 58 58 58 58 57 57 57 57 57 56 56 55 55 53 52 50 49 52 51 53 53 61 69 73 69 72 69 67 63 54 58 50 46 50 52 55 54 51 50 56 62 58
57 57 57 57 57 58 58 58 57 57 57 57 57 56 56 56 55 55 51 44 49 49 41 57 58 59 63 67 59 65 71 62 59 53 56 53 48 56 58 57 55 55 51 52 57 63 59
56 56 56 57 57 57 57 57 57 56 56 56 56 56 56 55 54 51 48 50 59 57 40 52 59 59 61 64 57 60 65 62 57 53 53 50 54 62 58 56 54 55 52 52 54 58 56
55 55 55 56 56 56 56 56 56 56 56 55 55 55 55 54 49 49 47 58 59 57 36 46 54 58 63 64 55 69 69 64 58 54 54 53 61 59 56 55 57 50 60 59 57 51 44
54 55 55 55 55 55 55 55 55 55 55 55 55 55 55 55 46 45 55 56 59 50 23 53 57 69 64 59 61 62 70 63 55 56 55 51 54 55 54 57 60 55 61 58 57 50 46
54 54 54 54 54 54 54 54 54 54 55 55 55 55 55 50 46 49 54 55 52 35 24 46 60 56 54 58 59 63 61 64 63 56 57 55 62 59 58 63 62 64 59 57 53 48 37
53 53 53 54 53 53 54 54 54 54 54 54 54 55 53 53 43 50 55 48 34 26 50 48 52 57 54 51 54 56 54 52 49 43 46 53 55 61 62 55 61 58 50 39 37 35 34
53 53 53 53 53 53 53 54 54 54 54 54 54 53 53 53 49 50 49 39 28 39 42 54 53 54 49 53 52 53 50 46 53 50 44 43 39 55 62 58 54 53 51 37 32 29 38
53 53 53 53 53 53 53 53 53 53 53 54 53 49 48 50 49 50 40 31 33 40 48 47 51 46 47 52 53 52 49 49 51 54 44 42 44 59 63 64 60 54 46 55 43 40 35
52 53 52 52 52 53 52 53 53 53 53 53 48 46 46 52 49 46 35 32 38 48 49 47 39 45 42 46 46 45 46 54 53 56 59 51 42 56 61 62 62 59 60 44 41 33 30
51 52 52 52 52 52 52 53 53 53 53 53 47 41 49 50 48 39 30 33 41 49 49 44 41 40 43 44 46 47 46 52 54 55 59 54 50 48 55 52 52 52 49 49 48 41 33
51 51 51 51 52 52 52 52 52 53 53 50 45 35 48 52 35 37 32 38 45 44 49 46 46 45 43 45 43 44 45 52 54 54 48 51 48 42 48 59 61 57 55 53 40 39 39
50 51 51 51 51 51 51 52 52 52 53 47 40 39 48 48 30 31 38 39 42 42 44 44 43 46 47 44 40 45 47 54 55 53 47 50 42 36 43 51 54 51 54 57 51 43 39
50 50 50 51 51 51 51 51 52 51 52 47 39 32 39 41 40 37 34 35 36 45 42 43 42 45 42 40 44 41 44 52 54 52 49 51 45 41 36 44 50 47 54 56 53 37 39
50 50 50 51 51 51 51 51 51 52 51 46 39 33 38 33 34 37 39 38 35 35 43 45 40 41 40 35 38 39 44 47 54 49 51 48 39 41 45 50 54 53 53 53 51 48 42
49 50 50 50 50 50 51 51 51 51 51 44 33 34 39 37 40 36 37 35 35 38 41 39 38 43 42 37 40 37 42 43 44 48 47 46 38 38 37 48 51 50 55 55 55 53 50
50 50 50 50 50 50 51 51 51 51 50 42 43 41 41 39 37 34 34 35 38 40 43 45 44 42 40 43 47 47 46 46 46 44 39 41 37 34 31 42 46 39 50 54 53 55 55
49 49 50 50 50 50 51 50 51 51 50 46 43 42 36 33 35 35 39 40 38 42 38 45 45 41 47 53 48 46 45 44 45 45 46 38 36 34 30 35 28 48 56 59 55 56 57
48 49 50 50 50 50 50 50 51 51 51 45 45 42 38 32 36 38 39 40 41 43 41 42 46 50 51 47 38 36 31 34 38 43 44 45 37 32 30 30 40 46 53 50 49 51 58
48 49 50 50 50 50 50 50 50 50 51 47 45 45 40 35 35 42 39 40 37 36 38 42 50 53 49 41 36 29 25 33 33 37 46 41 40 35 31 28 27 42 54 61 58 41 58
49 49 50 50 49 49 49 50 50 50 51 47 45 46 40 33 40 41 38 38 43 40 37 40 43 43 49 33 31 29 29 40 31 30 33 32 32 31 30 29 35 48 51 59 42 43 58
48 48 48 49 49 49 50 50 50 50 50 47 45 45 41 36 39 43 47 43 43 43 36 40 40 41 38 34 32 30 27 34 34 39 34 33 30 29 32 29 29 50 51 44 47 51 55
48 48 48 48 49 49 50 50 49 50 50 50 42 46 48 40 40 46 46 50 50 52 47 44 43 43 43 37 34 32 28 26 32 27 43 33 39 35 37 37 49 51 51 54 54 51 53

GFSGBSN_sfc_temp_048.txt.gz
Temp
59 59 59 59 59 59 59 59 58 58 57 58 58 58 58 59 59 58 57 57 57 58 58 58 59 59 54 47 52 65 68 66 64 66 64 61 58 57 53 55 57 53 56 59 61 60 57
59 59 59 59 59 59 59 59 58 58 57 57 57 57 57 58 58 58 57 57 57 57 57 58 58 58 50 42 63 63 62 62 63 62 63 63 61 62 57 56 55 58 58 58 58 59 57
58 59 59 59 58 58 58 58 57 58 57 57 57 57 57 57 57 57 57 57 56 56 57 57 58 55 48 48 60 60 61 60 62 63 62 63 63 58 57 54 61 58 53 56 57 55 55
58 58 58 58 58 57 57 57 57 57 57 57 58 57 56 56 56 56 56 56 56 56 57 57 58 52 44 62 57 59 57 60 64 64 63 65 63 60 57 59 57 51 50 45 53 55 55
58 58 58 58 57 57 57 57 57 57 57 57 57 57 56 56 55 55 55 55 55 57 57 57 51 49 45 64 57 62 62 60 63 64 63 72 63 56 56 49 45 45 40 43 50 56 53
57 57 57 57 57 57 57 57 57 57 57 56 56 56 56 56 55 55 54 55 56 55 56 56 57 45 54 58 63 65 60 63 61 60 59 58 54 48 46 45 37 40 39 39 43 48 51
57 57 56 57 57 57 57 57 57 56 56 56 56 56 56 55 55 55 52 48 45 44 47 46 48 49 57 64 67 62 63 60 58 57 49 52 46 44 46 49 49 48 44 42 46 52 51
56 56 56 56 57 57 57 57 56 55 55 55 55 55 55 55 55 54 48 44 48 49 39 50 49 50 55 59 51 59 65 56 53 48 52 48 46 51 54 51 50 47 44 43 49 53 51
55 55 56 57 57 56 56 56 55 55 55 55 55 55 55 54 54 49 44 48 57 55 40 46 51 50 55 56 50 54 60 57 52 48 49 46 49 55 53 49 47 46 43 44 46 49 50
55 55 55 55 56 55 55 55 55 54 54 54 54 54 54 54 47 46 44 54 56 54 34 40 45 51 57 55 48 63 64 59 52 49 49 48 55 51 49 49 50 42 50 51 48 44 38
54 54 55 54 54 54 53 54 54 54 54 54 54 54 54 54 44 42 49 54 55 50 22 49 50 61 58 52 54 56 64 57 49 50 50 46 49 49 47 49 53 48 52 50 49 43 40
54 54 54 54 54 53 53 53 53 53 53 53 54 54 54 49 48 48 49 49 49 33 22 41 52 49 48 51 51 56 54 59 58 51 49 51 55 53 54 55 55 56 51 48 45 41 32
53 53 53 53 54 53 53 53 53 53 53 53 53 53 52 52 46 46 47 45 32 25 44 42 44 51 49 46 48 51 48 46 46 41 40 47 50 54 57 50 51 50 44 34 32 30 31
52 53 52 53 53 53 53 53 52 52 52 53 53 53 51 51 49 48 44 37 26 36 36 46 46 48 45 49 48 51 45 41 48 47 41 39 36 49 55 52 48 46 44 33 30 28 34
53 52 52 52 52 52 53 52 52 52 52 52 52 45 45 48 50 48 38 27 30 36 42 40 43 40 42 47 48 48 46 44 49 51 44 39 41 53 55 56 56 47 40 49 38 35 31
52 52 52 52 52 52 52 51 52 52 52 52 44 44 44 50 52 45 33 30 36 44 43 41 34 39 35 40 41 42 44 47 47 52 52 46 39 50 54 55 53 51 52 39 36 31 29
51 51 52 52 51 51 51 51 51 51 52 52 43 39 48 51 49 39 29 30 37 45 45 39 37 36 38 38 40 40 42 47 49 49 50 48 43 43 50 47 46 46 43 43 43 36 31
50 51 51 51 51 51 51 51 51 51 51 48 41 33 47 50 36 34 31 37 43 42 46 42 42 40 37 39 38 40 40 46 51 50 44 46 40 34 43 53 54 48 45 45 35 36 34
50 50 50 51 51 51 51 51 51 51 51 44 37 37 47 47 31 31 35 37 39 39 40 40 39 40 42 38 35 40 44 50 51 49 46 47 40 31 37 44 46 42 46 46 44 39 35
49 49 50 50 51 50 51 51 51 51 51 45 36 30 38 41 40 37 33 33 34 40 39 40 39 41 39 36 40 37 39 47 51 51 49 49 41 37 32 37 40 37 42 44 42 32 35
49 49 49 49 50 50 50 50 50 51 51 44 36 32 38 31 33 36 37 37 33 35 41 40 36 36 35 31 33 34 41 43 47 49 48 46 36 38 42 43 42 42 42 43 40 40 35
49 49 49 49 49 49 49 50 50 50 51 41 32 33 38 36 39 35 35 33 35 37 39 36 33 37 37 33 35 33 38 37 38 44 42 44 34 36 33 42 42 39 42 43 44 44 42
48 48 48 49 49 49 49 49 49 50 49 40 40 41 39 36 35 33 34 35 35 40 41 43 39 37 34 38 40 42 41 41 40 38 37 38 36 33 30 36 38 31 38 43 44 46 45
48 48 48 48 49 49 49 49 49 50 49 43 41 40 34 30 33 34 37 38 37 39 37 42 43 37 43 46 44 41 40 39 39 39 41 36 33 30 27 30 24 39 45 47 44 46 46
47 48 48 49 49 49 49 49 49 50 50 44 43 41 36 30 35 36 37 36 40 42 39 41 42 47 46 44 35 32 29 32 35 40 40 40 32 26 23 26 33 39 44 44 42 45 48
48 48 48 48 48 48 48 49 49 49 50 45 43 45 40 34 32 40 36 37 34 34 37 39 47 49 45 36 31 26 22 30 30 37 41 38 37 33 30 22 19 35 45 49 46 34 45
47 47 48 48 48 48 49 49 49 49 49 46 44 46 41 32 39 41 36 36 40 37 34 37 40 41 45 31 29 26 26 35 28 31 32 32 32 31 31 28 31 41 46 48 32 35 47
47 47 48 48 48 48 48 48 48 48 48 46 44 47 41 35 39 43 44 40 39 39 32 38 37 37 35 30 28 28 25 31 30 33 31 30 27 29 32 28 25 45 45 39 44 48 47
47 48 48 48 48 48 48 49 49 49 49 48 40 46 46 39 38 44 46 50 49 48 45 42 39 39 38 31 31 29 24 23 31 25 35 29 33 30 33 33 42 46 47 50 50 47 49

GFSGBSN_sfc_temp_051.txt.gz
Temp
59 59 59 60 60 59 59 59 59 58 58 57 58 57 58 58 59 58 57 57 57 57 57 58 58 59 55 50 55 67 66 67 67 68 69 67 65 63 61 62 62 59 64 64 67 66 64
58 59 59 59 59 59 59 59 58 57 57 57 57 57 57 57 58 57 57 57 56 57 57 57 58 58 52 43 68 66 64 65 66 67 67 68 67 68 64 64 62 65 64 66 66 67 65
58 58 58 59 58 58 58 57 57 57 57 57 57 57 57 57 57 57 57 56 56 56 57 57 58 56 48 50 64 64 62 64 67 67 66 68 70 67 66 62 66 65 60 64 64 67 64
58 58 58 58 57 57 57 57 57 57 57 57 57 57 56 56 56 56 56 55 55 56 57 57 57 53 45 62 63 61 62 62 66 68 66 70 71 67 65 67 63 61 58 55 62 62 60
57 58 58 58 57 57 57 57 57 57 57 57 56 56 56 55 55 55 55 55 55 57 58 57 52 51 46 64 58 64 64 62 64 67 68 71 68 63 63 58 55 53 52 51 57 63 59
58 57 57 57 56 57 57 57 57 56 56 56 56 56 56 55 55 55 54 55 56 56 56 56 56 47 53 57 65 66 63 64 63 63 62 62 60 57 54 55 46 49 49 51 53 60 59
57 57 56 56 56 57 57 57 56 56 55 55 55 55 55 55 55 54 53 50 48 47 49 46 49 49 54 60 66 64 64 62 63 60 53 57 53 49 53 57 56 55 52 52 55 60 58
56 56 56 57 56 56 57 57 56 55 55 55 55 55 55 55 55 54 50 47 48 48 38 50 49 50 56 58 49 59 66 58 55 52 54 52 48 56 57 56 55 54 52 52 56 57 57
55 56 56 56 56 56 56 56 55 55 54 54 54 54 54 54 54 50 47 48 56 54 40 46 52 49 51 55 49 53 62 60 54 50 52 50 53 57 56 53 51 52 51 50 52 55 58
55 55 55 56 56 55 55 55 54 54 54 54 53 53 53 53 49 47 46 53 55 53 35 41 45 50 56 56 48 61 65 61 55 51 52 52 58 54 53 52 54 47 54 54 52 51 48
54 54 54 54 55 54 54 54 54 54 53 53 53 53 53 54 48 47 50 53 53 49 25 49 49 62 58 52 55 56 64 60 52 52 53 49 50 52 50 53 56 53 55 54 54 51 49
53 54 54 54 54 54 54 53 53 53 53 53 53 53 53 50 50 51 51 50 49 34 25 42 52 50 48 52 53 57 56 62 61 54 54 54 58 57 57 56 58 59 56 53 51 49 41
53 53 53 53 53 53 54 53 53 53 53 53 53 53 51 53 46 50 50 45 33 26 45 41 43 49 49 47 48 51 49 49 48 43 43 50 52 58 59 53 56 56 51 41 39 39 40
52 53 53 53 53 53 53 53 53 52 52 52 52 52 50 51 51 51 47 37 25 37 38 46 45 46 45 49 49 49 46 44 52 50 46 43 40 53 58 55 51 51 51 43 35 35 43
52 52 52 52 52 52 53 52 52 52 52 52 51 45 45 47 51 49 40 27 31 37 42 39 43 40 42 46 47 48 46 45 50 52 45 42 44 55 57 58 59 50 46 55 44 42 41
52 52 52 52 52 52 52 52 52 52 52 52 43 42 43 48 51 45 34 31 35 44 44 42 35 40 36 40 42 43 44 50 48 53 55 49 43 53 56 59 58 56 57 45 44 36 34
51 51 51 51 51 52 51 52 51 51 51 51 42 37 46 49 49 39 29 32 37 45 45 39 37 36 38 38 41 41 44 50 50 50 53 53 48 46 55 52 50 51 50 50 49 44 39
50 50 51 51 51 51 51 51 51 51 51 47 41 31 46 49 35 35 32 34 43 42 46 44 42 41 39 40 39 41 42 45 51 51 46 50 45 40 46 55 56 54 51 50 42 41 40
50 50 50 51 50 50 51 50 51 51 51 42 37 37 46 46 29 31 35 35 40 40 41 41 39 41 43 40 36 41 43 51 51 51 47 49 42 37 41 47 50 45 47 47 46 43 40
50 50 50 50 50 50 51 50 51 50 51 44 36 30 37 39 40 35 33 34 34 41 40 41 39 42 40 38 41 39 41 48 49 51 48 50 45 40 36 39 44 41 45 47 46 39 40
49 49 49 49 50 50 50 50 50 50 50 43 37 32 38 30 32 34 35 35 33 34 41 43 37 38 37 33 35 37 42 43 48 49 50 48 41 43 46 46 45 44 45 46 43 45 40
49 48 48 49 49 49 50 49 50 50 50 40 32 33 37 35 37 33 34 33 34 37 39 36 36 39 39 35 37 36 39 41 40 45 44 45 38 40 37 44 44 41 44 46 46 47 47
48 48 48 49 49 49 49 49 50 50 49 39 40 41 37 35 35 32 34 35 35 40 41 44 41 37 35 39 43 44 45 44 43 40 39 39 38 36 34 38 39 35 41 44 47 51 50
48 48 49 49 48 48 49 49 49 49 48 42 41 40 34 29 32 33 37 36 37 39 37 42 43 37 44 50 48 45 42 41 42 41 43 38 37 33 31 34 26 44 49 49 47 50 53
48 48 48 48 49 49 49 49 49 49 49 42 43 39 36 30 35 36 36 37 37 40 38 38 42 47 48 43 35 34 34 35 38 41 41 43 38 33 30 31 38 43 48 48 44 47 51
47 48 48 48 48 48 48 48 49 49 50 44 43 44 39 34 32 40 37 39 34 34 34 37 45 48 46 36 33 27 27 33 31 37 42 40 41 36 32 28 25 40 48 53 52 40 53
47 47 47 47 47 47 48 48 49 49 49 45 43 45 39 32 38 41 36 35 38 37 35 37 39 37 42 33 30 29 29 37 31 32 32 33 33 32 32 30 36 46 50 52 38 43 53
47 47 47 47 48 47 47 47 48 49 49 46 43 46 40 34 38 43 45 39 39 37 33 38 36 36 35 31 31 32 30 35 35 37 35 34 33 32 34 29 27 49 49 43 50 53 54
47 47 47 47 46 47 48 48 48 48 49 48 40 46 45 38 38 46 48 50 49 47 43 41 41 38 39 35 35 35 31 32 36 31 39 34 39 36 38 39 47 50 50 54 53 51 53

GFSGBSN_sfc_temp_054.txt.gz
Temp
59 59 59 59 59 59 60 60 59 58 58 58 58 58 58 58 58 58 57 57 57 57 57 58 58 59 60 60 61 76 69 71 77 76 76 75 73 73 70 73 74 69 75 76 78 77 76
58 58 58 59 59 59 59 58 58 58 58 58 58 57 58 58 58 58 57 57 56 56 57 57 58 58 56 50 73 75 72 75 76 76 76 76 75 78 73 72 71 74 75 76 77 76 77
58 58 58 58 58 58 57 57 57 58 58 58 57 57 57 57 57 57 57 56 56 56 56 57 58 60 52 54 73 73 71 70 75 76 74 78 79 73 75 70 76 75 68 72 74 76 75
58 58 58 58 58 57 57 57 57 57 57 57 57 56 56 56 56 56 56 56 56 56 57 57 58 57 50 68 72 67 71 71 72 76 74 79 79 74 72 76 71 68 69 63 74 75 74
58 58 58 58 57 57 57 57 57 57 56 56 56 56 56 55 55 55 55 55 56 57 58 58 57 55 52 67 64 71 71 65 71 73 74 76 75 71 72 65 64 65 60 62 68 74 72
58 58 58 57 57 57 57 57 57 56 56 56 56 56 55 55 55 55 54 55 58 57 62 63 62 50 59 60 68 68 69 68 68 69 67 68 69 65 66 64 54 59 60 65 64 70 70
58 57 57 57 57 57 57 58 57 55 55 55 55 55 55 55 55 54 58 65 60 56 56 53 56 55 59 67 70 68 67 65 69 67 59 65 60 56 63 66 67 66 63 63 68 70 66
56 57 57 57 57 57 56 57 56 55 55 55 55 55 55 54 54 54 61 55 50 51 39 55 56 56 61 65 54 64 71 61 62 57 63 59 54 65 68 68 64 63 60 62 67 67 66
55 56 56 56 56 56 56 56 56 54 54 54 54 54 54 54 54 57 57 54 60 59 43 51 57 55 57 60 54 58 65 63 60 58 60 56 61 67 63 61 59 61 59 60 61 64 68
55 55 55 55 56 56 56 55 55 55 54 54 54 53 53 53 53 58 57 61 63 58 37 49 53 57 58 59 51 63 68 66 60 56 57 58 65 60 60 59 62 56 65 62 61 59 55
54 54 54 54 55 54 55 54 55 54 54 54 53 53 53 53 55 55 58 62 62 53 33 53 55 67 61 54 57 57 69 64 56 58 58 55 56 58 57 60 65 60 65 62 62 59 59
54 53 54 54 54 54 54 54 53 54 54 53 53 53 53 57 55 57 62 60 57 41 33 46 56 54 53 56 55 59 57 66 66 58 61 61 65 63 63 65 65 66 61 61 60 58 47
52 53 53 54 53 53 53 53 53 53 53 53 53 52 53 58 53 60 57 56 40 36 51 45 46 52 52 52 53 52 51 48 51 44 48 57 57 62 63 60 64 63 56 48 46 46 45
52 53 53 53 53 53 53 52 53 53 53 52 52 51 55 59 62 58 52 45 31 42 43 51 49 51 49 53 53 53 49 45 56 54 50 47 44 56 62 60 57 57 58 50 39 42 50
52 53 52 52 52 52 52 52 52 52 52 52 51 55 53 58 59 54 42 33 40 43 47 45 49 45 46 52 52 52 51 49 54 56 47 47 48 61 62 62 63 57 52 62 52 51 49
52 52 51 52 51 52 52 52 52 52 52 52 47 46 51 59 58 50 36 34 42 49 48 47 40 44 40 45 48 50 48 53 51 59 61 55 46 58 60 64 64 61 65 50 52 40 39
50 51 51 52 51 50 51 51 51 51 52 52 45 42 56 59 53 42 32 39 45 52 51 44 42 41 43 43 46 47 47 52 54 55 58 58 52 51 58 55 55 56 55 56 58 54 45
51 51 51 50 50 51 52 51 51 51 51 48 45 34 53 54 36 38 33 42 46 47 51 49 48 45 43 45 43 45 44 51 56 57 51 57 52 47 52 59 63 63 58 58 49 47 51
50 50 50 50 50 50 51 50 51 50 51 48 41 40 53 50 30 32 39 40 45 46 47 46 45 46 48 44 39 46 49 55 55 54 50 54 51 43 47 53 58 55 56 57 54 53 48
49 49 50 51 51 50 50 50 50 50 51 46 40 32 40 43 42 39 38 38 39 47 47 48 47 47 44 43 48 43 46 52 54 54 48 53 51 47 44 48 54 47 51 53 53 46 49
49 49 50 49 49 50 50 50 50 51 50 45 38 34 44 31 36 38 40 38 40 38 46 49 45 45 43 37 42 42 47 50 53 52 54 52 42 48 50 50 51 50 51 52 50 51 46
49 49 49 49 49 49 50 50 50 49 50 42 33 35 41 42 44 39 39 36 39 40 42 42 42 45 45 40 43 42 45 47 45 51 49 52 45 47 44 50 49 46 51 53 53 53 53
49 48 49 49 49 49 49 50 49 49 49 42 41 45 38 40 40 39 39 40 41 44 45 48 46 43 40 44 49 51 50 50 49 46 44 45 45 43 40 45 46 40 48 52 54 59 57
49 48 48 48 48 49 50 50 49 49 49 46 43 42 35 30 36 39 42 43 43 43 41 47 45 41 46 53 53 52 50 49 48 48 49 43 43 43 40 39 30 51 56 55 53 57 60
48 48 48 48 48 49 49 49 48 48 49 46 47 39 35 32 41 41 42 42 45 45 37 38 45 48 48 40 37 39 40 40 43 47 47 49 45 38 35 38 45 49 54 53 51 53 58
48 48 48 48 48 48 48 49 49 49 49 47 46 48 40 31 35 46 42 44 40 39 39 37 43 47 43 36 35 31 32 38 36 40 50 47 47 41 37 32 29 48 54 58 58 45 59
47 47 47 48 48 48 48 48 48 48 49 47 46 49 41 32 39 43 40 40 44 40 35 37 38 38 41 35 32 34 34 42 35 35 33 36 38 34 36 34 42 54 58 58 42 45 58
45 46 47 47 47 47 48 48 48 48 49 47 46 50 42 34 37 45 47 43 44 41 34 40 36 36 35 33 35 36 36 41 40 43 39 35 36 35 39 32 30 57 54 47 52 58 58
47 45 46 47 47 47 47 47 48 48 48 48 43 50 49 37 38 49 51 54 53 52 43 40 42 40 43 40 42 43 37 41 42 36 49 38 46 43 45 44 54 57 56 58 57 55 56

GFSGBSN_sfc_temp_057.txt.gz
Temp
59 59 59 59 59 59 60 59 59 58 58 58 58 58 58 59 59 58 58 57 57 57 57 58 58 58 63 65 68 86 70 75 80 78 78 78 76 75 70 76 79 75 78 82 83 83 81
59 59 59 59 58 59 58 58 58 58 58 58 58 57 57 58 58 57 57 57 57 57 57 57 58 57 62 54 82 83 78 79 82 79 78 81 78 80 75 76 76 80 78 79 82 81 81
59 59 58 58 58 58 58 57 57 57 57 57 57 57 57 57 57 57 57 56 56 56 57 57 58 62 59 62 82 81 77 75 80 78 75 80 82 77 77 73 80 79 72 76 78 80 78
58 58 59 58 57 57 57 57 57 57 57 57 57 56 56 56 56 56 56 56 56 56 57 57 58 64 57 78 82 76 75 72 79 78 78 81 83 76 74 79 76 71 72 65 77 79 80
58 58 58 58 57 57 57 57 57 57 57 56 56 56 55 55 55 55 55 55 55 56 58 58 61 62 59 71 69 75 72 69 73 78 75 80 78 69 73 67 65 68 61 65 70 81 78
58 58 58 58 57 57 57 57 57 57 56 56 56 56 55 55 55 54 55 54 60 57 61 69 68 55 64 66 72 73 75 72 66 72 68 68 69 63 65 66 55 61 63 67 68 77 75
57 57 58 57 57 57 58 57 57 56 55 55 55 55 55 55 55 54 57 70 65 61 65 60 62 61 66 71 75 71 71 68 68 65 59 67 59 56 62 67 69 68 68 67 72 77 72
56 56 56 57 57 57 57 57 56 56 55 55 55 55 55 55 54 54 59 60 57 57 46 61 62 61 66 69 57 65 74 62 59 52 62 58 55 64 68 70 68 66 64 65 71 74 70
56 56 56 56 56 57 57 57 56 55 55 55 54 54 54 54 54 57 63 61 68 63 50 58 64 61 62 65 57 60 68 65 56 49 52 56 63 66 65 66 65 65 62 64 64 71 71
55 55 55 55 56 55 56 56 56 55 55 54 54 54 53 53 52 63 59 68 69 64 44 56 60 63 63 62 53 67 72 66 57 53 53 55 67 62 62 63 66 59 69 67 65 64 57
55 54 55 54 55 55 54 55 55 55 54 54 53 53 53 53 57 54 63 68 67 56 37 58 60 71 66 58 61 61 72 66 56 55 59 55 60 60 58 63 67 62 70 68 65 62 61
54 54 54 54 53 54 54 54 54 54 54 54 53 53 53 59 56 63 68 65 61 39 37 52 60 58 59 62 59 62 60 66 65 59 61 60 68 65 59 65 69 70 65 65 64 62 50
53 53 53 53 54 53 53 53 53 53 53 53 53 53 53 60 53 63 64 59 44 39 57 51 52 57 57 56 57 57 53 52 47 43 48 57 58 66 65 58 67 66 60 50 47 48 46
53 53 52 53 53 53 53 52 52 53 53 53 53 52 56 62 65 61 58 50 36 48 50 57 54 57 52 57 56 56 52 49 53 53 50 48 44 59 65 59 58 61 60 50 40 43 51
52 52 53 53 52 52 52 53 52 52 52 52 52 56 57 61 63 61 48 37 44 50 54 51 54 51 51 55 55 56 54 51 54 55 46 48 51 65 66 65 63 59 54 64 54 55 50
51 51 52 52 51 52 51 52 52 52 52 52 53 47 54 63 63 55 39 38 49 55 54 53 45 50 45 49 51 53 52 55 53 58 63 56 47 62 63 65 65 61 67 53 55 41 39
52 52 51 51 50 52 51 51 52 51 52 52 50 39 60 63 59 42 34 42 50 57 56 50 48 47 49 47 49 50 50 55 57 56 60 59 54 53 59 56 55 56 55 58 59 55 44
50 51 51 51 51 51 50 51 52 52 51 50 46 33 59 60 36 40 37 47 51 53 57 53 53 50 48 49 47 47 48 53 58 56 50 57 53 47 51 62 66 63 58 57 49 47 54
50 51 51 50 51 50 50 51 51 51 50 48 41 42 58 52 34 37 44 45 49 50 52 52 50 53 54 49 43 49 52 58 57 53 48 53 50 42 48 56 61 57 60 62 60 58 46
50 50 50 50 50 50 50 51 51 50 50 48 40 33 45 45 46 42 41 41 42 52 52 54 52 54 50 47 51 46 49 55 57 55 49 52 50 48 43 50 58 53 57 60 58 49 50
49 49 49 49 50 50 50 50 50 50 50 45 40 37 44 34 41 42 44 42 41 41 51 53 49 50 48 43 46 45 50 53 57 52 54 48 44 49 54 55 55 56 55 56 54 56 50
49 49 49 49 49 49 49 50 50 50 50 41 35 37 46 44 46 43 43 38 41 45 47 45 46 50 51 46 47 45 49 48 48 55 52 51 40 45 45 53 52 50 55 57 58 58 57
49 49 49 49 49 49 50 49 49 50 49 39 46 47 41 40 43 41 41 44 44 48 48 50 50 48 46 50 52 53 53 49 51 49 48 48 44 39 35 48 49 42 51 54 56 60 59
48 49 49 49 49 49 49 49 49 49 49 43 44 47 37 34 41 41 45 45 45 47 45 50 52 47 52 56 55 54 53 51 52 51 53 46 47 46 39 42 28 52 61 61 58 61 64
48 48 48 49 49 49 49 49 49 49 49 46 46 43 39 32 42 43 43 44 49 48 45 47 49 46 50 46 40 39 40 41 43 51 51 52 47 41 37 39 48 53 57 56 54 56 63
48 48 48 48 48 48 48 48 48 49 50 48 43 48 41 35 37 47 44 48 42 43 45 46 51 49 43 38 35 32 32 40 39 44 53 51 50 42 41 34 33 50 60 62 62 48 63
48 47 47 48 48 48 48 48 48 48 48 48 45 49 42 32 45 45 36 41 48 46 42 43 42 40 41 35 32 34 35 45 37 37 38 40 41 36 38 37 45 58 61 62 43 47 60
46 46 46 46 47 48 48 48 48 48 48 48 48 52 44 37 44 48 50 44 43 45 37 41 36 36 35 33 36 39 38 43 43 43 43 40 36 36 39 35 33 61 59 49 52 59 60
47 47 47 46 45 47 48 48 48 48 48 48 44 54 51 39 44 51 53 55 52 51 44 41 42 40 46 41 44 42 39 42 43 37 48 38 46 43 46 45 57 62 58 59 59 57 58

GFSGBSN_sfc_temp_060.txt.gz
Temp
59 60 59 59 59 59 59 59 58 58 58 58 58 58 58 58 58 58 57 57 57 57 57 58 58 59 59 62 63 82 72 75 77 76 75 73 71 72 67 71 73 71 74 78 80 82 81
59 59 59 59 58 59 59 58 58 58 58 57 57 57 57 57 57 57 57 56 56 57 57 57 58 58 56 50 78 84 83 80 82 80 76 76 74 77 73 72 71 75 76 77 80 79 81
59 58 59 58 58 58 58 57 57 57 57 57 57 57 56 56 56 56 56 56 56 56 57 57 58 60 56 57 80 80 82 78 80 78 72 76 78 74 75 70 77 75 68 74 76 78 76
59 58 58 58 58 57 57 57 57 57 57 57 57 56 56 55 55 55 55 55 55 56 57 57 58 61 53 76 81 78 80 77 79 78 76 76 77 72 70 74 70 67 69 61 73 77 78
58 58 59 58 58 57 57 57 57 57 57 56 56 56 55 55 55 55 55 55 55 56 58 59 58 58 55 74 71 78 77 71 74 76 75 77 73 67 67 60 56 62 56 61 66 77 76
57 58 58 58 57 57 57 57 57 57 56 56 56 55 55 55 54 54 54 54 59 60 62 68 68 56 62 65 73 76 77 74 68 68 66 65 64 58 60 57 46 53 58 62 63 73 75
57 57 57 57 57 57 57 57 57 56 56 55 55 55 55 54 54 54 55 59 62 59 63 59 62 61 65 73 78 71 74 69 67 59 54 58 53 50 55 59 60 62 62 62 69 76 73
56 56 57 57 57 57 57 57 57 56 56 55 55 55 54 54 54 54 56 59 60 60 45 59 61 63 68 70 60 66 74 62 57 46 52 51 50 60 63 63 61 60 59 60 68 75 71
56 56 56 56 56 56 56 56 56 56 55 55 54 54 54 53 53 56 61 60 71 64 47 56 67 65 66 68 59 61 69 63 57 51 47 46 55 64 62 60 57 59 58 60 61 69 73
55 55 55 55 55 56 56 55 55 55 55 55 54 54 53 53 52 60 58 69 69 60 40 55 60 65 66 65 57 69 71 64 58 50 49 47 55 56 54 57 60 54 66 66 64 61 54
55 55 55 55 55 54 54 54 54 54 55 54 54 54 53 53 53 55 61 68 65 54 31 60 61 74 69 60 62 63 71 62 53 52 48 44 51 50 53 56 62 58 68 65 64 60 59
54 54 53 53 53 54 54 54 54 54 54 54 54 54 53 56 55 60 63 64 57 35 32 54 62 60 60 64 61 64 61 66 64 55 53 52 60 56 59 65 65 66 64 63 62 59 46
53 53 53 53 53 53 53 53 53 53 53 53 53 53 53 57 50 61 61 55 37 34 58 54 54 58 59 58 60 59 55 51 48 42 43 50 52 61 63 56 62 60 55 45 42 43 42
53 53 53 53 53 53 53 53 53 52 52 53 53 52 54 58 61 61 53 42 32 48 53 60 57 57 53 59 59 57 53 49 54 53 47 41 37 52 62 58 54 55 54 46 35 38 46
52 52 52 52 53 53 52 51 52 52 52 52 52 54 54 58 60 59 43 31 41 49 57 54 55 50 52 57 55 57 54 53 56 54 44 42 44 60 62 62 61 52 46 60 50 52 44
52 52 52 52 52 52 51 51 51 52 52 52 50 50 52 60 61 52 37 34 45 56 58 55 45 53 48 52 50 53 50 53 54 59 58 52 41 56 61 64 63 57 60 46 50 36 34
51 51 51 52 52 51 51 51 51 51 52 51 46 41 56 62 58 43 30 38 47 55 58 51 48 49 51 50 51 50 51 52 56 55 57 56 49 48 57 55 53 54 51 52 51 50 40
51 51 51 50 51 51 51 51 51 52 52 49 42 33 58 58 38 40 32 43 49 54 58 54 53 51 49 50 48 48 49 54 58 56 48 53 51 43 47 59 63 59 55 54 43 42 49
50 50 50 50 51 51 51 51 50 50 51 48 37 43 57 52 32 35 43 44 48 49 52 51 50 53 53 49 44 49 51 59 58 55 48 50 47 39 44 52 57 53 55 57 55 50 38
49 49 50 50 50 50 50 50 51 50 51 46 36 33 45 44 47 41 39 41 42 52 50 53 52 55 51 48 52 47 50 56 58 57 50 51 44 43 39 43 45 42 54 54 53 39 40
49 50 50 50 49 50 49 50 50 50 50 44 36 35 44 33 39 42 43 40 41 43 51 53 49 50 49 43 46 46 51 53 57 52 53 47 37 45 48 51 51 51 50 54 50 47 41
49 49 49 49 49 49 50 50 50 50 50 40 32 37 46 43 43 40 42 39 41 43 47 46 46 50 51 45 47 44 49 47 49 54 51 48 37 41 41 50 53 50 53 48 48 57 56
49 49 49 49 49 49 50 50 49 49 48 38 40 47 39 37 39 39 37 42 44 48 48 49 48 47 47 48 49 51 53 49 48 46 46 44 41 36 35 46 47 41 50 51 50 59 58
48 49 49 49 49 49 49 49 49 49 48 45 42 44 35 32 38 39 44 43 41 47 45 51 49 45 47 55 56 55 53 52 51 50 52 44 43 38 33 37 29 50 61 60 56 59 61
48 48 49 49 49 49 49 49 49 49 49 44 45 41 37 32 39 41 43 43 46 46 46 48 50 50 49 46 41 40 41 41 45 49 49 51 45 35 31 34 40 48 55 55 53 53 63
48 48 48 49 48 48 48 48 48 49 49 46 45 47 36 34 36 45 42 43 38 41 43 48 53 52 48 39 36 31 31 39 39 43 52 50 49 39 37 31 28 48 58 63 62 46 62
47 48 48 48 48 48 48 48 48 48 49 47 45 47 39 32 44 46 37 36 42 41 40 45 44 43 45 34 31 32 33 44 34 36 38 39 39 34 35 33 42 57 61 62 42 42 57
48 48 48 47 46 46 47 48 48 48 48 47 45 48 41 36 43 48 49 42 43 39 35 42 39 39 36 31 34 37 36 40 40 42 39 39 35 34 37 33 32 61 59 49 50 53 55
47 47 47 47 47 46 46 47 48 48 48 48 42 48 48 38 43 51 52 54 52 48 39 40 42 35 42 36 41 41 36 40 41 34 42 33 45 41 43 42 56 61 55 58 58 54 53

GFSGBSN_sfc_temp_063.txt.gz
Temp
59 59 59 59 59 59 59 59 58 58 57 58 57 57 58 58 58 57 57 56 56 57 57 58 58 58 55 49 52 71 71 70 69 71 68 66 62 60 56 63 65 62 65 70 72 73 73
59 58 58 58 58 58 59 58 58 57 57 57 57 57 57 57 57 57 56 56 56 56 56 57 58 58 50 39 65 73 72 73 73 69 69 69 67 69 64 64 63 67 67 68 71 71 73
58 58 58 58 58 58 58 57 57 57 57 57 57 56 56 56 56 56 56 55 55 56 56 57 58 57 48 47 65 68 68 65 71 69 66 69 69 63 63 60 68 67 60 65 67 69 70
58 58 58 58 58 57 57 57 57 57 57 57 56 56 55 55 55 55 55 55 55 56 56 57 58 54 46 65 65 67 67 67 71 71 69 70 70 63 61 65 64 58 56 50 65 69 71
58 58 58 58 58 57 57 57 57 57 57 56 56 55 55 55 54 54 54 54 55 57 58 58 52 50 47 70 63 68 68 64 68 68 67 74 66 59 60 52 50 52 43 51 59 70 68
58 58 57 57 57 57 57 57 57 57 56 56 55 55 55 54 54 54 53 54 56 57 59 63 60 48 56 60 69 71 67 68 64 62 61 60 56 49 52 48 37 44 48 51 54 64 66
57 57 57 57 57 57 57 57 57 56 56 55 55 55 55 54 54 54 52 48 52 50 53 50 53 53 59 67 70 66 69 64 61 55 47 54 45 40 49 54 55 55 53 51 55 66 65
56 56 57 56 57 57 57 57 56 56 55 55 55 55 55 54 54 54 49 46 55 53 42 55 55 56 61 64 56 62 66 56 53 44 48 46 42 51 57 57 55 54 51 50 58 66 64
56 56 56 56 56 56 56 56 55 55 55 55 55 54 54 53 53 50 50 53 64 59 40 48 59 57 60 63 56 56 61 57 51 46 45 41 47 56 53 53 53 53 49 51 53 61 65
55 55 55 55 56 56 55 55 55 55 55 54 54 54 53 53 48 47 48 59 61 59 36 45 55 62 63 62 53 64 64 58 53 47 47 45 50 50 51 48 55 49 60 58 57 55 46
54 54 54 54 54 54 54 54 54 54 54 54 53 53 53 53 43 43 53 57 60 51 22 55 58 70 66 56 57 57 65 57 49 48 46 45 46 46 46 51 57 50 60 57 56 54 50
54 54 53 54 53 53 53 54 53 54 53 54 53 53 53 50 46 49 54 55 53 34 25 51 58 55 55 56 57 59 57 58 57 51 51 50 55 50 49 54 55 58 53 54 53 52 40
53 53 53 53 53 53 53 53 53 53 53 53 53 53 50 52 40 51 51 46 33 26 53 50 52 57 55 53 54 54 50 45 40 36 40 48 49 55 53 46 53 54 45 36 37 36 34
53 53 53 53 53 53 53 53 52 52 52 52 52 52 49 51 49 49 45 38 26 42 46 58 55 55 49 54 54 53 47 41 47 46 40 40 36 50 56 52 47 50 47 36 31 30 39
53 52 52 52 52 52 52 52 52 52 52 52 51 44 43 48 50 46 40 27 31 42 52 50 51 47 47 53 52 51 47 45 51 49 39 39 42 56 57 57 56 48 43 53 41 41 37
52 52 52 51 52 52 52 51 51 51 51 51 40 40 42 51 51 42 34 31 36 48 50 49 42 48 42 48 47 46 47 49 47 54 52 47 38 53 55 58 57 53 56 40 37 29 28
52 52 51 51 51 51 51 51 51 51 51 51 38 33 45 51 49 38 27 31 39 48 49 46 45 44 45 45 47 45 47 50 53 52 52 48 43 44 53 50 48 50 45 41 42 41 32
51 51 51 50 51 51 51 51 51 51 50 46 40 27 46 50 34 35 29 38 44 43 48 46 47 47 44 45 43 44 45 48 53 52 45 47 42 37 44 56 58 55 50 44 34 36 40
50 50 50 50 51 49 51 51 51 51 50 39 35 34 46 45 29 28 36 39 41 41 42 44 45 49 49 43 38 44 47 53 54 50 44 46 39 33 39 49 55 48 52 49 48 46 35
50 50 50 50 50 50 50 50 50 50 50 43 35 27 34 36 36 33 33 35 37 46 45 47 46 48 45 42 46 41 45 53 52 52 50 49 42 37 32 39 42 39 46 52 47 36 38
50 49 50 50 50 49 50 50 50 50 49 42 35 29 35 29 30 33 36 37 35 34 46 48 43 44 42 39 41 40 46 47 53 50 48 43 35 40 41 44 46 42 42 48 45 45 38
50 49 49 49 49 49 49 49 49 50 49 38 30 29 35 33 37 34 33 33 35 38 38 38 38 44 45 41 41 38 41 42 41 48 45 44 34 38 37 46 46 44 46 50 46 47 48
49 49 49 49 49 50 50 49 49 49 47 36 39 40 34 33 32 29 32 35 35 40 44 42 42 38 38 42 43 44 45 44 44 41 41 39 36 34 31 40 39 35 45 45 44 46 47
49 49 49 49 49 50 50 49 49 49 48 38 37 37 31 26 31 32 37 39 38 37 35 43 45 41 44 49 48 49 46 46 44 44 47 40 37 35 29 35 26 44 51 53 48 48 52
49 49 49 49 49 49 49 49 49 49 49 41 40 37 33 23 33 35 37 38 40 39 34 38 45 44 47 43 36 34 32 35 39 44 44 44 38 28 27 30 37 43 49 50 49 49 57
48 48 49 49 49 48 48 48 48 49 49 42 41 42 36 29 27 38 35 40 32 32 35 36 45 45 42 33 29 25 24 33 33 39 47 44 40 32 28 27 25 40 52 59 57 38 53
48 48 48 48 48 48 48 48 48 48 49 43 39 43 37 29 35 37 31 33 36 33 32 38 39 37 40 33 23 26 25 39 29 32 32 33 33 29 29 27 34 50 55 60 39 37 50
47 47 47 47 47 48 48 48 48 48 48 44 40 44 38 33 37 42 41 36 38 37 31 35 33 36 33 27 25 27 25 33 33 39 34 32 31 28 28 26 26 55 49 44 44 48 50
47 47 47 47 47 47 48 47 46 47 48 47 38 44 43 35 35 43 44 45 43 44 37 37 33 35 37 33 30 31 27 31 34 29 40 31 37 32 35 33 46 51 49 50 50 49 49

GFSGBSN_sfc_temp_066.txt.gz
Temp
59 59 59 59 59 59 59 59 58 58 57 57 57 57 57 57 57 57 56 56 56 56 57 57 58 58 53 45 47 63 68 69 67 66 64 62 58 55 52 55 57 55 59 64 66 67 68
58 59 58 58 58 58 58 58 58 57 57 57 57 57 56 56 56 56 56 56 56 56 56 57 57 58 48 38 60 65 66 65 66 64 64 63 61 61 57 57 55 61 61 63 66 67 66
59 58 58 58 58 58 58 57 57 57 57 57 57 56 56 56 56 56 56 55 55 55 56 56 57 56 48 45 60 60 62 60 64 66 61 64 63 58 58 55 61 61 55 60 62 63 61
58 58 58 58 58 57 57 57 57 57 57 57 56 56 55 55 55 55 55 55 55 55 56 57 57 53 43 62 59 59 59 62 65 67 66 65 64 59 57 60 59 54 53 46 59 63 65
58 58 58 57 57 57 57 57 57 57 57 56 56 55 55 55 54 54 54 54 55 56 58 57 51 48 45 65 58 63 62 60 64 64 63 72 62 54 56 48 45 47 40 46 55 65 63
57 58 57 57 57 57 57 57 57 56 56 56 56 56 55 54 54 54 54 54 54 56 59 59 58 46 52 56 63 66 64 65 60 59 58 55 52 46 45 43 36 40 43 47 50 56 60
57 57 57 57 57 57 57 57 57 55 56 56 55 55 55 54 54 54 52 46 50 48 52 48 50 50 55 62 65 62 65 61 58 53 45 49 42 39 43 48 51 51 49 46 52 58 55
56 56 57 57 57 57 57 57 56 55 55 55 55 55 54 54 54 54 49 47 52 53 41 53 53 52 57 59 51 58 63 54 50 43 45 43 38 48 51 52 51 50 48 46 53 59 57
55 55 56 56 56 56 56 56 56 55 55 54 54 54 54 53 53 49 45 49 58 54 39 46 54 53 54 56 49 52 58 54 49 43 43 40 46 54 51 49 48 48 47 48 48 55 60
54 54 55 55 55 55 55 55 55 54 54 54 54 54 53 53 47 45 44 54 54 52 33 41 50 56 59 59 49 61 61 55 49 44 44 42 49 47 46 45 50 42 55 54 53 50 39
54 54 54 53 54 53 53 54 54 54 54 54 53 53 53 53 43 40 49 52 54 48 22 52 55 67 62 54 54 55 60 54 46 46 45 41 43 44 42 46 53 48 55 50 49 43 41
53 53 53 54 53 53 53 53 53 53 53 53 53 53 53 47 43 47 49 50 47 32 23 47 55 53 50 53 53 55 54 56 54 47 46 46 50 49 47 52 54 53 50 49 49 44 32
53 53 53 53 53 53 53 53 53 52 52 53 52 53 50 49 38 47 46 42 29 23 47 47 48 52 50 48 50 50 47 44 39 35 35 42 45 49 52 45 51 49 42 35 34 32 31
53 52 52 52 52 52 52 52 52 52 52 52 52 51 48 49 45 43 42 34 22 37 40 52 49 51 47 51 50 48 44 39 43 41 36 33 32 45 51 46 43 45 41 33 28 28 35
52 52 52 52 52 51 52 52 52 52 51 52 50 40 40 42 45 42 37 20 28 36 45 42 44 43 43 50 49 47 43 42 45 45 36 35 38 49 52 54 50 41 36 46 35 40 32
52 52 52 51 51 51 51 52 51 51 52 51 38 36 37 48 44 44 32 27 33 43 44 43 34 43 37 41 42 44 44 47 46 49 49 43 35 49 52 55 54 49 50 34 36 28 27
51 51 51 51 51 51 51 51 51 51 51 50 36 31 41 48 47 37 26 28 36 44 45 41 37 37 41 40 41 43 44 46 49 47 50 43 40 40 48 46 43 45 38 38 40 38 30
51 51 50 50 50 50 51 51 51 51 50 45 34 24 44 46 31 33 29 35 41 40 45 42 44 41 40 42 40 40 43 46 51 51 43 45 40 32 41 52 56 49 43 43 34 34 38
51 50 50 50 50 50 50 50 51 50 50 36 34 31 41 40 26 26 33 36 38 38 39 40 41 44 43 39 36 43 44 50 51 47 42 43 37 30 36 45 51 45 48 47 44 40 34
50 50 50 50 50 50 50 50 50 50 50 41 35 24 29 33 33 32 30 31 33 43 40 42 41 43 40 39 42 39 43 49 50 49 49 47 38 35 31 35 40 38 44 46 41 34 35
50 50 50 50 50 50 50 50 50 49 49 41 33 26 31 26 30 31 33 32 31 31 40 41 39 40 39 34 37 36 42 44 48 49 45 41 32 36 39 42 43 44 40 41 41 40 36
50 49 49 50 50 49 49 50 49 49 49 38 31 24 31 29 35 33 31 29 31 34 37 36 34 36 37 36 41 36 40 40 38 44 41 41 32 35 34 42 43 40 43 43 39 42 45
49 49 49 49 49 49 49 50 50 49 47 37 38 36 32 29 28 28 30 34 32 37 38 41 38 34 34 38 40 41 42 43 42 40 37 38 35 31 28 38 38 32 41 45 46 46 44
49 49 49 49 49 49 50 50 49 49 47 36 34 34 30 24 27 30 34 35 34 37 33 37 38 34 41 46 44 44 43 43 43 41 43 36 34 32 27 32 24 42 50 51 46 47 48
49 49 49 49 49 49 49 49 49 49 48 41 39 35 33 23 30 32 34 34 36 37 35 36 40 44 47 41 35 32 31 33 37 41 40 41 35 28 25 26 35 42 48 46 44 40 49
48 48 49 48 49 49 49 49 48 49 49 39 40 41 36 27 27 36 31 34 29 29 31 35 43 42 42 34 32 26 23 31 31 36 43 40 37 29 26 25 22 40 50 54 54 35 49
48 48 48 49 48 48 48 48 48 49 49 40 36 42 37 30 32 35 28 30 34 31 30 34 34 36 38 26 25 23 25 36 28 30 31 29 28 28 26 24 31 47 52 54 35 35 49
48 48 48 48 47 48 48 48 48 48 49 42 37 41 37 33 34 38 40 34 34 34 29 33 32 34 32 23 24 25 23 31 31 35 32 30 28 25 28 25 24 48 49 41 44 48 48
47 47 47 47 47 47 47 48 48 48 48 47 37 42 42 36 31 41 43 44 42 43 36 36 33 32 35 30 31 30 25 24 30 27 38 30 35 30 32 31 40 44 44 48 50 46 46

GFSGBSN_sfc_temp_069.txt.gz
Temp
58 59 58 58 58 58 58 58 57 57 57 57 57 57 57 57 57 57 56 56 56 56 56 56 57 58 52 43 47 61 65 65 64 62 59 59 55 52 48 50 52 50 53 58 60 60 60
58 58 58 58 58 58 58 58 57 57 57 57 57 56 56 56 56 56 56 56 55 55 56 56 57 57 46 37 59 62 61 61 61 60 59 60 58 59 54 52 51 56 57 58 60 61 61
58 58 58 58 57 57 57 57 57 57 57 57 56 56 56 56 56 56 56 55 55 55 56 56 57 55 47 44 57 58 58 57 60 60 58 62 61 56 55 52 59 58 51 55 57 55 57
58 57 57 57 57 57 57 57 57 57 57 57 56 56 55 55 55 55 55 54 55 55 56 57 57 53 44 61 59 58 56 58 61 60 61 64 62 57 54 57 56 51 49 43 54 58 60
57 57 57 57 56 56 56 56 57 56 56 56 56 56 55 54 54 54 54 54 54 56 58 57 52 48 44 63 58 63 61 59 61 63 61 70 60 53 52 45 42 44 37 42 49 60 58
57 57 57 57 57 57 57 57 57 56 55 56 56 55 55 54 54 54 54 54 55 56 57 57 57 45 52 56 62 64 63 62 59 58 56 54 49 44 42 40 34 37 39 38 44 54 53
57 57 57 57 57 57 57 57 56 55 55 55 55 55 55 54 54 54 51 48 49 47 51 47 50 49 54 61 63 60 63 61 57 53 44 47 40 36 40 44 47 47 44 41 45 57 50
56 56 56 56 56 56 57 56 56 55 55 55 55 54 54 54 54 53 48 47 47 48 37 51 52 51 56 59 49 56 61 52 50 42 44 42 37 45 48 47 46 45 43 43 50 58 52
55 55 55 56 56 56 56 56 55 54 54 54 54 54 54 53 53 47 42 47 53 50 37 45 52 51 53 55 47 50 57 52 47 42 42 38 44 50 48 45 43 44 42 44 45 52 52
53 53 54 54 54 54 54 54 54 54 54 54 53 53 53 52 45 42 42 50 51 49 32 41 47 52 55 54 45 57 58 54 47 42 43 40 47 45 43 42 45 38 50 50 48 44 34
53 53 53 54 53 53 53 53 53 53 53 53 53 53 52 52 41 38 46 49 51 46 22 49 52 64 59 52 53 52 58 52 44 43 42 39 41 40 40 43 49 44 50 48 46 41 38
53 53 53 53 53 53 53 53 53 53 52 52 52 52 52 45 40 42 44 47 44 31 23 44 54 50 49 52 51 53 52 54 52 44 44 43 48 46 45 49 51 51 47 47 46 40 30
52 52 52 52 52 53 52 52 52 52 52 52 52 52 49 47 36 43 42 39 28 22 45 42 44 48 48 47 48 49 46 43 38 33 32 40 42 45 49 42 49 47 39 32 30 28 29
52 52 52 52 52 52 51 52 52 52 52 52 51 51 47 47 42 42 38 33 21 35 37 47 44 45 42 48 46 46 41 37 42 39 34 31 30 41 48 45 42 43 39 32 26 27 31
52 52 52 51 52 51 51 51 51 51 51 51 49 39 38 40 43 40 34 23 27 33 41 38 41 39 40 45 43 43 40 38 42 43 34 32 35 46 48 49 47 40 35 42 34 36 30
51 51 51 51 51 51 51 51 51 51 51 50 37 35 35 42 43 39 32 26 29 41 41 39 32 38 33 37 38 38 40 45 43 46 45 41 33 45 48 49 47 42 46 34 35 28 26
51 51 51 51 51 50 51 51 51 51 51 49 34 30 39 43 42 36 24 26 33 41 42 38 35 35 38 36 39 39 42 44 45 47 46 43 40 38 46 41 39 39 38 37 38 37 29
51 50 51 50 50 50 50 50 50 51 50 42 32 21 39 43 30 28 24 32 40 38 42 39 39 38 37 38 36 41 39 45 51 49 43 46 40 31 37 48 50 46 41 39 33 32 35
50 51 50 50 50 50 50 50 50 50 48 35 32 29 38 38 16 27 31 33 36 35 36 37 37 40 43 37 31 40 42 50 50 44 42 43 36 29 34 40 45 41 43 42 41 39 34
50 50 50 50 50 50 50 50 50 50 49 39 34 21 27 31 32 29 26 29 30 38 37 38 38 40 37 36 41 36 40 49 49 48 48 46 37 33 27 33 39 35 39 44 40 33 34
49 50 50 50 50 50 50 50 50 50 49 39 33 27 29 15 27 30 32 31 29 29 38 39 34 35 32 30 35 33 40 43 46 47 43 40 32 34 37 38 39 40 39 41 38 38 34
50 50 49 49 49 50 50 49 49 49 48 38 29 26 30 28 32 30 31 29 30 30 34 32 32 34 35 31 35 32 39 39 38 42 39 40 31 33 32 39 39 37 42 43 42 41 40
49 49 49 49 49 50 49 49 49 49 46 36 37 38 30 28 28 27 29 31 30 35 36 40 37 32 31 34 39 39 39 40 40 38 37 37 33 30 28 35 34 30 38 42 43 43 42
49 49 49 49 49 49 49 49 50 49 46 40 35 34 28 21 28 28 32 34 32 34 31 38 39 34 40 44 42 40 41 41 40 40 41 35 33 30 26 30 21 39 49 47 43 46 47
49 49 49 49 49 49 49 49 49 49 48 36 38 36 31 22 28 30 31 32 33 34 33 36 39 42 43 40 32 32 30 33 36 39 38 39 33 27 23 24 32 38 45 43 41 41 47
49 48 48 48 48 48 49 49 48 49 48 38 37 41 35 25 25 34 30 31 27 28 29 35 41 41 40 33 29 25 23 30 30 35 40 37 36 29 26 23 20 35 46 53 49 34 46
48 48 48 48 48 48 48 48 48 49 48 38 35 40 37 29 31 33 28 27 32 30 27 34 33 34 37 29 26 24 26 34 28 30 30 29 28 27 26 23 29 41 44 50 31 34 45
48 48 48 48 48 48 48 48 48 48 48 41 38 39 37 32 32 38 38 31 31 31 25 30 30 31 31 25 27 28 25 31 29 32 29 29 26 24 27 25 22 41 43 37 40 45 45
47 47 47 47 47 47 47 48 48 48 48 47 38 41 39 34 32 37 39 41 40 39 34 34 33 32 33 31 31 30 25 24 29 24 35 23 32 29 31 30 39 41 39 43 45 43 43

GFSGBSN_sfc_temp_072.txt.gz
Temp
58 58 58 58 58 58 58 58 57 57 57 57 57 57 57 57 57 56 56 56 56 56 56 56 57 57 52 43 46 59 65 63 60 60 58 56 53 51 46 47 48 47 49 54 56 57 56
58 58 58 58 58 58 58 58 57 57 57 57 56 56 56 56 56 56 56 55 55 55 55 56 57 57 47 39 59 61 59 58 61 58 59 58 55 56 51 50 48 52 52 54 56 57 58
58 58 57 58 57 57 57 57 57 56 56 57 56 56 56 56 56 55 55 55 55 55 55 56 57 55 47 45 59 58 58 56 59 60 58 60 60 54 53 49 55 54 47 52 53 53 53
58 57 57 57 57 57 56 56 56 56 56 56 56 56 55 55 55 54 54 54 54 55 56 57 57 53 44 61 58 57 56 57 59 60 60 62 61 56 52 55 53 48 46 40 51 53 56
57 57 57 57 56 56 56 56 56 56 56 55 55 55 55 54 54 54 54 54 54 56 57 57 51 48 42 63 56 62 60 59 61 61 60 68 59 52 51 45 40 41 37 40 45 55 55
57 57 57 57 56 56 56 56 56 56 55 55 55 55 55 54 54 54 53 54 54 55 55 57 55 43 52 55 61 62 61 61 59 58 56 55 50 45 43 41 32 35 37 36 38 47 48
57 57 57 56 56 56 56 56 56 55 54 55 54 54 54 54 54 53 51 49 42 42 44 43 46 47 52 60 62 59 61 59 57 53 45 48 41 38 41 42 45 43 40 39 41 51 48
56 56 55 56 56 56 56 56 55 54 54 54 54 54 54 54 53 53 48 45 44 43 34 46 47 48 54 56 47 55 59 51 50 43 44 42 37 45 46 46 43 42 39 38 45 51 50
55 55 54 55 55 55 55 54 54 54 54 53 53 53 53 52 52 46 41 44 50 47 35 43 50 50 52 53 46 49 54 52 48 42 42 38 43 49 46 43 41 41 38 38 40 47 49
53 53 53 54 54 53 53 53 53 53 53 53 53 53 52 52 44 40 41 48 47 45 30 38 46 50 53 53 43 55 57 53 48 42 42 41 46 45 42 40 42 35 46 45 44 41 32
53 53 53 53 53 53 52 52 53 53 52 52 52 52 52 51 39 38 45 46 48 42 22 46 49 60 54 47 52 50 57 53 44 43 43 40 41 40 39 41 46 40 48 45 45 38 36
53 52 52 52 52 52 52 52 52 52 52 52 52 52 52 44 38 40 42 43 42 28 23 40 50 48 47 50 50 51 50 54 51 45 43 42 47 44 43 47 47 49 44 45 43 38 29
52 52 52 52 52 52 52 52 52 51 52 51 51 51 48 46 36 41 40 39 26 21 40 38 40 45 43 44 47 47 43 41 37 33 33 38 41 44 47 40 45 43 40 29 28 28 27
52 52 52 51 51 51 51 51 51 51 51 51 51 50 44 44 40 40 37 31 21 32 33 42 40 41 38 44 44 44 40 36 41 38 33 31 31 39 45 43 38 38 40 29 25 25 29
52 52 52 51 51 50 50 51 51 51 51 50 48 37 36 39 40 38 31 16 27 29 37 34 37 34 36 40 39 41 38 37 41 43 34 31 33 43 45 46 45 39 35 42 34 35 30
51 51 51 51 50 50 51 50 50 51 50 49 36 33 34 41 40 36 24 25 28 37 38 37 29 36 30 35 36 35 37 42 41 44 45 39 32 42 44 46 44 42 44 33 34 27 26
51 50 50 50 50 50 50 50 50 50 50 48 33 29 38 41 40 29 15 25 31 39 39 33 32 31 33 34 36 35 38 41 44 44 44 40 38 37 42 39 36 39 37 36 37 36 29
50 51 50 50 50 50 50 50 50 50 48 41 30 19 38 40 25 25 19 30 38 35 39 36 36 34 32 35 33 35 36 41 47 46 39 43 37 30 35 45 47 43 38 38 32 32 35
50 51 50 50 50 50 49 50 50 50 48 34 30 30 37 35 11 18 30 31 35 33 34 34 34 36 39 33 28 34 38 44 46 45 41 43 34 30 34 38 43 39 41 41 38 35 33
49 50 50 50 50 49 49 49 49 49 48 36 29 20 27 30 29 23 22 26 29 36 33 36 34 36 33 31 38 32 33 41 45 44 47 45 36 33 29 32 38 35 40 42 36 32 32
50 50 49 50 50 49 49 49 49 49 49 36 32 25 28 15 24 29 29 30 27 28 33 36 32 32 31 28 31 30 37 37 43 45 41 40 33 34 35 37 38 37 37 40 38 36 33
50 49 49 49 49 49 49 49 49 49 48 35 30 27 31 28 30 27 28 28 28 29 32 30 28 31 33 29 32 30 34 36 34 43 39 39 31 32 32 36 36 35 38 38 40 41 40
49 49 49 49 49 49 49 49 49 49 45 35 37 37 30 29 28 25 26 30 29 32 34 37 36 32 30 33 36 37 40 39 37 37 35 36 32 30 29 32 32 30 35 38 40 43 41
49 49 49 49 49 49 49 49 48 49 44 35 36 36 26 21 28 28 30 31 30 31 29 35 36 33 39 43 40 38 38 38 38 39 38 33 32 30 26 30 19 36 45 43 40 43 45
49 49 49 49 49 49 49 49 49 49 47 35 37 36 27 18 28 29 29 29 31 32 30 32 37 41 40 37 33 29 28 33 35 37 37 37 32 26 23 23 30 35 41 40 39 39 46
48 49 49 49 49 49 49 49 49 49 49 37 35 40 35 25 23 32 30 30 25 25 27 31 40 40 39 33 31 24 22 30 29 32 38 35 34 29 26 22 17 33 41 44 44 31 42
48 48 48 48 48 48 48 48 48 48 48 38 35 38 36 28 31 32 27 27 31 27 24 29 32 33 35 30 27 25 25 32 27 29 28 28 28 26 25 22 28 38 40 44 29 31 40
48 47 48 48 48 48 48 48 48 48 48 41 38 38 34 30 34 35 36 31 29 29 19 27 27 30 28 27 27 27 23 29 29 32 29 28 25 24 28 25 22 38 40 34 37 40 40
47 47 48 47 47 48 48 48 48 48 48 46 37 41 38 33 30 36 37 39 39 37 31 31 28 32 32 28 29 30 27 26 27 23 33 24 31 29 31 30 38 39 37 40 44 41 39

GFSGBSN_sfc_temp_075.txt.gz
Temp
59 58 58 58 58 58 58 58 57 57 57 57 57 57 57 57 57 57 56 56 56 56 56 56 56 57 54 46 50 63 64 64 65 63 61 60 58 55 52 54 54 52 55 59 61 61 62
58 58 58 58 58 58 58 57 57 56 56 57 57 56 56 56 56 56 56 56 55 55 55 56 56 56 49 39 63 63 61 62 65 61 62 61 60 60 56 55 54 57 57 58 60 61 62
58 58 58 58 57 57 57 57 57 56 56 56 56 56 56 56 56 55 55 55 55 55 56 56 57 55 48 47 62 62 60 61 64 63 60 63 64 60 59 54 59 57 52 57 57 59 59
58 58 57 57 57 56 56 56 56 56 56 56 56 55 55 55 54 54 54 54 54 55 56 57 57 54 45 61 62 59 59 59 61 62 63 66 66 62 58 60 57 53 53 47 56 57 60
58 57 57 57 56 56 56 56 56 56 55 55 55 55 54 54 54 54 54 54 54 56 57 57 52 50 43 63 57 64 63 60 61 61 61 68 63 58 56 50 47 47 43 45 50 61 60
57 57 57 56 56 56 56 56 56 55 55 55 54 54 54 54 54 53 53 53 55 56 56 57 56 44 52 55 62 64 64 62 61 59 58 58 55 49 47 47 38 41 42 45 45 55 57
57 57 57 56 56 56 56 56 55 54 54 54 54 54 54 54 53 53 50 50 45 46 45 45 48 47 52 59 63 61 64 61 61 57 48 52 47 42 45 46 49 48 45 44 49 55 52
56 56 56 56 55 55 55 55 54 54 54 54 53 53 53 53 53 52 49 43 42 43 34 47 45 46 52 56 47 55 62 54 52 46 49 46 41 49 50 49 46 46 43 43 48 53 52
55 55 55 55 55 54 54 54 54 53 53 53 53 53 52 52 52 46 44 44 50 47 35 42 50 49 52 52 45 48 55 54 50 45 45 43 46 50 48 46 43 44 41 42 42 49 52
54 54 54 54 54 53 53 53 53 53 53 53 52 52 52 51 46 43 43 48 47 45 33 42 48 52 53 53 44 56 57 55 49 45 46 44 49 47 46 44 45 38 48 46 45 43 37
53 53 53 53 53 52 52 52 52 52 52 52 52 52 52 50 42 41 47 46 47 44 27 47 49 61 54 49 53 52 59 55 46 45 46 43 43 42 42 45 48 43 49 46 46 44 42
53 53 53 52 52 52 52 52 52 52 52 52 52 52 52 45 42 44 44 43 45 34 27 41 50 48 48 51 52 53 54 57 55 47 46 46 51 48 48 49 50 51 46 47 47 43 33
52 52 52 52 52 52 52 52 51 51 51 51 51 51 49 47 40 43 42 43 33 28 42 37 39 43 42 43 48 49 47 45 42 36 37 43 44 49 50 45 49 47 42 34 31 31 33
52 52 52 51 51 51 51 51 51 51 51 51 51 48 44 45 42 42 41 37 27 33 33 41 39 40 40 44 44 45 43 41 45 43 38 36 35 43 48 46 42 42 42 34 27 29 35
52 52 51 51 51 51 51 51 51 51 50 50 48 39 40 42 43 42 36 23 29 30 35 34 38 35 36 41 40 42 42 41 44 46 39 36 37 47 47 49 50 41 37 45 34 37 31
52 51 51 51 51 50 50 50 50 50 50 49 38 36 38 41 43 39 28 28 30 37 37 36 29 35 31 34 36 38 39 45 43 46 49 44 36 46 45 50 48 45 46 34 35 27 28
51 51 50 50 50 50 50 50 50 50 49 48 36 33 41 42 42 31 21 27 32 39 39 33 31 30 32 32 36 36 39 43 43 45 47 46 41 40 45 43 41 41 40 37 36 37 31
51 51 50 50 49 50 50 50 50 50 48 41 33 24 40 41 29 27 26 31 37 36 40 36 36 34 33 34 33 35 36 41 45 44 41 44 39 34 40 48 50 47 43 40 32 32 35
51 51 50 50 49 49 49 49 49 49 47 36 30 31 40 38 20 24 31 31 34 33 34 34 33 37 38 33 29 34 37 44 44 41 38 43 35 30 34 41 45 41 42 39 38 35 32
50 50 50 50 50 49 49 49 49 49 47 36 29 21 31 34 32 27 24 27 29 37 33 33 33 37 33 32 36 33 35 41 42 40 43 44 39 32 31 35 40 36 42 43 37 30 31
49 49 50 50 50 49 49 49 49 49 48 37 30 25 31 22 29 30 29 30 28 27 33 36 31 30 29 27 32 32 37 40 42 41 39 38 33 35 39 40 40 39 40 42 39 39 33
50 50 49 49 49 49 49 49 49 49 47 36 29 28 33 30 31 30 29 29 28 30 32 30 28 33 32 28 31 29 33 36 36 39 36 38 34 36 35 39 39 37 42 42 41 42 42
50 50 49 49 49 49 49 49 49 49 45 36 36 37 32 30 29 28 29 30 29 32 34 36 35 31 31 32 36 36 38 37 37 35 34 35 34 35 31 36 37 34 39 41 42 45 45
49 49 49 49 49 49 49 49 49 49 43 36 35 35 30 24 29 30 31 32 30 31 29 34 36 31 39 43 41 40 37 37 38 37 39 34 37 35 31 34 24 40 47 46 43 46 48
49 49 50 49 49 49 49 49 49 48 46 37 36 35 29 22 30 31 31 31 32 34 32 33 37 41 42 36 32 29 31 32 35 38 39 38 37 32 28 29 35 40 42 40 39 41 44
49 49 49 48 49 49 49 49 49 49 48 38 37 41 35 27 26 33 31 32 28 29 29 33 40 42 38 33 30 25 24 31 31 33 39 38 39 35 28 25 22 38 42 46 45 36 43
48 49 48 49 49 48 48 48 48 49 48 39 37 40 36 29 33 34 29 30 34 30 27 30 33 33 37 29 27 26 28 34 30 30 29 31 32 30 30 28 33 38 42 45 33 35 41
48 48 48 48 47 48 48 48 48 48 48 40 38 38 35 30 33 37 37 33 32 31 27 31 29 31 31 26 27 28 28 31 31 34 32 33 29 28 31 27 24 39 42 35 37 40 39
47 47 47 47 48 48 48 48 48 48 48 44 36 41 40 34 33 38 39 41 39 39 34 34 31 30 33 29 30 30 29 32 30 29 37 31 34 33 35 34 38 40 37 37 42 40 38

GFSGBSN_sfc_temp_078.txt.gz
Temp
60 60 59 58 58 58 58 58 58 57 57 57 57 57 57 57 57 57 56 56 56 56 56 56 57 57 59 56 61 72 65 68 74 72 71 70 67 67 62 65 67 61 66 70 70 70 70
59 59 58 58 58 58 58 58 57 57 56 56 57 56 56 56 56 56 56 56 55 55 56 56 57 57 57 50 72 72 70 71 74 72 71 71 68 70 65 64 61 65 65 67 68 68 69
58 58 58 58 58 58 58 57 57 56 56 56 56 56 56 56 56 55 55 55 55 55 56 57 57 58 55 58 71 73 71 71 73 74 70 73 72 67 66 61 67 64 58 64 66 68 66
57 58 58 58 57 57 57 56 56 56 56 56 56 55 55 55 54 54 54 54 54 55 56 58 58 58 54 69 74 69 73 71 73 73 72 74 74 68 64 67 61 57 59 53 65 65 67
58 58 57 57 56 56 56 56 56 56 55 55 55 55 54 54 54 54 54 54 55 57 57 58 58 56 55 67 65 72 72 67 69 70 70 72 68 64 62 55 53 55 49 53 58 67 65
57 57 57 57 56 56 56 56 56 55 54 54 54 54 54 54 54 53 53 54 56 57 60 62 58 47 60 61 67 69 73 70 67 65 62 62 63 56 55 51 43 50 51 54 52 59 60
56 56 57 57 56 56 56 56 56 54 54 54 54 54 54 54 54 53 57 64 61 57 57 56 56 55 59 68 70 67 70 67 67 64 56 60 53 49 51 55 57 54 48 48 54 60 56
55 55 57 57 56 56 55 55 54 54 54 53 53 53 53 53 53 53 61 53 49 50 45 55 54 54 59 61 52 62 69 60 59 53 58 53 48 58 58 56 52 52 49 48 54 58 57
54 54 56 56 56 55 55 54 54 53 53 53 53 53 53 52 52 56 55 51 56 54 45 52 57 56 58 58 53 56 62 62 57 54 53 50 55 56 55 52 49 51 49 50 50 54 58
53 54 54 55 55 54 54 54 53 53 53 52 52 52 52 51 52 55 53 56 57 54 48 51 54 58 59 59 52 62 63 62 56 51 54 52 57 52 51 50 52 46 54 51 50 49 48
52 53 54 54 54 53 53 53 52 52 52 52 52 52 52 50 54 56 54 58 56 50 37 53 55 67 62 55 59 58 64 60 52 52 52 49 50 48 47 50 54 49 53 51 51 49 49
52 52 53 53 53 52 52 52 52 52 52 52 52 52 52 54 56 55 56 55 53 45 35 47 55 52 55 57 58 59 58 61 61 54 54 53 59 54 54 54 55 55 51 53 53 50 39
52 52 53 52 52 52 52 52 51 51 51 51 51 51 52 55 50 55 54 54 45 39 50 43 44 49 50 50 53 55 53 51 50 44 45 50 52 56 55 49 54 52 47 40 39 36 39
52 52 52 52 52 52 51 51 51 51 51 51 51 48 49 54 54 54 54 49 36 40 40 46 44 48 46 49 51 51 51 49 54 52 47 44 41 49 54 51 48 48 47 40 32 37 44
52 52 52 51 51 51 51 51 50 50 50 50 48 54 54 52 54 54 50 38 39 38 40 39 45 42 45 46 47 49 50 50 52 54 45 44 44 53 54 54 54 47 42 52 41 44 38
52 52 51 51 51 51 50 50 50 50 50 48 52 53 50 52 54 53 47 36 38 42 42 42 35 40 37 40 42 44 46 50 47 52 57 50 41 52 52 55 54 51 54 37 40 31 34
51 51 51 50 50 50 50 50 50 50 49 48 51 48 51 53 53 50 36 36 38 43 43 38 37 36 39 38 40 41 43 47 50 49 54 53 48 46 50 47 48 46 44 43 38 41 37
51 51 50 50 50 50 50 50 50 50 49 49 47 37 51 52 41 43 38 38 38 40 44 41 41 39 38 39 38 39 40 46 50 50 42 51 45 41 47 56 57 55 49 47 38 36 38
51 50 50 50 50 50 50 50 49 49 48 49 44 44 52 48 31 36 38 37 39 38 39 39 38 41 43 38 33 40 42 51 48 43 37 39 39 36 41 46 52 48 49 41 38 36 35
50 51 50 50 50 50 49 49 49 49 47 49 42 32 45 47 46 36 31 33 35 41 37 39 38 40 37 37 41 37 40 46 48 48 42 38 40 41 38 33 47 42 47 49 44 36 40
49 50 50 50 50 49 49 49 49 49 47 49 41 35 40 31 36 38 37 35 32 29 38 41 32 32 30 29 36 36 41 44 48 46 42 36 35 42 42 39 43 45 46 47 44 45 38
49 49 50 50 50 50 49 49 49 49 47 48 34 40 44 40 38 36 34 35 33 35 36 35 31 38 39 32 33 30 36 39 39 43 39 36 34 42 38 40 45 43 47 48 48 48 48
50 50 50 49 49 49 49 49 49 49 49 47 40 42 44 35 37 37 36 35 34 37 39 41 39 37 37 37 40 43 44 43 41 36 33 33 33 38 33 43 43 38 45 47 47 51 49
50 50 50 49 49 49 49 49 49 49 48 52 45 40 39 33 38 37 36 37 36 37 35 40 42 37 43 50 47 47 45 44 45 44 40 33 32 37 36 39 28 45 53 52 48 51 52
49 49 50 50 49 49 49 49 49 49 47 51 49 46 41 33 40 36 36 37 39 40 38 39 43 46 48 43 36 36 37 37 40 44 42 40 35 33 34 35 41 45 46 46 45 46 50
49 49 50 50 49 49 49 49 49 48 47 50 49 51 44 35 36 39 36 38 36 37 38 39 46 49 45 38 32 26 26 34 35 38 44 40 42 34 36 30 26 42 48 52 52 41 48
49 49 49 49 48 49 49 49 49 49 48 49 48 50 43 33 43 40 38 37 41 38 36 39 38 40 43 33 28 27 28 41 34 34 32 35 37 33 35 34 40 46 49 52 36 36 45
48 49 48 48 48 48 48 48 48 48 48 48 48 49 45 36 43 43 43 40 40 39 34 39 37 38 36 31 30 27 29 36 38 40 38 37 34 34 36 31 29 46 48 40 39 42 42
48 48 48 47 48 47 48 48 48 48 48 48 45 49 49 40 42 45 47 49 47 47 41 41 36 34 37 33 34 32 31 36 36 33 43 34 37 36 40 37 41 41 40 39 41 39 38

GFSGBSN_sfc_temp_081.txt.gz
Temp
61 61 60 59 59 59 59 58 58 58 57 57 57 57 57 57 57 57 56 56 56 56 56 57 57 57 62 62 67 75 67 69 76 74 74 74 71 71 66 71 73 70 72 75 76 77 75
60 60 60 59 59 58 58 58 58 57 57 57 57 57 57 57 57 56 56 56 56 56 56 56 57 57 59 56 79 79 78 77 78 77 76 77 74 76 71 69 69 72 72 72 74 74 74
59 59 58 58 58 58 58 58 57 57 57 56 56 56 55 56 55 55 55 55 55 55 56 56 57 62 61 64 80 81 77 76 80 79 74 78 78 72 71 66 73 70 63 68 70 72 69
58 57 57 57 57 57 57 57 57 57 56 56 56 55 55 55 55 55 55 54 55 55 57 58 59 64 59 77 81 77 79 76 79 80 77 79 79 72 69 72 67 62 63 57 69 72 72
57 57 57 57 57 57 57 56 56 56 56 55 55 55 55 54 54 54 54 54 55 57 58 58 61 62 61 68 70 77 78 73 77 76 76 77 74 67 67 59 54 58 50 58 62 72 68
56 56 57 56 56 56 56 56 56 56 55 55 55 54 54 54 54 53 53 54 56 57 60 68 66 56 65 66 72 74 79 75 71 71 68 67 66 61 61 57 47 53 56 59 59 65 65
56 56 55 55 54 55 56 57 56 55 55 54 54 54 54 54 54 53 56 65 60 59 62 62 63 61 66 73 75 72 76 72 71 67 58 64 57 54 57 60 58 58 55 54 60 64 61
55 55 54 55 55 56 57 57 55 55 54 54 53 53 53 53 53 53 60 63 57 55 54 64 62 62 66 67 59 67 76 64 64 58 63 60 53 62 64 62 58 55 52 50 58 64 60
54 54 55 55 55 55 55 55 54 54 53 53 53 53 53 53 53 56 60 57 64 61 53 60 64 62 64 65 61 63 69 66 62 58 59 55 61 61 59 58 54 55 52 53 53 61 64
53 53 53 54 54 55 55 54 54 53 53 52 52 52 52 51 50 63 60 62 64 60 49 54 59 63 66 65 58 69 69 66 61 56 59 58 64 60 58 54 57 50 60 57 54 53 48
52 52 53 53 53 53 53 53 53 52 52 52 52 52 52 52 58 62 60 63 62 56 39 57 60 72 69 60 64 63 70 64 56 57 56 53 57 55 52 54 59 53 60 55 54 50 51
51 51 52 52 53 53 53 52 52 52 52 52 52 52 52 58 60 61 63 61 57 46 38 51 60 57 59 62 62 65 63 66 67 59 60 57 66 60 58 60 59 60 54 54 55 51 41
50 51 52 53 53 52 52 52 51 51 51 51 51 51 53 60 57 61 60 58 47 42 55 49 51 54 55 56 58 59 58 56 53 48 50 57 57 62 59 54 58 55 49 40 42 41 40
51 51 51 52 52 52 52 51 51 51 51 51 50 49 51 61 61 60 58 52 39 48 48 53 51 53 50 57 55 58 55 54 61 57 52 48 45 57 60 55 53 53 50 40 33 36 40
51 51 52 52 52 51 51 51 51 51 51 50 49 56 57 58 59 59 53 42 45 46 47 45 50 48 50 53 50 52 53 54 59 60 49 48 49 60 60 60 58 51 46 55 44 47 41
51 51 51 51 51 51 51 51 50 50 50 50 56 55 56 57 59 55 50 41 45 48 47 47 40 46 42 48 45 50 49 56 54 57 60 53 45 57 58 60 59 55 56 40 44 32 34
51 52 51 51 51 51 51 50 50 50 49 49 53 51 55 59 58 55 41 44 44 49 48 43 42 42 43 42 45 44 46 53 54 53 56 55 51 50 57 52 51 51 47 48 46 44 36
51 51 51 50 51 51 50 50 50 50 50 47 53 42 56 58 49 51 46 45 40 45 48 45 45 43 41 43 42 42 42 48 56 53 43 48 44 43 50 60 63 58 52 49 38 40 44
51 51 51 50 51 50 50 50 50 50 49 56 52 50 58 54 36 43 43 43 45 44 44 44 42 45 46 42 37 43 45 53 55 52 39 39 41 37 43 51 58 53 55 54 48 43 39
51 50 50 50 50 50 50 49 49 49 49 52 50 37 49 55 53 42 38 39 40 45 43 44 43 44 42 40 45 40 42 49 52 52 45 44 37 37 36 40 44 42 52 52 48 38 41
50 50 50 50 50 50 50 49 49 49 48 51 48 40 48 36 43 44 43 41 38 36 43 46 36 37 35 34 38 39 43 44 48 51 49 43 35 40 45 50 48 42 40 50 46 47 41
50 49 50 50 50 50 49 49 49 49 49 51 36 47 48 47 44 41 37 39 39 40 41 40 34 42 44 38 41 36 40 41 40 47 42 41 34 40 34 46 47 42 45 51 51 51 51
49 49 49 50 50 50 50 49 49 49 48 52 51 52 49 41 43 42 42 40 39 41 44 46 44 41 40 43 48 48 48 47 46 42 39 36 35 33 29 43 43 34 44 49 52 54 53
50 49 50 50 50 50 50 49 49 49 48 55 53 53 45 38 44 42 41 42 40 42 39 45 46 41 47 54 51 51 49 48 48 47 48 34 34 32 28 40 28 46 55 56 52 54 55
50 50 50 50 50 50 49 49 49 49 48 52 55 51 46 37 47 42 41 41 43 45 42 44 47 50 52 47 39 38 40 42 44 47 47 46 34 29 28 37 41 48 50 50 48 43 51
49 50 50 50 49 49 49 49 49 49 48 51 54 56 50 37 41 44 41 43 41 42 42 44 50 53 48 37 35 28 26 33 35 42 50 44 39 31 31 30 28 42 52 56 56 40 48
49 49 49 49 49 49 49 49 49 49 48 52 50 53 48 35 49 45 43 42 46 42 40 44 44 44 47 36 30 29 28 40 33 35 34 34 35 30 31 35 41 48 53 56 38 34 47
49 48 49 49 49 48 48 49 49 49 48 50 49 55 47 39 48 47 47 44 45 44 36 43 41 40 39 33 33 29 26 38 38 43 39 38 36 35 38 34 29 47 51 41 38 44 44
48 48 48 48 48 48 48 48 49 49 49 48 43 53 52 41 44 51 51 52 51 50 46 45 41 39 40 35 37 32 30 37 38 33 46 33 35 33 34 32 39 41 39 39 42 39 39

GFSGBSN_sfc_temp_084.txt.gz
Temp
62 62 61 60 60 60 60 59 59 58 58 58 58 57 58 58 58 57 57 56 56 56 56 57 57 58 59 60 64 72 67 68 73 71 70 72 69 68 63 67 70 67 71 74 76 75 76
61 61 60 59 59 59 59 59 58 58 58 58 57 57 57 57 57 56 56 56 56 56 56 56 57 57 56 53 81 82 78 78 77 75 74 75 72 75 70 68 67 71 72 72 74 73 74
60 59 59 59 58 58 58 58 58 58 57 58 57 56 56 56 56 56 56 55 55 55 56 56 57 59 58 60 82 82 79 76 79 78 73 78 78 72 71 65 72 69 63 67 68 70 68
60 59 58 58 57 56 56 57 57 57 57 57 56 56 55 55 55 55 55 54 55 55 56 58 58 61 55 79 81 78 80 77 79 80 77 78 78 72 68 71 66 62 62 53 65 69 71
59 58 58 57 56 56 56 56 56 56 57 56 56 55 55 54 54 54 54 54 55 56 58 58 59 60 58 71 71 78 79 73 77 77 77 79 74 66 67 58 54 58 49 54 59 70 69
59 58 57 56 55 55 55 55 55 55 56 56 55 55 55 54 54 54 53 54 58 57 59 66 68 57 63 67 74 76 79 77 72 72 68 66 64 58 59 55 44 50 53 56 56 64 66
58 57 56 56 56 56 55 55 55 55 55 56 55 54 54 54 54 53 55 65 57 54 61 61 64 61 67 75 77 72 77 73 71 67 57 63 54 50 56 60 59 57 54 51 58 64 60
56 56 56 56 55 55 55 56 56 56 55 55 54 54 54 53 53 53 56 61 59 57 52 67 67 66 70 70 61 69 76 64 62 55 62 58 51 60 64 63 60 57 53 52 57 62 60
55 55 55 54 54 54 55 56 56 54 54 54 53 53 53 53 52 54 61 59 66 63 50 62 67 65 66 67 63 65 70 67 60 57 58 54 59 66 61 58 56 56 52 51 52 59 61
54 53 53 54 54 55 55 54 54 54 53 53 53 52 52 52 50 62 58 63 64 61 44 54 59 64 67 66 59 72 72 66 61 55 59 58 65 61 59 56 57 49 60 58 55 52 43
52 53 53 54 53 53 53 53 53 53 52 52 52 52 52 53 51 58 59 63 63 56 35 58 60 73 70 62 65 64 72 66 56 58 58 53 58 56 53 55 59 53 61 57 55 50 48
51 52 52 52 51 51 52 52 52 52 52 52 52 52 52 56 55 61 62 61 57 41 36 52 62 59 60 63 64 67 64 68 67 59 60 58 66 62 59 61 61 61 55 55 53 49 38
51 51 50 50 51 51 51 51 51 51 51 51 52 52 52 58 54 61 59 54 41 37 58 50 53 56 56 56 59 62 59 56 52 47 48 57 58 63 63 54 59 56 49 38 36 38 35
50 50 50 50 50 50 50 51 52 51 51 51 51 51 55 61 60 59 55 47 35 50 51 55 54 54 49 56 57 58 56 52 60 57 51 47 44 59 62 55 52 52 49 38 29 32 37
50 50 49 49 49 51 51 50 51 50 51 51 50 54 55 58 59 57 48 37 41 47 51 48 51 48 50 56 53 52 51 51 57 59 49 45 47 60 61 62 59 51 45 54 42 45 38
50 50 51 51 51 51 51 51 51 50 50 51 49 53 54 58 59 52 45 42 47 51 50 50 41 49 43 48 47 48 48 56 53 57 57 51 40 56 59 61 60 55 58 40 37 29 31
50 50 50 51 51 51 51 50 50 50 50 50 48 48 54 59 57 49 39 45 48 51 50 45 44 43 44 43 45 43 45 51 55 52 54 51 44 44 53 47 49 51 47 48 46 42 32
51 51 51 51 51 51 50 50 50 50 50 48 50 42 56 58 45 49 45 47 42 48 50 47 47 45 42 43 41 42 42 48 56 54 46 48 37 35 45 58 60 57 52 50 37 36 41
51 51 51 50 51 50 50 50 50 50 50 49 48 49 57 53 36 43 45 45 48 46 46 46 44 47 47 42 37 43 45 53 53 50 45 47 39 31 39 50 57 49 53 49 47 43 36
51 50 50 50 50 50 50 50 50 50 50 48 48 37 49 52 52 45 41 42 41 47 45 46 45 46 43 41 46 41 43 49 51 49 46 45 40 34 30 37 41 38 43 47 48 36 39
50 50 50 50 50 50 50 50 50 50 50 48 47 41 48 37 43 45 44 43 41 38 45 48 41 41 40 36 39 39 44 45 49 50 49 44 33 38 40 44 45 41 37 42 41 41 39
50 50 50 50 50 50 50 50 49 50 50 48 37 44 49 47 46 44 40 41 41 43 43 41 38 43 45 39 40 36 42 42 40 46 44 41 33 38 35 43 44 40 46 43 41 39 41
50 49 50 50 50 50 50 49 49 49 49 51 51 52 47 43 43 42 41 43 41 43 45 47 45 43 40 43 47 48 48 46 44 41 38 37 31 31 29 41 40 34 45 47 47 47 50
50 49 50 50 50 50 50 49 49 49 49 50 52 52 44 38 44 43 44 44 42 44 41 46 48 42 48 53 51 49 48 47 47 46 47 37 34 33 29 34 22 44 56 55 51 48 46
49 50 50 50 50 50 50 49 49 49 50 50 55 49 45 36 47 45 43 43 45 46 43 44 48 51 53 47 38 36 37 40 43 46 45 46 38 30 27 28 33 47 52 51 48 36 46
50 50 50 49 50 49 49 49 49 49 49 50 52 54 48 38 42 48 43 44 41 42 42 45 52 54 49 39 34 27 26 33 32 35 49 47 44 32 29 22 23 34 47 56 55 33 43
49 49 50 49 49 49 49 49 49 49 49 50 51 54 49 36 48 47 41 39 46 43 40 44 45 45 48 35 29 28 29 38 28 31 35 36 34 28 28 25 31 37 45 55 37 31 42
49 49 49 49 49 49 49 49 49 49 49 50 50 54 47 41 47 49 49 45 46 44 37 43 41 39 39 32 31 31 27 30 32 39 37 34 31 31 32 28 25 40 43 35 35 40 41
48 49 48 49 49 48 48 49 49 49 49 49 46 52 53 46 44 52 52 53 51 50 45 45 41 41 39 34 35 34 30 32 31 29 43 30 35 30 30 28 36 38 36 38 39 36 37

GFSGBSN_sfc_temp_087.txt.gz
Temp
63 63 62 62 61 61 61 60 60 59 59 58 58 58 58 58 58 57 57 56 56 57 57 57 57 57 53 50 54 67 67 67 66 66 63 63 60 59 54 57 60 58 61 65 67 67 66
62 62 62 61 61 60 60 60 59 58 58 58 57 57 57 57 57 57 56 56 56 56 56 56 57 57 49 44 70 69 68 68 69 66 65 66 64 66 61 60 57 62 62 62 63 62 63
63 62 61 60 60 59 59 59 58 58 58 57 57 57 57 56 56 56 56 55 55 55 56 56 57 56 51 51 71 68 73 70 70 69 65 70 69 63 62 57 64 62 54 58 59 60 61
63 62 60 60 59 58 57 57 57 57 57 57 57 56 56 55 55 55 55 55 55 55 56 56 58 54 45 69 66 67 70 69 71 72 69 70 70 63 59 62 59 52 52 44 54 60 63
62 61 60 59 58 57 56 56 56 56 56 56 56 56 55 55 55 54 54 55 55 56 57 58 52 50 49 70 66 72 71 68 70 70 68 75 65 56 57 48 42 46 39 44 51 61 60
62 61 60 59 57 56 56 55 55 55 55 54 54 55 55 54 54 54 53 54 55 55 57 62 60 47 57 62 71 72 70 72 67 65 62 60 53 47 46 41 33 39 41 42 43 51 56
62 61 60 58 56 56 56 56 55 54 53 53 54 54 54 54 54 54 51 52 47 46 53 50 53 55 62 68 71 67 71 67 65 59 48 54 43 38 44 48 51 50 47 45 49 55 53
61 61 59 57 56 55 55 55 54 54 54 54 54 54 54 54 53 53 50 48 54 51 42 58 57 61 67 67 58 65 69 58 56 47 53 49 42 51 56 55 53 50 46 44 49 55 54
60 58 57 55 55 55 55 55 54 54 55 54 53 53 53 53 53 50 51 55 60 56 41 54 61 60 64 65 59 61 64 59 55 50 50 45 51 59 56 54 51 49 46 46 47 52 54
55 55 55 55 54 54 54 54 54 54 53 53 52 53 52 52 46 52 51 58 58 54 37 50 56 62 65 64 56 69 68 60 54 49 51 49 57 56 54 52 53 44 53 53 51 46 37
53 53 53 53 53 52 52 53 52 53 53 52 52 52 52 53 44 47 54 57 57 49 29 54 58 71 68 59 61 61 69 60 51 51 51 47 51 50 49 51 55 48 55 51 48 44 40
53 53 53 52 52 52 51 51 52 52 52 52 52 52 52 50 47 52 55 54 50 35 30 51 58 56 56 59 60 61 60 61 60 53 53 51 58 54 52 57 56 56 51 48 46 42 32
51 51 52 51 51 51 50 50 50 51 51 51 51 51 50 53 46 54 52 46 34 30 56 48 50 56 54 53 55 56 53 49 44 38 40 49 51 57 59 49 53 49 41 29 28 28 29
50 50 50 50 50 50 49 49 49 49 51 50 51 51 50 53 53 52 47 39 30 46 46 55 52 52 47 52 51 52 49 44 50 48 42 39 36 51 58 52 46 44 42 29 24 26 32
50 49 49 49 49 48 48 50 49 49 49 50 50 45 46 49 53 48 39 30 34 43 48 46 49 43 45 51 49 48 46 44 48 47 36 37 39 53 58 57 53 45 39 48 37 39 32
50 50 49 49 48 49 50 50 50 50 49 50 42 44 46 51 52 45 36 37 42 49 49 49 40 46 40 42 42 41 43 50 46 51 50 43 33 49 53 56 54 50 51 32 33 26 26
50 50 50 50 51 51 51 51 50 50 50 50 40 39 47 53 49 39 30 38 45 50 49 43 42 40 41 40 41 39 41 46 48 47 48 46 37 37 46 44 43 44 42 42 40 36 27
50 51 50 50 51 51 50 50 50 50 50 47 40 33 48 50 36 38 35 45 45 47 50 47 46 44 41 41 39 39 39 44 48 46 38 42 36 29 35 47 51 48 44 43 32 32 35
51 51 51 51 51 50 50 50 50 50 50 42 37 38 48 47 30 31 42 44 47 46 45 45 43 45 44 39 34 41 41 48 48 44 37 39 32 24 31 41 44 39 41 39 38 39 32
51 50 50 51 50 50 50 50 50 50 50 42 37 31 39 41 42 38 36 39 39 46 43 46 44 44 40 38 41 37 39 46 48 46 47 43 34 29 23 29 38 31 37 41 37 31 32
50 50 50 50 50 50 50 50 50 50 50 42 38 34 40 29 33 38 40 41 39 37 44 45 37 38 36 30 34 33 39 41 45 47 43 38 27 32 35 38 39 38 35 40 35 35 31
50 50 50 50 50 50 50 49 49 50 50 39 33 33 40 38 41 38 37 37 41 41 42 38 35 40 39 33 35 31 36 36 35 40 37 35 26 30 28 35 37 36 40 42 42 40 40
50 50 50 50 50 50 50 49 49 50 48 40 42 43 38 39 36 33 34 40 41 42 43 45 42 38 36 37 39 40 40 40 39 35 32 31 24 27 24 34 34 29 37 41 42 44 41
50 50 50 50 50 50 50 49 49 49 48 40 41 40 34 30 34 37 43 43 41 42 37 42 42 36 42 47 44 42 42 41 41 39 41 31 28 28 23 28 17 37 47 46 40 39 40
49 49 50 50 50 50 49 49 49 49 50 41 43 40 35 27 39 41 41 40 42 41 38 40 44 44 44 40 31 28 29 32 36 41 41 41 32 26 23 20 30 39 36 34 37 34 41
49 49 50 50 49 49 49 49 49 49 49 43 43 44 37 29 31 45 38 41 31 31 33 40 46 46 41 28 24 22 21 28 28 33 42 37 35 27 27 21 18 31 35 39 39 30 39
49 49 49 49 49 49 49 49 49 49 49 43 41 45 39 30 38 40 33 32 39 33 30 35 37 37 40 23 16 23 22 34 25 26 29 28 30 26 26 22 29 33 35 42 29 28 37
49 49 49 49 49 48 48 48 48 48 48 44 41 45 38 32 37 43 45 37 37 35 24 33 30 31 28 23 26 20 17 26 26 32 32 30 28 27 29 24 22 35 37 30 34 37 36
48 48 48 48 48 48 48 48 48 48 48 47 38 46 46 35 35 43 44 45 43 42 35 35 33 33 29 23 26 26 26 29 29 25 34 28 31 28 28 26 33 34 32 34 37 34 35

GFSGBSN_sfc_temp_090.txt.gz
Temp
64 64 63 63 62 62 62 61 60 59 59 59 59 59 58 59 58 58 57 57 56 56 57 57 57 57 52 46 50 65 67 66 64 64 62 60 57 55 50 53 54 52 57 60 62 62 63
63 63 63 62 62 62 62 61 60 59 58 58 58 58 58 58 57 57 57 56 56 56 56 56 57 57 47 41 66 70 66 64 65 62 61 61 59 60 56 55 52 58 58 57 59 59 59
63 63 62 62 61 61 61 60 59 58 57 57 57 57 57 57 57 56 56 56 55 55 56 56 57 55 47 49 63 64 68 65 65 64 61 64 63 58 57 54 59 57 50 53 54 55 55
61 63 63 62 61 60 60 59 58 57 57 57 56 56 56 56 55 55 55 55 55 55 56 56 57 54 44 65 62 63 62 64 68 68 66 66 65 59 55 57 55 50 47 40 50 56 58
61 62 63 62 61 60 59 58 57 56 56 55 55 55 55 54 54 54 54 55 55 55 56 57 53 49 45 66 61 66 67 65 67 66 64 72 61 54 53 45 40 42 35 41 46 55 54
61 61 63 63 61 59 59 57 56 56 55 55 55 53 53 53 54 54 54 54 55 55 56 59 56 46 52 58 66 69 66 68 63 62 58 56 50 45 42 39 31 35 37 37 39 46 51
61 61 62 62 61 59 58 57 55 55 54 55 54 53 53 53 53 53 52 50 48 45 50 48 48 51 58 65 68 65 69 66 61 57 46 50 42 37 41 44 46 45 42 41 46 52 47
60 60 61 62 61 59 57 56 55 54 54 54 54 54 54 53 54 54 49 44 53 52 43 53 53 55 61 62 57 62 67 56 53 45 48 44 39 48 51 50 47 45 42 41 48 52 50
59 60 61 62 59 57 57 55 54 53 53 54 54 53 53 53 53 48 44 49 58 54 41 51 55 54 57 61 56 58 62 56 51 47 46 41 48 55 51 49 46 45 42 42 44 49 48
55 58 59 59 57 56 55 54 53 53 53 53 53 53 52 52 46 45 46 56 55 52 34 46 52 57 62 62 54 65 65 58 52 48 49 46 54 52 50 48 49 42 51 49 46 41 35
53 53 54 55 54 53 53 53 53 52 52 53 52 52 52 52 42 43 52 53 54 47 26 52 55 69 64 56 58 58 66 58 49 49 48 45 48 47 46 47 52 46 52 48 45 39 36
53 52 52 52 52 52 52 51 51 52 52 52 52 52 52 48 44 49 51 51 48 33 27 47 56 54 53 56 58 60 59 60 59 51 49 48 53 50 49 54 53 52 47 45 42 38 30
53 53 52 52 51 51 50 50 50 50 50 50 50 51 49 51 44 51 49 45 33 27 53 46 48 54 52 51 53 55 52 48 44 37 37 45 48 51 54 46 49 47 39 28 26 25 26
52 52 51 51 50 50 50 49 49 50 50 50 50 50 48 50 50 50 46 37 28 43 44 51 51 51 47 51 50 49 46 42 46 43 38 35 33 45 51 46 44 42 40 29 23 24 31
51 51 50 50 49 49 49 50 49 49 48 48 48 43 43 47 49 48 39 28 33 41 46 45 48 43 44 48 46 46 44 43 44 44 35 32 34 48 51 50 48 42 36 45 33 36 29
50 50 49 49 49 49 49 50 49 48 48 48 40 40 43 50 50 44 34 35 40 47 48 48 40 42 37 39 39 40 41 46 43 46 45 39 30 43 46 50 50 47 47 31 29 23 23
50 50 50 50 49 50 50 50 50 49 49 49 39 36 46 50 47 38 29 36 43 49 49 43 40 38 39 37 39 37 39 43 45 44 44 40 34 34 42 41 36 37 36 37 36 32 25
50 50 50 50 51 51 51 50 50 50 50 46 38 31 47 48 35 36 33 43 47 47 50 46 45 42 39 40 37 38 37 40 46 44 36 39 34 28 33 44 46 45 39 38 29 28 31
50 50 49 50 51 50 50 50 50 50 49 40 35 37 46 46 27 30 41 43 45 45 44 44 42 43 43 38 33 39 39 45 46 43 36 38 30 23 28 35 40 36 40 39 36 34 28
51 50 50 51 50 50 50 50 50 50 50 41 36 28 36 38 40 36 34 38 38 45 43 45 42 42 39 37 39 34 36 43 44 44 46 42 31 29 21 27 34 30 36 39 35 27 29
50 50 50 50 50 50 50 49 49 50 50 40 34 31 38 28 33 37 39 40 37 35 43 45 37 37 35 30 32 31 35 37 41 44 39 36 27 30 32 34 34 33 33 36 35 35 28
50 50 50 50 50 50 50 49 49 50 50 40 32 34 38 36 40 37 36 36 38 40 40 37 34 39 37 30 32 29 32 33 32 38 34 33 25 29 27 33 34 30 34 36 38 39 40
50 50 50 50 50 50 49 49 49 50 48 39 39 41 37 36 35 33 33 38 38 40 42 41 39 36 34 34 37 38 37 37 36 33 30 29 23 22 21 31 30 25 32 36 39 42 40
50 50 50 49 49 49 49 49 49 50 46 39 39 39 32 28 33 35 41 41 39 39 35 40 40 35 40 43 41 39 37 38 37 36 37 26 25 25 22 27 15 33 39 41 36 36 37
50 50 50 50 49 49 49 49 49 49 50 41 40 38 33 25 36 39 39 38 39 39 37 38 41 43 42 38 30 27 28 32 34 36 36 36 31 24 19 21 30 35 35 32 29 30 34
49 50 50 49 49 49 48 48 49 49 50 40 39 40 36 28 30 41 36 38 30 30 31 36 43 42 40 27 23 21 19 27 28 31 37 36 35 25 25 20 14 27 33 37 34 27 34
49 49 49 49 49 48 48 48 48 49 49 42 39 41 37 27 36 38 31 31 36 30 28 32 35 35 36 19 15 19 21 31 24 23 28 26 27 24 23 22 27 30 33 35 27 25 33
48 49 48 48 48 48 48 48 48 48 49 43 39 41 37 29 34 40 41 34 33 31 23 30 28 28 26 22 21 16 15 24 26 29 29 28 26 25 27 23 20 33 34 27 31 32 33
48 48 48 48 48 48 48 48 48 48 48 46 35 42 42 34 34 40 41 42 41 40 33 32 30 29 27 22 23 22 22 25 27 25 33 25 27 26 27 24 32 32 32 34 34 32 31

GFSGBSN_sfc_temp_093.txt.gz
Temp
61 61 63 63 63 63 62 62 61 60 60 60 59 59 59 59 59 58 57 57 57 57 57 57 57 57 50 45 50 62 67 66 62 61 59 58 54 51 48 50 50 49 53 56 58 58 57
60 60 60 62 63 62 62 62 61 60 59 59 59 58 58 58 58 58 57 56 56 56 56 56 56 57 47 41 64 65 64 61 62 59 59 59 57 58 54 52 50 54 54 54 54 55 55
60 60 60 60 62 62 62 61 61 60 59 58 58 57 57 57 57 57 56 56 55 56 56 56 56 55 47 47 60 61 66 61 61 61 59 62 62 55 55 52 57 55 48 50 52 51 53
60 60 60 59 60 61 61 60 60 60 59 58 57 56 56 56 56 55 55 55 55 55 56 56 57 53 42 62 58 59 60 61 64 63 62 63 63 57 54 57 53 48 45 39 47 52 55
59 59 60 60 59 61 60 60 60 59 58 57 56 55 55 54 53 53 54 54 55 56 56 56 51 50 42 63 56 62 62 60 64 62 62 69 59 53 51 44 40 40 34 38 44 51 50
59 59 59 61 60 60 61 60 59 58 57 56 55 55 54 52 52 52 53 54 55 55 55 57 55 44 50 55 64 66 61 64 62 59 56 55 49 44 41 40 32 34 35 31 35 46 45
59 60 61 61 60 60 61 61 59 57 56 55 55 54 52 52 51 51 50 48 47 45 47 46 47 47 54 61 64 63 65 62 60 55 44 48 41 38 42 43 44 42 39 37 41 47 44
57 58 60 61 60 60 62 61 58 56 55 55 54 53 53 53 52 52 49 43 51 50 39 50 52 51 59 59 52 59 64 55 52 45 48 42 39 48 48 46 44 41 38 38 43 49 44
55 57 59 60 60 60 61 61 56 55 55 54 53 53 53 53 53 50 45 48 58 55 38 47 51 50 54 57 51 55 60 55 48 45 44 39 46 52 48 44 42 41 38 40 40 45 46
54 54 57 59 60 60 59 57 55 54 53 53 53 53 52 52 46 45 41 53 55 53 31 41 46 51 55 56 50 62 62 56 49 45 45 43 52 49 45 44 45 37 48 47 44 39 33
54 54 53 53 55 55 54 54 53 53 52 52 51 52 52 52 43 40 48 52 53 48 22 48 48 63 57 53 54 55 63 56 47 47 45 42 45 43 43 45 49 43 50 46 43 38 36
54 54 53 53 53 52 52 52 52 51 50 50 50 51 51 48 44 47 49 51 48 32 23 44 52 50 50 53 55 57 57 58 56 48 45 46 51 49 48 52 51 52 46 43 39 36 28
53 53 53 53 52 51 50 50 49 49 48 48 50 50 49 50 42 50 49 45 31 25 47 43 45 50 48 48 50 53 50 46 39 35 36 44 46 51 53 45 48 47 39 28 26 25 26
52 53 52 52 51 51 50 50 49 49 49 49 50 50 48 49 48 49 46 37 24 38 42 48 50 50 44 49 47 49 45 39 44 41 37 34 34 44 49 44 41 41 39 29 24 24 28
52 52 52 51 51 50 50 50 50 49 49 49 49 42 43 47 48 47 39 27 32 39 45 43 47 42 41 45 45 44 41 40 41 41 34 32 34 46 48 48 45 41 34 42 35 32 28
51 51 50 50 50 50 50 50 49 49 49 49 39 39 41 49 48 43 35 33 39 44 45 45 38 42 35 38 39 40 39 42 40 43 44 38 31 42 45 48 45 41 44 29 28 24 22
51 50 50 50 50 50 50 50 49 49 49 49 39 35 44 49 47 38 28 33 42 47 47 42 39 38 39 37 38 37 37 40 43 41 42 38 33 33 41 36 34 36 37 35 35 32 25
51 50 50 50 50 50 50 50 50 49 50 44 37 30 43 47 34 35 31 41 46 45 48 45 44 41 39 39 36 37 35 39 45 43 36 38 32 26 30 41 42 39 35 35 27 26 29
50 50 50 50 51 50 50 50 50 50 49 38 33 32 44 44 28 29 39 40 42 43 41 42 41 42 42 36 32 37 38 43 44 41 35 36 29 22 26 33 38 34 37 38 35 32 26
50 49 50 51 50 50 50 50 50 50 50 39 34 25 33 37 38 35 35 37 37 44 41 43 41 41 37 35 38 35 35 40 42 42 45 41 31 28 20 27 31 28 32 35 32 20 24
50 50 50 50 50 50 50 50 49 49 50 40 34 30 37 28 32 36 38 39 36 35 42 43 36 36 35 31 32 31 34 36 39 43 37 34 26 29 30 31 31 30 30 32 30 31 25
50 50 50 50 50 50 49 49 49 49 50 38 32 33 36 35 39 36 35 35 37 38 39 36 34 37 36 30 32 29 32 32 31 35 32 31 25 28 27 30 30 28 32 33 33 34 34
50 50 50 50 49 49 49 49 49 50 48 38 38 40 37 34 34 33 33 37 37 39 40 41 39 35 33 34 37 37 37 36 35 32 30 28 23 22 21 30 29 24 30 31 34 37 37
50 50 50 49 49 49 49 49 49 50 46 40 38 37 32 28 33 34 39 40 38 38 35 39 39 34 38 42 39 36 34 34 33 34 34 25 24 22 19 25 14 31 35 33 34 34 36
50 50 50 49 49 49 48 48 49 49 49 40 39 37 33 26 35 38 38 37 37 38 36 36 40 41 40 36 30 28 28 31 32 33 32 33 27 18 15 17 27 32 31 29 29 29 33
49 50 50 49 49 48 48 48 49 49 49 40 38 39 36 30 30 37 34 36 30 29 30 35 41 40 36 26 23 21 18 26 27 29 37 32 33 26 24 13 12 24 32 37 33 25 31
49 49 49 49 48 48 48 48 48 49 49 42 39 39 36 27 35 36 32 31 34 30 27 31 33 33 33 18 14 13 20 30 23 19 26 26 26 22 22 19 24 28 32 34 24 24 30
48 48 49 48 48 48 48 48 48 49 49 42 38 39 37 29 34 39 40 34 32 30 23 29 27 27 24 21 20 14 13 26 22 23 28 26 24 24 26 22 20 31 32 25 29 31 30
46 48 48 48 48 48 48 48 48 48 48 44 36 41 41 35 35 38 40 41 40 38 31 30 29 28 26 21 21 21 20 22 22 20 32 24 26 24 25 23 31 31 30 32 33 31 30

GFSGBSN_sfc_temp_096.txt.gz
Temp
60 60 60 60 60 61 63 63 62 61 60 60 60 59 60 60 60 59 58 57 57 57 57 57 57 57 50 46 52 61 66 65 61 60 57 55 51 49 45 46 48 46 50 53 55 55 54
60 60 60 60 60 60 61 62 62 61 60 60 59 59 59 59 59 58 57 56 56 56 56 57 57 56 45 41 64 62 61 61 59 57 57 57 54 54 50 49 49 51 51 53 53 53 53
60 59 59 59 59 60 60 60 62 61 60 60 59 58 58 58 57 57 56 56 55 56 56 56 56 53 44 48 61 57 62 60 59 59 56 59 59 52 51 50 54 53 47 50 51 51 51
59 59 59 59 59 59 59 59 60 61 60 60 59 58 57 56 55 54 53 53 54 55 56 56 57 52 40 60 57 56 54 58 62 59 59 59 59 54 52 54 51 45 43 38 47 49 54
59 59 59 59 59 60 59 59 58 61 60 59 59 57 56 55 54 52 51 51 52 54 56 56 51 47 40 60 53 58 58 58 59 59 58 66 58 51 49 43 38 38 32 36 43 50 48
59 58 58 58 59 59 59 59 58 60 60 59 58 56 55 54 53 51 51 51 52 53 54 56 54 44 49 52 59 61 57 61 57 56 54 52 48 42 40 39 31 32 33 31 36 44 44
58 58 58 58 59 60 61 60 59 59 59 58 57 55 54 53 52 50 49 45 43 43 46 45 46 45 52 58 61 60 59 57 56 51 43 47 39 36 43 41 42 41 37 36 38 45 42
57 56 57 58 58 59 61 60 59 58 59 57 56 55 54 52 51 51 48 40 48 46 36 49 49 50 56 58 49 57 62 52 49 42 45 40 36 46 47 45 42 40 36 35 40 45 42
56 55 56 58 59 59 60 59 59 58 57 56 55 54 52 52 52 48 45 46 56 53 37 43 50 47 51 54 48 52 58 53 47 43 42 37 44 50 47 42 40 39 36 37 38 42 44
55 55 55 56 58 59 59 59 59 57 56 54 53 52 52 51 46 47 43 52 53 51 31 38 43 48 52 54 46 59 60 55 46 43 43 41 48 46 42 42 42 34 44 43 41 37 31
55 54 54 54 54 55 55 56 56 55 54 52 52 51 50 49 42 42 48 52 52 46 18 45 44 57 54 49 51 51 60 54 44 44 43 40 43 41 39 43 46 40 47 43 41 36 33
53 54 54 53 53 52 52 52 52 51 51 50 50 50 49 45 43 46 50 52 48 30 19 41 48 45 44 48 51 53 53 55 52 45 43 43 47 47 46 49 48 50 45 42 37 34 26
53 53 53 53 53 53 52 51 50 49 49 49 48 48 46 46 40 49 49 45 29 21 43 40 41 46 44 45 48 50 47 41 37 33 33 41 44 48 50 44 47 45 38 29 25 24 26
52 52 52 52 52 51 51 50 49 49 49 48 48 48 48 47 47 47 46 35 23 35 38 46 45 46 42 47 45 47 42 36 41 38 35 34 32 42 48 44 41 41 39 30 23 24 26
52 52 52 51 51 51 50 50 50 49 49 49 49 43 41 46 47 46 38 25 27 37 42 40 45 41 39 44 44 43 40 36 39 40 36 33 34 45 47 47 44 40 33 39 32 32 28
52 51 51 51 51 51 50 50 50 49 49 50 40 40 40 46 49 45 32 29 35 42 43 43 31 36 35 38 39 39 38 41 40 43 44 38 32 40 44 45 45 41 43 30 29 23 23
51 51 51 50 50 50 50 50 49 50 50 49 38 34 42 48 47 37 27 32 41 45 46 39 37 36 37 36 38 36 36 40 43 42 43 39 35 35 41 37 33 34 32 33 32 30 24
51 51 50 50 50 50 50 50 49 49 50 44 35 29 45 45 33 33 29 40 44 42 46 43 40 39 37 38 36 34 33 38 43 43 36 38 33 27 31 39 41 38 34 34 24 24 27
51 51 50 50 50 50 50 50 50 49 49 37 33 33 41 43 27 29 37 40 41 41 40 40 39 41 40 36 32 36 36 42 43 41 35 37 29 23 27 33 38 33 34 35 32 28 21
50 50 50 50 50 50 50 50 50 50 49 40 32 24 35 37 37 31 33 36 36 43 40 42 39 41 38 35 37 33 34 39 41 41 44 40 31 28 21 27 29 28 30 31 27 12 18
50 50 50 50 50 50 50 50 50 50 50 40 33 27 35 24 29 33 36 38 36 35 41 42 36 36 34 30 31 30 33 35 39 41 36 34 26 29 30 30 30 29 29 29 26 28 19
50 49 49 50 50 50 49 49 49 49 49 38 30 32 34 33 37 35 35 35 36 37 38 36 33 36 36 31 32 29 32 32 31 34 32 31 24 27 25 30 29 27 29 29 30 30 30
50 50 50 50 49 49 49 49 49 49 48 38 38 39 36 34 34 33 33 36 36 38 39 40 37 34 32 34 36 36 36 36 33 31 29 28 22 21 20 29 28 23 28 29 30 33 32
50 50 50 49 49 49 49 49 49 49 48 41 39 36 31 28 33 34 38 39 36 37 34 38 38 34 38 41 38 36 33 32 30 31 33 25 24 22 19 24 11 28 34 33 30 33 31
49 49 50 49 49 49 48 48 49 49 48 39 38 37 34 26 35 36 37 36 36 36 34 35 38 38 38 35 30 29 27 30 30 31 29 31 25 17 13 16 25 28 30 27 27 28 31
49 49 49 49 49 48 48 48 49 49 49 40 37 38 35 30 29 36 33 35 30 30 31 34 39 38 35 26 23 21 17 25 25 27 33 31 32 24 22 12 9 22 31 36 33 23 29
49 49 49 49 48 48 48 48 49 49 49 41 38 38 36 27 33 36 32 31 33 30 28 30 32 32 32 18 14 13 19 28 22 19 25 25 25 21 20 17 20 27 31 33 22 21 29
48 49 48 48 48 48 48 48 48 49 48 42 38 38 37 30 34 38 39 33 32 31 25 29 26 27 24 20 20 13 12 22 22 16 26 24 23 22 24 19 15 30 32 23 27 30 29
48 48 48 48 48 48 48 48 48 49 48 44 36 39 40 35 34 37 39 40 39 37 30 29 28 27 25 21 21 21 20 17 18 18 29 19 22 22 24 20 30 30 29 30 30 29 28

GFSGBSN_sfc_temp_099.txt.gz
Temp
61 61 60 60 60 60 60 60 60 61 61 61 61 60 61 61 60 59 58 57 57 57 57 57 57 57 53 50 56 66 66 65 64 62 63 60 58 55 52 53 54 52 55 59 60 61 60
60 60 60 60 60 60 60 60 60 60 60 61 60 60 60 60 60 58 57 57 56 56 56 57 57 57 49 42 68 66 64 62 64 62 60 61 60 60 56 55 54 57 56 58 60 60 59
60 60 60 59 59 59 59 58 59 59 59 60 60 59 59 59 59 57 57 56 54 54 55 57 57 55 45 48 66 63 62 62 63 63 59 62 63 60 59 55 59 58 53 56 57 59 58
59 59 59 59 58 58 58 58 58 60 59 59 60 59 58 58 57 56 55 54 53 53 53 56 57 52 41 59 62 58 62 61 64 65 64 65 64 60 58 60 56 52 51 46 55 56 58
59 59 59 58 58 58 58 58 58 59 60 58 59 59 58 57 55 54 53 52 52 52 54 55 51 48 42 61 55 60 61 59 62 62 62 66 62 57 56 51 47 46 43 44 49 57 56
59 59 59 58 58 58 58 58 58 59 59 58 58 59 58 56 54 53 52 52 51 52 53 56 53 43 50 52 60 61 59 61 60 58 56 57 56 51 50 48 39 42 42 44 45 52 52
59 58 58 58 57 58 58 59 58 59 58 57 58 58 56 55 53 52 49 46 44 42 47 44 46 48 51 59 62 61 59 57 60 56 47 51 46 41 46 49 49 47 44 43 48 52 48
57 57 57 57 57 57 58 59 58 59 58 57 58 57 55 54 53 52 49 44 48 48 39 48 48 50 55 57 48 56 62 53 51 46 51 46 42 49 51 49 48 46 43 43 48 50 48
56 56 56 57 57 58 60 59 59 58 57 58 57 56 55 53 52 48 46 48 54 52 38 44 47 47 49 52 45 50 58 55 50 46 46 44 48 52 49 46 43 44 42 42 44 49 51
56 55 55 56 56 56 57 58 58 58 57 57 56 54 52 51 47 46 43 50 49 51 31 40 41 48 52 52 43 56 60 56 50 45 46 46 53 48 47 45 47 40 48 48 45 43 40
55 54 54 54 54 54 54 55 57 57 56 55 54 52 51 49 43 43 46 51 51 47 23 45 45 58 54 48 53 49 61 56 45 46 47 44 46 45 43 46 48 45 50 47 46 42 41
54 53 53 53 53 53 52 52 52 52 52 51 50 49 49 45 44 45 47 48 46 28 21 41 47 44 42 47 50 53 51 58 57 48 47 48 53 50 49 51 51 53 48 46 44 42 34
54 53 53 53 53 53 52 52 51 51 50 50 49 48 46 46 40 46 46 42 28 23 43 40 42 43 43 42 45 49 47 46 44 38 38 44 47 52 53 48 50 50 45 35 32 31 33
53 53 52 52 52 52 51 51 51 50 50 49 48 47 46 44 45 47 45 34 22 34 37 46 46 45 40 45 47 48 45 40 45 44 39 37 34 44 50 48 46 44 45 37 27 29 34
53 52 52 51 51 51 51 50 50 50 49 49 48 41 42 44 46 46 37 26 29 34 41 39 43 39 40 45 45 43 40 39 41 43 39 37 35 46 48 49 48 43 40 44 37 37 34
53 52 52 51 51 51 50 50 50 50 50 49 42 39 40 48 46 43 33 29 34 43 43 42 32 32 35 39 41 41 39 42 41 44 47 40 33 41 46 49 48 45 46 35 36 28 27
52 52 52 51 51 51 50 50 50 50 50 49 39 36 44 49 46 37 28 32 39 46 46 40 36 31 37 37 40 36 36 40 41 41 44 41 39 36 42 39 36 40 39 37 38 35 29
51 51 51 51 51 50 50 50 50 50 50 44 38 30 44 46 32 34 30 39 44 43 47 43 39 38 37 38 37 34 35 38 42 43 37 39 37 32 33 41 43 41 36 36 31 28 30
51 51 51 51 50 50 50 49 49 50 49 39 36 35 45 44 28 30 37 40 42 42 41 38 38 40 41 36 33 36 37 42 44 41 38 40 34 28 30 36 40 35 37 37 35 33 26
50 50 51 51 51 50 50 50 49 50 50 43 34 28 33 38 37 33 33 36 37 44 40 42 39 40 39 35 38 34 35 40 42 42 43 43 34 31 28 30 34 31 33 35 32 25 27
49 50 51 51 50 50 50 50 50 50 49 42 34 30 36 26 31 33 35 39 36 35 42 43 38 38 37 32 33 31 35 37 40 41 38 38 30 32 34 33 33 32 33 33 30 32 26
48 50 50 50 50 50 50 50 50 50 49 40 31 33 37 34 38 33 34 36 37 37 39 37 35 37 38 33 34 31 35 35 35 38 36 35 28 31 28 33 33 30 33 33 33 33 32
49 49 50 50 50 50 50 49 49 49 48 39 39 40 38 35 34 33 34 37 37 39 39 42 39 36 34 36 39 40 40 39 39 36 33 32 29 26 22 30 30 25 31 33 34 36 35
49 49 49 50 49 49 49 49 49 49 48 42 41 39 34 31 35 36 39 40 38 39 35 39 40 37 40 44 42 40 37 36 37 36 37 30 29 27 24 26 15 29 35 35 30 34 33
49 49 50 49 49 49 49 49 49 49 50 42 41 39 36 30 37 37 37 36 37 38 36 36 38 39 42 39 34 31 31 32 31 34 34 36 31 24 21 22 28 29 30 28 27 28 29
49 49 49 49 49 48 48 48 48 49 49 42 40 40 38 33 33 38 36 37 33 33 34 36 40 40 38 31 29 24 21 27 26 29 34 34 35 28 23 17 16 24 32 36 33 24 30
48 49 49 49 48 48 48 48 49 49 49 42 40 40 39 31 36 38 35 34 36 34 32 34 35 36 37 26 22 22 24 30 24 22 26 26 26 23 23 22 25 28 31 34 22 22 29
48 48 48 48 48 48 48 48 48 49 49 44 40 40 40 33 36 39 41 35 35 35 31 33 32 32 30 26 26 22 24 27 25 22 27 26 25 24 26 21 18 31 32 25 27 30 29
48 48 48 48 48 48 48 48 48 49 48 45 39 41 41 37 37 40 41 42 42 41 35 33 33 30 31 27 28 28 26 26 24 23 30 24 26 25 25 24 30 31 29 30 30 28 28

GFSGBSN_sfc_temp_105.txt.gz
Temp
61 61 61 61 61 61 61 61 60 59 59 59 59 60 60 61 62 61 59 58 58 58 58 57 58 58 63 61 65 80 66 67 75 76 76 75 71 71 66 72 75 71 74 76 79 77 76
60 60 60 60 60 60 60 60 60 59 59 59 59 59 59 60 60 61 59 58 57 57 57 57 58 57 58 53 81 84 79 77 78 76 75 76 73 76 70 69 69 74 74 74 76 76 76
60 60 60 59 59 59 59 59 58 58 58 58 58 58 58 59 59 60 59 57 56 56 57 57 57 61 57 60 81 84 80 79 81 79 74 78 79 73 72 67 74 71 65 70 72 73 72
59 59 59 59 59 58 58 58 58 58 58 58 58 58 58 58 58 58 58 56 56 56 56 56 56 59 53 75 82 78 81 77 80 81 78 79 79 72 67 71 69 65 66 58 70 74 74
59 59 59 59 59 58 58 58 58 58 58 58 58 58 58 57 57 57 56 55 55 55 55 55 58 58 57 70 68 75 77 72 75 76 76 77 74 67 65 57 55 61 53 59 65 76 72
59 59 59 59 58 58 58 58 58 58 58 57 58 58 57 57 56 56 55 54 54 54 54 59 61 50 62 64 74 74 78 74 69 71 67 66 64 59 61 55 43 52 54 62 60 70 69
58 58 59 58 58 58 58 59 58 57 57 57 57 58 57 57 56 54 51 49 46 44 49 57 61 61 67 75 76 72 76 71 70 66 57 63 54 51 57 60 60 58 56 57 65 73 67
58 58 58 58 58 58 58 58 57 57 57 57 58 57 57 57 55 53 61 49 60 62 52 58 61 64 70 73 62 68 76 62 62 56 62 54 47 58 62 59 55 55 54 54 60 66 65
57 57 57 58 58 58 58 57 57 56 56 57 57 57 57 56 53 53 53 57 62 62 45 57 66 65 66 69 61 63 71 65 59 56 57 54 56 58 54 51 43 46 47 52 48 55 64
56 56 56 57 58 57 56 56 56 56 56 57 57 56 55 53 49 51 48 56 61 58 37 53 59 63 67 67 57 70 72 66 58 55 55 54 61 55 50 46 46 37 51 53 51 51 46
55 56 56 56 56 55 54 54 55 55 57 57 56 55 53 54 49 47 50 59 55 51 28 61 63 70 66 59 64 66 73 64 54 52 49 49 50 49 47 48 50 44 51 48 51 49 51
55 55 55 56 55 54 54 53 53 54 56 56 55 53 53 51 54 57 58 55 50 35 29 53 60 55 55 58 60 65 62 67 60 47 43 46 51 51 52 53 48 47 45 48 51 50 38
55 55 55 55 54 53 53 52 52 52 52 53 53 52 51 53 45 58 56 48 32 29 52 50 53 57 55 55 55 58 54 48 46 34 36 44 45 47 52 45 48 44 37 30 29 32 35
54 54 54 54 54 53 53 52 52 51 51 50 49 49 48 48 52 51 47 38 28 46 47 55 55 57 51 56 56 56 52 44 51 48 43 36 35 46 50 46 43 43 39 33 26 28 35
53 54 54 54 54 53 52 52 51 51 50 50 50 47 45 46 49 48 40 32 38 42 51 49 51 47 49 54 55 55 51 48 50 52 41 41 42 57 57 56 54 42 40 50 40 44 40
53 53 53 53 54 52 52 51 51 51 50 51 48 44 42 48 50 45 36 37 47 53 52 51 41 43 44 49 50 52 51 55 51 54 58 45 38 53 56 58 58 52 54 39 40 30 32
53 53 53 53 53 51 51 51 51 51 50 52 48 40 43 48 47 38 36 43 50 56 54 48 46 43 45 46 51 50 49 51 54 53 55 49 46 43 51 49 44 49 43 44 43 40 34
51 51 52 52 49 51 51 51 51 51 51 47 49 37 44 46 34 36 39 46 47 51 54 51 50 47 45 46 47 44 47 49 52 54 48 51 46 39 45 51 53 51 49 46 34 35 37
51 51 51 51 51 50 51 51 51 51 51 52 40 38 44 43 32 34 44 46 49 47 49 47 46 49 50 44 40 38 46 47 49 51 48 50 42 37 39 46 51 48 50 49 47 45 38
51 50 50 51 50 50 50 51 50 50 51 47 43 34 35 37 39 40 39 41 43 52 50 50 44 48 46 43 48 41 40 44 49 50 44 47 45 42 35 39 47 41 45 48 44 35 39
50 50 49 49 49 49 50 51 51 50 50 44 43 40 46 32 35 43 44 44 42 42 50 51 43 44 43 38 41 41 45 44 47 45 48 47 38 43 44 44 44 43 44 45 42 43 36
50 49 48 49 50 48 50 51 50 50 50 41 38 44 49 47 46 41 40 41 44 46 47 44 42 45 45 39 42 41 44 45 43 46 46 46 39 41 39 43 43 40 44 45 45 45 45
49 48 48 49 48 47 49 50 50 50 49 40 49 53 49 44 44 39 40 45 46 47 48 49 47 46 42 42 49 52 53 50 49 46 43 42 39 37 35 39 39 35 41 44 46 49 46
47 49 48 49 49 49 49 50 50 49 50 50 48 48 43 39 42 42 45 47 46 46 43 47 49 47 49 55 54 52 51 49 49 47 49 40 39 38 36 36 25 38 45 42 39 43 43
47 48 47 50 50 49 49 50 49 49 49 47 47 47 44 37 46 46 46 47 47 49 44 48 49 53 55 51 43 38 38 39 40 45 45 48 42 35 30 32 37 38 38 31 30 32 34
46 46 50 49 48 48 49 49 49 49 49 49 49 50 47 39 44 50 47 48 43 43 43 44 50 54 52 45 41 33 31 38 33 37 47 44 45 37 35 28 25 31 40 45 38 29 36
44 48 48 47 47 48 49 49 49 49 50 50 46 53 48 38 48 49 44 45 50 47 43 45 45 45 50 39 34 34 34 43 33 31 31 34 35 33 34 31 29 35 42 43 25 26 33
45 47 47 47 48 48 49 49 49 49 49 48 45 54 49 45 46 51 51 47 49 50 43 46 43 43 42 36 38 36 35 39 36 31 35 34 33 33 37 29 24 40 40 29 29 34 33
47 48 48 48 48 48 49 49 49 49 49 48 45 54 55 49 45 52 51 53 51 52 51 48 46 46 47 43 45 44 37 38 36 30 39 30 32 32 31 29 33 37 32 34 36 34 31

GFSGBSN_sfc_temp_108.txt.gz
Temp
61 61 61 61 61 61 61 60 60 59 59 59 59 59 59 60 60 60 60 59 58 59 59 58 58 59 61 58 63 81 67 67 73 74 73 73 70 69 63 68 71 68 71 75 77 77 77
60 60 60 60 60 60 60 60 59 59 59 59 58 58 59 59 59 59 59 58 58 58 58 58 58 57 57 50 78 83 79 79 75 75 73 75 72 74 68 67 65 69 69 70 73 74 75
60 60 59 59 59 59 59 59 59 59 58 58 58 58 58 58 59 59 59 59 57 57 57 58 58 60 54 56 78 82 82 80 81 77 73 77 77 71 71 65 73 70 63 67 69 71 70
60 60 60 59 59 59 59 58 58 58 58 58 58 58 57 58 58 58 58 58 57 57 56 57 57 57 50 74 80 76 78 78 82 81 77 79 78 71 68 70 66 61 61 54 66 70 73
59 59 59 59 59 58 58 58 58 58 58 58 58 57 57 57 57 57 57 57 56 56 55 56 55 56 54 74 69 76 77 72 77 78 77 77 73 65 65 57 54 58 50 53 59 71 71
59 59 59 59 59 58 58 58 58 58 57 57 57 57 57 57 57 56 56 55 54 53 53 59 60 50 60 63 75 76 79 75 70 70 68 66 63 57 58 54 43 49 52 57 56 65 69
59 59 59 59 58 58 59 59 58 57 57 57 57 57 57 57 56 54 52 50 47 45 48 54 58 59 66 75 77 73 77 72 70 65 55 63 54 49 55 59 59 57 55 53 59 65 62
58 58 58 58 58 59 59 59 57 57 57 57 57 57 57 57 56 54 57 51 58 62 52 55 60 63 68 72 62 69 77 65 61 54 60 56 51 59 62 60 57 55 51 49 55 61 60
57 57 57 57 58 58 58 58 57 56 56 56 56 56 57 56 54 52 53 56 65 66 52 58 64 60 64 68 61 64 71 66 59 55 56 51 57 64 60 55 52 52 50 48 47 54 56
56 56 57 57 57 57 57 57 56 56 55 55 56 56 56 54 50 52 50 58 63 63 41 52 61 66 69 68 61 72 73 66 60 54 56 54 62 58 57 53 54 44 55 52 48 43 35
56 56 56 56 56 56 56 56 55 55 55 55 56 56 54 55 53 49 52 58 60 54 30 63 64 74 70 63 65 66 74 66 55 55 55 50 54 52 50 53 57 48 48 46 43 39 40
56 55 55 56 55 56 55 55 54 54 54 54 56 55 53 51 56 54 57 56 52 36 29 54 62 58 58 61 62 67 65 68 64 56 57 51 55 51 51 54 55 49 42 43 43 39 28
54 55 55 55 55 55 54 53 53 52 52 54 55 54 54 55 47 56 55 48 34 30 56 52 56 59 56 56 56 58 57 53 48 39 40 49 48 54 54 48 53 46 35 29 27 28 30
54 54 54 54 54 54 53 52 52 52 51 50 50 50 49 51 56 54 49 39 30 47 47 61 58 60 52 57 56 57 54 50 54 50 45 40 38 49 53 49 46 44 37 32 23 27 34
54 53 53 54 54 54 53 53 52 51 50 50 50 47 45 47 52 50 42 32 37 48 57 54 56 50 52 56 55 55 52 51 55 52 39 42 42 56 55 54 52 40 33 44 35 35 30
53 53 53 53 53 53 53 52 52 51 51 50 47 43 43 48 49 45 36 36 44 54 54 53 43 45 44 50 49 48 50 57 54 55 57 45 38 49 54 55 54 48 51 32 32 25 25
52 53 53 53 52 52 53 53 52 52 51 50 45 38 44 48 47 37 32 38 46 55 55 50 47 46 46 46 49 43 42 54 57 55 56 47 46 43 49 47 47 48 44 39 36 39 29
52 52 52 52 52 52 51 52 52 52 51 46 43 34 44 46 33 34 35 46 48 51 57 53 52 50 48 48 46 47 43 47 56 54 45 51 46 38 43 55 56 53 47 41 32 30 34
51 51 51 52 52 52 50 50 51 51 51 48 39 36 44 43 30 32 42 46 49 51 51 50 48 51 52 46 41 45 47 48 52 51 48 50 42 34 35 45 51 47 49 50 45 43 35
51 51 51 51 51 51 51 50 50 50 51 44 38 32 34 36 37 37 39 41 42 53 51 52 50 51 48 45 49 42 43 47 51 52 47 49 45 39 32 35 46 42 47 49 45 33 36
50 50 50 50 50 51 50 51 51 50 51 44 37 36 43 29 31 38 43 45 42 42 51 52 46 47 45 40 43 41 44 45 48 45 48 48 37 43 45 46 46 45 45 47 43 43 36
50 50 50 50 50 50 50 49 48 50 50 40 36 37 45 46 43 37 41 41 43 45 47 45 44 47 47 41 44 40 42 44 41 46 45 46 35 41 38 45 45 41 45 46 45 46 45
50 50 50 49 49 50 50 49 48 49 48 38 47 52 44 44 38 39 40 42 44 48 50 52 49 47 44 45 49 52 53 51 49 42 40 41 38 36 32 42 40 33 41 44 45 48 45
49 49 49 50 49 50 50 49 48 50 50 51 48 46 39 37 42 41 45 46 45 46 41 50 49 44 47 56 55 54 52 50 48 48 50 40 39 38 34 36 24 38 45 44 39 39 41
49 49 49 49 49 49 48 48 49 49 50 46 46 42 39 36 43 45 46 45 47 45 42 48 48 50 56 51 41 35 36 38 41 46 46 48 41 34 30 30 36 39 39 32 31 31 36
47 48 48 49 49 49 48 47 48 50 50 45 44 45 41 34 39 50 45 45 38 37 41 45 52 56 53 44 39 30 28 35 32 37 48 46 46 36 33 27 25 31 42 46 40 27 35
47 46 47 48 48 48 49 48 49 49 50 45 44 50 44 35 45 45 40 39 45 43 42 43 44 45 50 39 33 32 32 44 31 31 32 34 36 32 32 31 28 36 43 44 26 25 32
46 46 47 48 49 48 48 49 49 49 48 45 45 51 43 36 46 45 49 42 47 47 40 44 42 43 41 36 36 36 34 39 35 32 36 34 32 31 35 31 25 39 41 32 31 34 32
45 47 47 47 47 47 47 48 49 48 48 48 43 51 52 40 44 52 52 53 52 52 48 48 46 44 45 41 43 42 37 38 37 30 41 30 32 31 29 28 33 36 32 35 37 33 31

GFSGBSN_sfc_temp_111.txt.gz
Temp
61 61 61 61 61 61 61 61 60 59 59 59 59 59 59 60 60 59 59 58 59 59 59 59 59 59 56 51 55 72 68 67 69 70 67 66 62 61 56 60 61 59 63 67 68 68 67
60 60 60 60 60 60 60 60 59 59 58 58 58 58 58 59 59 59 58 58 58 58 58 58 58 57 51 43 69 74 74 68 70 66 64 66 63 65 60 60 57 62 63 64 66 66 67
60 60 59 59 59 59 59 59 59 58 58 58 58 58 58 58 58 59 59 58 58 57 57 58 58 58 51 50 67 69 70 69 69 69 64 69 69 62 61 57 64 62 54 58 60 61 61
60 60 60 59 59 58 58 58 58 58 58 58 58 58 57 57 57 58 58 57 58 57 57 57 58 55 45 66 67 66 64 64 72 73 71 70 70 63 58 61 59 53 53 45 56 61 64
59 59 60 59 58 58 58 58 58 58 58 58 57 57 57 56 56 57 57 57 57 57 56 56 51 51 45 68 62 68 70 66 70 72 70 76 65 56 56 47 43 47 40 44 50 61 61
59 59 59 59 58 58 58 58 58 57 57 57 57 57 57 56 56 56 55 55 55 54 54 57 56 48 54 58 69 71 71 71 66 65 63 60 54 47 46 42 33 38 41 45 46 54 56
59 59 59 59 58 58 59 59 58 57 57 57 57 57 56 56 56 54 52 49 46 45 48 46 49 52 62 69 73 68 72 68 64 58 48 54 43 39 45 49 50 49 47 46 51 57 53
58 59 59 59 58 58 58 59 58 57 57 57 56 56 56 56 56 54 55 47 53 53 43 49 54 54 61 64 57 65 69 58 55 47 51 46 42 51 54 53 51 50 46 45 50 56 52
57 57 58 58 58 58 58 58 57 56 56 55 55 55 55 55 54 53 50 52 60 60 42 53 52 52 56 60 54 56 64 60 54 49 49 44 49 57 54 51 50 49 45 45 45 50 51
57 56 57 57 57 57 57 57 56 56 55 55 54 55 54 54 50 50 50 57 60 59 33 45 54 58 60 61 54 65 66 60 53 49 50 47 55 53 51 49 50 43 51 45 43 39 32
56 56 56 56 56 56 55 55 55 55 54 54 54 54 55 55 50 48 52 58 57 53 22 55 58 71 65 55 61 61 68 60 50 50 49 46 49 48 43 47 48 43 46 42 41 36 37
55 55 55 55 55 55 55 55 55 54 54 53 54 54 55 53 52 54 57 55 52 34 24 49 57 56 55 56 59 62 61 61 57 49 49 49 51 48 45 50 49 48 42 41 39 37 27
54 55 55 55 55 54 54 54 54 53 52 52 53 55 54 55 47 56 55 49 33 27 52 48 52 55 53 51 54 56 53 46 42 34 35 44 45 48 52 43 47 40 35 26 22 26 24
54 54 54 54 54 54 54 54 52 52 51 51 50 52 49 51 55 56 50 39 27 41 44 58 54 56 48 53 52 52 49 44 47 45 38 35 31 46 50 45 40 37 35 26 20 22 28
54 54 54 53 54 54 53 53 52 52 51 50 50 46 45 47 53 53 43 32 33 42 52 49 51 46 47 52 52 50 48 45 50 49 37 36 38 51 53 51 47 39 32 41 31 32 25
53 53 53 52 52 53 53 53 52 52 51 51 45 43 43 48 50 46 39 36 40 50 53 51 41 44 42 46 47 48 43 52 50 55 51 44 33 48 52 51 49 43 45 30 31 23 22
52 52 52 52 52 52 52 52 53 52 52 50 44 39 43 48 48 39 32 34 43 52 54 48 43 42 42 42 44 42 42 47 49 49 53 46 40 39 47 42 39 41 38 38 36 33 25
51 52 52 52 52 52 52 52 52 52 51 47 42 33 44 46 34 33 33 39 48 47 54 50 48 46 43 46 44 43 41 45 51 50 44 46 41 33 39 49 52 49 42 41 28 28 30
51 50 51 52 52 51 51 51 51 52 51 42 37 35 44 43 29 31 36 41 47 45 45 44 46 48 48 43 38 41 42 48 50 47 42 43 33 29 33 40 45 42 45 43 40 36 30
50 50 50 51 51 51 51 51 51 51 51 45 36 29 34 35 35 34 35 35 37 45 47 49 49 50 43 41 45 39 38 46 49 50 47 47 41 35 28 32 37 36 43 46 40 27 30
48 50 49 50 51 51 51 51 51 51 51 43 37 34 34 27 30 34 39 38 37 38 48 51 45 43 40 35 39 38 42 43 47 47 46 43 33 39 43 43 44 43 43 45 41 40 30
49 49 50 50 50 50 51 50 50 51 50 39 33 35 39 34 37 33 34 36 36 40 42 42 40 43 43 37 40 34 38 37 38 43 42 43 31 37 34 43 43 38 43 42 43 43 42
50 50 50 50 50 50 50 50 50 51 48 35 39 41 38 34 35 32 32 36 39 42 47 48 45 43 42 43 45 46 44 46 45 39 36 36 32 32 26 38 38 29 36 40 40 37 39
48 49 49 50 50 50 50 50 49 49 48 42 42 39 36 31 33 34 39 39 41 43 38 46 45 40 46 53 49 49 45 44 44 43 44 36 34 32 28 31 21 34 42 41 34 33 36
47 48 49 49 50 50 49 49 49 49 49 43 44 41 37 31 37 40 39 40 43 45 40 40 47 49 50 46 36 32 32 35 39 45 43 44 35 28 24 25 32 35 37 30 27 27 32
47 48 49 49 49 49 49 49 49 49 49 45 43 44 39 34 31 40 38 42 35 34 35 36 48 48 47 34 29 25 23 30 30 36 46 43 40 28 27 21 17 26 39 41 37 20 31
48 48 48 48 49 48 48 48 48 49 49 45 42 45 40 33 36 39 36 35 40 36 33 37 38 40 43 28 25 26 28 39 28 28 30 30 29 27 25 22 26 36 41 43 19 20 30
47 47 46 47 48 48 48 48 47 49 49 45 42 44 41 34 36 43 43 38 39 38 32 36 33 35 34 29 30 29 28 32 31 29 32 29 26 25 27 21 18 34 36 28 26 31 30
46 47 47 48 47 47 48 48 47 48 49 47 40 47 47 37 38 45 46 46 46 47 39 39 37 38 36 33 34 36 31 29 31 25 37 23 26 25 26 24 31 34 30 34 35 29 30

GFSGBSN_sfc_temp_114.txt.gz
Temp
62 62 61 61 61 61 61 61 60 59 59 59 59 59 59 59 59 59 58 58 58 59 59 59 59 59 55 49 52 68 68 67 66 67 64 62 59 57 52 55 57 54 57 60 62 63 62
60 60 60 60 60 60 60 60 59 58 58 58 58 58 58 58 58 58 58 58 57 58 58 59 59 58 52 43 66 69 69 67 66 63 62 62 60 61 56 55 51 57 57 56 58 58 60
60 60 59 59 59 59 59 59 58 58 58 58 58 58 57 58 58 58 59 58 57 58 58 59 58 58 50 50 65 64 66 63 64 65 61 65 64 57 58 54 59 58 51 55 55 55 56
60 60 60 59 59 58 58 58 58 58 58 58 58 57 57 57 57 57 58 58 57 59 58 58 58 55 45 64 62 61 60 59 65 66 66 69 66 59 54 57 55 50 48 39 51 54 58
59 59 60 59 59 58 58 58 58 58 58 58 57 57 57 56 56 56 56 57 58 58 57 57 52 50 45 64 59 64 63 60 65 66 65 71 64 54 52 44 39 42 34 40 45 57 54
60 59 59 59 58 58 58 58 57 57 57 57 57 57 56 56 56 55 55 55 55 54 54 57 56 45 51 55 64 67 64 65 61 61 59 58 52 45 42 38 29 34 36 37 37 47 49
59 59 59 59 58 58 58 58 58 57 57 57 57 56 56 56 55 54 52 49 47 45 47 44 47 49 58 63 68 64 67 63 61 56 46 51 42 37 43 44 46 44 42 40 46 51 49
59 59 59 59 59 58 58 58 57 57 57 56 56 56 55 55 55 54 54 45 50 50 42 48 52 51 59 60 54 61 66 56 53 44 48 43 39 48 50 48 46 45 41 41 48 52 49
57 57 58 58 58 58 58 58 57 56 56 56 55 55 55 55 55 53 48 51 58 55 41 48 50 48 53 56 50 54 59 56 50 45 45 40 46 53 50 46 44 44 42 43 43 44 45
57 57 57 57 58 57 57 57 56 56 55 55 54 54 53 54 50 51 49 57 58 56 30 42 48 51 54 58 49 61 63 56 50 46 45 44 52 49 48 46 47 39 45 44 41 37 31
57 56 56 56 56 56 55 55 55 55 55 54 53 53 53 55 48 48 53 55 55 52 20 51 53 64 58 53 57 56 63 55 48 46 46 42 44 44 44 46 47 41 44 42 39 33 31
55 55 55 55 55 55 55 55 54 54 54 54 54 53 53 52 51 52 55 54 51 34 21 45 54 50 48 52 55 59 56 58 55 48 47 46 49 49 47 48 48 45 41 39 37 33 22
55 55 55 55 54 54 54 54 54 54 53 53 52 52 53 55 49 54 56 48 34 24 47 45 48 50 48 47 49 52 50 46 41 35 35 43 43 47 50 41 44 39 34 27 21 25 23
54 54 54 54 54 54 54 53 53 53 52 52 51 50 50 52 52 55 50 39 27 38 40 54 52 52 46 49 48 50 45 40 44 42 36 33 31 42 48 44 39 36 35 26 19 21 24
53 53 53 53 53 53 54 53 53 52 52 51 51 46 46 48 53 53 44 31 33 39 48 46 49 44 43 49 49 47 45 44 46 46 38 34 36 48 48 48 46 37 29 39 31 30 21
53 53 53 53 53 53 52 53 53 52 51 51 42 43 43 49 50 48 39 33 38 48 50 48 39 43 39 44 44 44 43 47 48 50 49 42 35 45 49 49 47 42 43 30 29 21 21
52 53 53 52 52 52 52 52 52 52 52 52 43 36 43 49 49 41 32 34 42 50 50 45 42 40 41 41 42 39 42 46 47 46 50 43 39 37 46 41 38 38 37 36 34 29 23
51 52 52 52 52 51 52 52 52 52 52 47 42 34 43 47 35 33 33 40 46 45 50 46 46 43 40 42 40 41 40 44 48 48 42 41 39 32 38 47 48 46 41 39 26 25 28
51 51 51 52 51 52 51 51 52 52 51 44 37 36 44 43 30 31 35 38 43 42 44 45 44 45 45 40 36 40 42 47 49 44 41 41 34 28 30 39 43 39 43 43 39 34 28
50 51 51 51 51 51 51 51 51 51 52 45 35 29 34 35 36 34 32 34 36 44 42 45 45 46 44 40 44 38 38 44 46 45 45 44 35 31 28 33 37 35 41 42 37 27 28
49 50 50 50 50 51 51 51 50 51 51 43 34 32 35 28 30 34 37 38 35 34 43 42 41 41 39 34 38 38 40 41 44 46 43 37 28 34 40 41 41 40 40 42 39 37 29
49 49 49 49 49 50 51 50 50 50 50 41 32 33 36 31 35 32 34 34 34 37 40 36 35 37 40 35 37 34 37 36 36 39 38 39 28 31 31 41 41 37 41 40 41 39 34
49 49 49 48 49 50 50 50 50 50 49 36 38 41 37 35 31 31 32 35 36 39 41 45 41 41 40 40 43 43 42 41 40 39 34 33 30 29 27 35 35 28 34 38 35 35 36
48 48 49 49 49 50 50 50 50 50 49 40 40 40 35 30 33 33 36 36 35 38 38 43 43 41 43 47 45 43 42 43 41 40 41 32 30 30 26 30 20 32 40 41 33 31 35
47 48 48 48 49 49 49 50 50 50 50 41 42 41 35 28 34 34 34 34 37 38 39 40 44 44 45 40 32 30 29 32 35 40 40 40 32 27 24 25 30 34 36 31 29 26 31
46 46 47 48 48 48 48 50 49 49 50 43 43 43 39 33 31 39 37 36 32 30 35 39 43 45 42 32 30 25 21 28 27 33 44 41 39 29 26 22 17 26 37 40 36 19 29
43 46 46 47 48 48 49 49 48 49 49 45 42 44 40 33 36 37 34 32 38 37 31 35 37 34 41 28 21 23 26 36 26 27 29 31 29 27 26 23 25 34 40 40 21 22 29
47 48 48 48 48 48 48 48 48 49 49 45 41 44 41 35 37 38 40 38 39 35 30 34 33 35 30 27 27 25 24 28 27 28 32 29 27 25 26 20 18 33 36 28 24 28 27
46 46 46 47 47 48 48 48 48 48 49 47 39 45 46 35 37 42 41 44 45 44 38 38 36 35 34 30 30 31 27 30 29 25 36 24 26 24 25 21 28 32 28 30 30 27 28

GFSGBSN_sfc_temp_117.txt.gz
Temp
61 62 61 61 61 61 61 60 60 59 58 58 58 58 59 59 59 58 58 57 57 58 58 59 59 59 54 48 50 64 68 66 63 63 60 59 56 54 49 52 54 51 54 57 57 58 57
61 61 60 60 60 60 61 60 59 58 58 58 58 58 58 58 58 58 57 57 57 57 58 59 59 58 50 42 62 65 64 63 62 60 59 60 58 56 52 51 49 53 52 53 54 55 56
60 60 59 59 59 59 59 58 58 58 58 58 57 57 57 57 57 57 58 58 57 58 59 58 58 58 48 48 60 59 61 57 59 60 58 63 61 56 54 52 56 55 49 51 53 52 53
60 60 60 59 58 58 58 58 58 58 58 58 58 57 56 56 56 56 57 58 57 58 60 58 58 55 44 62 58 58 56 57 61 61 63 64 62 57 54 56 52 47 45 37 49 51 55
60 60 60 59 58 58 58 57 57 58 58 57 57 57 56 56 55 55 56 57 58 58 58 57 51 51 44 62 57 62 60 56 61 62 63 69 60 53 51 43 38 39 31 36 43 53 50
59 59 59 59 58 58 58 58 57 57 57 57 57 56 56 55 55 55 55 56 56 55 56 57 56 44 49 53 61 63 59 61 59 61 58 55 49 43 42 38 29 33 33 30 35 46 48
59 59 59 59 58 58 59 58 57 57 56 56 56 56 56 55 55 55 52 47 47 45 47 44 46 47 54 60 64 61 62 59 58 55 46 48 40 37 43 42 43 41 38 36 40 47 45
58 59 59 59 58 58 58 58 57 56 56 56 56 55 55 55 55 54 53 43 47 48 41 47 49 49 55 56 50 58 64 54 51 43 47 42 37 47 47 45 43 42 38 38 43 48 45
58 58 58 59 58 58 58 58 57 56 56 55 55 55 55 54 54 52 47 49 52 56 39 46 48 47 50 53 47 50 58 53 47 44 44 39 45 50 47 43 41 41 38 39 39 41 43
57 57 57 58 58 58 57 57 56 56 55 55 54 54 53 53 50 51 49 54 52 54 29 40 45 49 52 53 45 58 59 54 47 44 44 42 50 47 44 42 43 35 45 43 40 36 28
56 56 56 56 57 56 56 56 56 55 55 55 53 53 53 53 47 47 51 54 53 50 20 48 47 60 55 49 53 52 60 52 44 44 44 40 43 42 40 44 46 40 44 41 38 32 29
56 56 56 56 56 55 55 55 55 55 55 54 53 53 53 50 50 52 52 53 50 28 21 43 49 46 45 49 51 53 52 54 52 44 44 42 46 46 44 47 46 45 41 38 34 31 21
55 55 55 55 55 55 55 55 54 54 54 54 53 53 51 53 45 53 53 48 32 21 45 42 44 46 45 44 46 49 44 42 39 33 33 40 42 46 49 41 42 38 38 29 23 22 22
55 55 54 54 54 54 54 54 54 53 53 53 52 51 50 51 52 52 49 39 24 36 36 49 49 46 42 46 45 47 42 37 43 41 35 32 31 40 47 45 38 35 36 28 20 20 23
54 54 54 54 53 54 53 53 53 53 53 52 51 44 46 48 52 51 43 31 30 35 44 43 46 40 40 45 46 44 41 41 44 44 37 33 34 45 46 46 45 35 30 37 30 29 22
53 53 53 53 53 53 53 53 53 53 52 51 42 41 43 49 51 47 38 35 36 45 47 46 36 41 36 40 40 40 40 46 45 47 47 41 33 44 46 47 44 40 42 29 29 21 20
52 52 53 52 52 52 52 53 53 53 52 51 42 37 43 49 49 42 32 35 42 47 48 43 39 37 39 38 39 37 40 45 47 45 48 42 38 36 43 39 36 37 33 34 33 27 22
51 51 51 52 52 52 52 52 52 53 51 48 41 34 42 48 36 35 33 38 45 44 49 45 43 42 39 40 38 38 39 42 47 46 39 42 37 33 37 43 47 44 40 35 23 23 29
51 51 51 51 51 51 51 52 52 52 51 44 37 37 43 44 31 31 37 40 43 42 42 42 41 43 43 38 35 39 40 44 46 44 39 40 34 26 30 35 40 36 41 41 37 33 28
50 50 51 51 51 51 51 51 51 52 52 44 35 30 33 37 37 33 33 34 36 43 42 43 42 44 40 38 41 38 38 43 45 44 46 44 35 32 28 29 34 32 38 41 37 27 28
49 50 50 51 51 51 51 51 51 51 51 45 36 31 35 27 31 34 36 35 33 34 42 43 40 39 37 34 37 37 38 40 42 45 40 38 30 32 34 36 35 33 36 38 37 35 29
49 49 49 50 50 51 50 50 50 50 51 41 31 32 35 31 35 33 34 33 33 36 40 36 35 38 38 35 36 36 38 37 37 39 36 35 28 29 29 37 39 34 40 40 40 40 38
47 48 49 49 49 49 50 50 50 50 49 38 37 40 37 33 30 31 32 33 35 38 40 42 39 37 37 37 40 43 44 41 41 38 33 33 30 29 27 33 33 28 33 40 34 34 34
48 48 48 49 49 49 49 49 50 49 48 39 40 37 32 28 30 31 35 35 34 37 35 40 41 37 41 46 43 41 40 40 39 39 40 30 30 29 26 28 21 30 38 39 33 32 33
47 47 48 48 49 49 49 49 49 50 49 39 40 38 35 29 34 34 34 35 36 37 36 37 41 42 44 41 32 30 29 31 34 39 38 36 30 27 22 24 28 31 33 30 31 28 31
47 47 47 47 48 48 48 49 49 49 50 43 39 42 38 32 31 38 33 35 31 32 33 35 44 44 41 33 30 26 23 28 26 31 40 37 35 29 25 20 17 24 37 40 35 21 30
46 46 47 47 47 48 48 48 49 49 49 43 40 44 40 33 34 38 34 32 37 35 32 34 37 37 38 30 25 22 24 33 24 25 27 28 28 25 25 22 24 32 38 39 19 23 28
42 44 44 46 46 47 47 48 48 49 49 45 42 45 40 33 37 40 41 36 36 36 29 34 34 33 31 28 29 26 23 27 27 23 29 28 25 24 27 21 17 34 37 28 25 26 26
45 47 47 46 46 47 47 48 48 48 48 47 39 45 45 36 36 42 42 42 41 41 34 33 33 33 34 30 31 30 27 25 26 22 33 22 26 24 27 23 29 31 28 28 29 27 23

GFSGBSN_sfc_temp_120.txt.gz
Temp
61 61 61 61 60 60 61 60 60 59 58 58 58 58 58 59 59 58 57 57 57 58 58 59 59 60 53 47 50 62 66 66 63 62 59 57 53 51 47 48 50 48 51 54 55 55 54
59 59 59 60 60 60 61 60 59 58 58 58 58 57 58 58 58 57 57 58 57 57 58 59 59 59 49 42 60 62 60 61 61 58 56 56 55 55 50 48 46 50 50 50 52 54 53
60 59 59 59 59 60 60 59 58 58 58 58 57 57 57 57 57 57 57 58 57 57 59 59 58 56 46 47 57 57 59 55 57 58 55 58 58 53 52 48 53 51 46 48 50 49 51
59 59 59 59 59 58 58 58 58 58 58 57 57 57 56 56 56 56 56 58 58 59 60 58 58 55 42 59 56 56 54 54 57 58 58 60 59 54 50 52 50 45 43 37 47 50 51
60 59 59 59 58 58 58 57 57 58 58 57 57 56 56 55 55 55 55 56 58 59 58 57 51 50 42 60 54 58 57 55 56 58 58 67 57 50 48 41 37 38 31 35 42 50 48
59 59 59 59 58 58 58 58 57 57 57 56 56 56 56 55 55 55 55 55 56 55 55 57 55 43 48 51 59 59 57 59 56 56 55 52 46 42 39 37 30 31 31 29 34 44 46
60 60 59 58 58 58 58 58 57 57 56 56 56 56 55 55 55 55 51 47 44 43 47 43 44 45 50 57 60 58 59 56 56 51 43 46 38 35 41 41 41 40 36 33 37 45 42
59 59 59 59 58 58 59 59 57 56 57 56 56 55 55 55 54 55 49 43 45 50 40 47 48 47 53 54 48 55 60 52 49 41 45 40 35 43 45 43 42 40 35 35 40 45 44
58 58 58 59 59 58 58 58 57 56 56 56 55 55 54 54 55 52 49 46 51 55 38 44 46 45 48 51 46 47 56 51 45 42 41 36 42 48 45 41 39 38 36 36 37 40 40
57 57 57 58 58 58 58 57 57 56 56 55 55 54 53 53 48 47 48 51 50 53 27 38 42 46 50 50 43 54 57 53 46 42 41 40 47 45 41 40 41 32 42 41 38 34 27
57 56 56 57 57 56 56 56 56 56 55 55 54 53 53 53 43 45 48 50 49 49 19 44 44 57 52 46 50 49 56 51 43 42 42 39 40 40 38 42 43 38 43 40 38 31 29
55 56 56 56 56 56 55 55 55 55 55 54 54 53 53 48 49 49 51 51 50 24 19 39 45 43 42 46 48 50 49 53 50 43 41 41 44 44 43 44 44 44 40 37 33 30 24
53 55 55 56 55 55 55 55 55 54 54 54 53 53 51 50 43 51 51 48 30 19 43 39 40 43 41 41 44 45 42 40 37 32 33 38 40 43 47 39 40 38 36 25 21 22 23
53 53 54 55 55 55 55 54 54 54 54 54 53 52 50 49 51 51 48 39 24 34 35 46 45 43 39 43 42 44 38 34 40 38 32 30 29 38 44 44 37 33 36 30 20 19 22
53 53 53 53 55 54 54 54 54 53 53 53 51 44 45 49 50 49 42 30 28 34 41 40 44 38 37 43 43 42 38 36 40 42 35 31 32 41 44 43 44 35 34 37 30 29 24
51 52 53 53 52 53 53 54 53 53 53 52 42 41 44 49 50 47 37 33 35 43 45 44 36 39 33 37 38 39 38 43 43 45 45 40 31 42 43 45 42 39 41 29 29 23 21
50 51 49 53 53 52 52 52 53 53 53 51 42 38 42 48 50 41 31 33 40 46 46 41 38 36 37 37 38 35 38 43 46 43 47 40 37 35 41 38 34 35 33 35 33 30 22
51 50 49 51 52 52 52 53 53 53 52 48 40 33 42 48 36 36 33 38 44 43 46 43 42 40 38 39 37 37 37 41 45 44 38 41 37 32 36 42 44 42 38 36 28 24 27
50 50 48 50 52 51 52 52 52 52 52 44 37 37 42 43 30 31 36 39 42 41 41 41 40 42 41 37 34 38 40 45 46 43 39 40 33 28 27 34 38 37 38 40 38 34 28
50 50 49 49 51 51 51 51 52 52 52 45 36 30 34 38 38 35 34 33 35 43 42 42 40 42 39 37 39 35 36 41 43 42 46 43 34 33 28 30 33 31 35 38 37 29 30
49 49 49 49 49 50 51 51 51 51 51 44 37 32 35 28 32 35 37 36 34 35 42 43 37 37 36 32 33 33 37 38 41 44 39 37 32 32 34 35 36 34 34 35 34 35 29
48 48 47 49 50 50 51 51 51 51 51 42 32 32 35 31 36 34 34 32 32 35 38 35 35 38 39 34 36 32 38 35 35 38 36 36 28 31 29 35 36 32 34 33 34 34 33
47 46 48 49 49 50 51 50 50 51 49 37 38 40 33 31 29 31 32 33 35 37 39 41 39 36 34 37 40 41 39 39 41 36 32 32 30 28 26 31 29 28 33 34 34 34 35
45 46 45 48 49 50 50 50 49 50 48 40 39 38 33 27 29 31 33 35 34 36 34 39 40 37 40 43 42 39 37 37 38 39 39 32 30 30 27 28 21 30 34 37 35 34 34
44 44 47 48 49 49 49 49 49 50 49 38 40 38 34 27 32 32 32 33 34 36 36 36 40 41 42 39 34 31 30 29 33 35 36 35 30 27 24 24 28 29 32 28 28 29 31
47 47 47 48 48 49 49 49 49 49 49 39 37 42 37 28 27 37 34 35 29 28 29 33 40 41 39 34 31 26 22 29 28 30 39 35 35 30 25 18 15 24 33 37 34 23 30
47 47 47 47 47 47 48 48 48 49 49 41 40 40 38 32 33 35 33 33 34 31 26 32 35 35 39 30 26 26 26 33 26 26 27 29 28 26 24 22 24 31 36 38 21 24 32
47 46 46 46 47 47 47 48 48 48 49 44 40 42 37 33 35 37 39 36 37 34 29 35 34 34 32 28 28 27 24 29 28 26 29 28 25 24 26 21 16 34 35 28 27 27 28
46 45 44 45 46 47 47 47 47 48 48 46 35 41 42 37 36 41 41 41 41 39 35 35 32 31 31 30 30 30 29 26 27 21 32 25 24 21 26 22 26 30 29 29 29 26 23

GFSGBSN_sfc_temp_123.txt.gz
Temp
63 63 62 61 61 61 61 60 60 59 59 59 58 58 59 59 59 58 57 57 57 58 58 59 59 60 57 52 56 66 65 66 68 68 65 64 61 60 57 58 59 56 58 59 61 60 61
59 59 60 60 60 60 61 60 60 59 58 58 58 58 58 58 58 58 57 57 57 57 57 59 59 59 54 47 65 64 63 65 65 65 64 65 62 63 58 56 57 57 57 58 59 61 59
59 59 59 59 59 58 59 59 59 58 58 58 58 57 57 57 57 57 57 57 57 57 58 59 59 58 49 53 63 62 61 62 63 63 61 65 65 62 60 55 59 58 53 56 57 58 57
59 59 58 58 58 58 58 58 58 58 58 58 58 57 56 56 56 56 56 56 57 58 59 59 59 56 47 61 61 59 60 60 61 63 63 65 65 62 60 60 56 52 51 49 55 57 56
59 59 58 58 57 57 57 58 58 58 58 57 57 57 56 56 55 55 55 56 57 59 58 58 54 52 47 62 57 62 62 59 58 60 62 68 65 58 57 50 49 47 46 43 50 56 56
59 59 59 58 57 57 57 57 57 57 57 57 57 56 56 55 55 54 55 56 57 56 56 58 56 47 52 56 61 60 61 61 58 57 57 57 54 51 48 49 43 43 43 43 44 53 53
58 59 59 58 58 58 58 58 57 57 57 57 56 56 56 55 55 54 52 50 46 45 50 46 47 47 52 58 61 60 61 60 60 56 49 52 48 45 49 49 47 45 44 43 47 52 47
58 58 59 59 58 58 59 59 57 57 57 57 56 55 55 55 54 55 52 46 49 51 42 49 49 49 52 56 51 58 62 56 53 48 49 47 43 50 50 48 47 46 43 43 47 50 49
57 57 57 58 58 58 58 58 57 57 56 56 55 55 54 54 55 53 51 49 55 56 42 46 48 47 50 53 49 52 58 55 50 46 46 44 49 50 49 45 43 43 42 42 42 47 49
56 56 56 57 58 58 57 58 57 56 56 56 55 54 53 53 49 52 49 56 54 55 34 41 42 47 50 52 47 57 60 57 51 47 46 46 51 48 46 44 46 39 47 46 43 42 37
54 55 56 56 57 56 57 56 56 56 56 55 54 54 53 54 48 47 52 53 52 49 27 45 43 57 53 48 52 50 59 56 48 46 48 45 45 44 43 46 48 44 47 45 43 41 38
52 54 55 55 55 56 56 56 56 55 55 55 54 53 53 50 50 52 53 53 50 32 25 40 45 43 43 47 49 52 54 57 54 48 47 47 51 50 49 47 49 48 45 43 40 39 31
52 52 53 54 55 55 55 55 55 55 55 54 54 54 51 50 45 53 54 49 32 25 45 40 40 43 43 42 45 46 46 45 43 38 38 43 44 49 51 45 46 47 42 33 30 27 31
53 52 51 52 53 55 55 54 54 54 54 54 53 52 52 50 51 52 49 40 24 37 37 47 45 43 41 45 45 44 43 41 45 43 37 36 35 44 49 48 44 42 43 34 25 26 33
52 52 52 51 51 54 54 53 54 54 54 54 53 46 45 47 49 50 42 30 31 36 43 43 45 40 40 44 45 44 42 41 46 46 41 36 37 45 47 48 50 40 37 46 36 33 29
52 52 51 51 51 51 53 54 54 54 54 52 45 43 43 49 49 45 37 34 36 43 47 45 39 42 37 40 42 43 40 46 45 48 50 44 37 45 45 50 47 45 47 34 34 26 24
51 52 51 51 51 50 51 52 54 54 53 51 43 38 44 49 49 39 30 34 41 47 48 43 40 39 40 40 41 39 42 47 48 46 50 46 43 40 44 42 41 40 39 39 38 34 30
50 50 51 49 50 50 51 51 52 53 52 49 41 32 45 49 34 35 32 39 44 43 48 45 44 42 41 42 40 40 40 45 49 48 42 47 41 37 40 45 49 47 43 41 31 29 30
49 49 50 50 50 50 50 51 50 50 51 44 37 36 43 44 29 31 37 38 42 41 43 42 41 44 44 40 37 41 43 47 48 47 43 44 36 33 35 38 43 41 43 43 40 36 32
49 49 49 50 50 50 51 51 50 50 50 44 36 31 35 38 39 36 34 34 35 44 42 43 41 44 41 39 42 38 39 45 47 46 47 46 38 37 32 34 39 34 39 42 39 32 34
48 48 49 49 50 50 51 50 51 51 51 43 36 33 37 29 33 36 37 37 34 34 43 43 39 39 39 35 37 37 41 43 44 46 43 42 36 37 40 41 40 41 40 41 37 38 33
49 48 48 49 48 48 49 49 50 51 51 42 33 33 36 34 38 35 36 34 35 37 39 35 35 38 39 36 38 36 40 40 40 41 39 39 35 36 35 38 39 36 39 40 40 40 39
48 47 48 48 45 47 47 49 50 51 50 37 36 40 37 33 34 32 33 36 36 39 40 43 40 38 37 39 43 44 43 44 44 40 36 35 34 31 30 36 34 29 36 39 40 42 40
47 46 48 48 47 46 48 48 50 51 49 39 39 36 32 29 32 33 34 36 36 38 36 40 42 39 42 46 44 42 40 39 40 40 43 35 33 32 30 32 22 40 40 41 39 42 42
45 44 45 47 48 49 49 49 49 50 47 41 42 37 34 29 34 33 34 35 37 38 37 38 41 44 45 41 35 31 31 31 32 38 38 41 36 31 27 27 32 38 37 34 33 37 40
44 43 43 45 43 48 48 49 48 49 49 41 42 42 36 31 32 37 34 36 31 31 33 36 43 45 44 37 31 26 25 30 29 31 38 38 38 32 27 23 22 34 38 42 41 31 38
46 44 43 45 45 46 48 49 49 49 49 42 40 42 37 32 36 37 33 33 37 34 32 34 36 36 41 31 27 27 27 35 29 27 28 30 30 27 26 25 31 38 40 42 29 32 37
47 47 47 47 47 47 47 48 48 49 48 43 39 43 39 33 35 39 40 36 37 36 31 36 35 35 33 29 29 29 27 32 30 31 32 31 28 28 28 26 23 40 38 34 35 31 35
46 46 46 45 46 47 47 47 47 48 48 45 37 43 42 37 35 42 42 43 43 43 39 38 36 34 36 33 32 33 29 30 30 26 36 29 33 30 32 32 32 34 33 33 35 33 31

GFSGBSN_sfc_temp_126.txt.gz
Temp
63 64 64 63 62 62 62 61 59 59 59 59 59 59 59 60 60 59 58 57 58 58 58 59 60 60 66 65 69 74 67 70 77 77 75 73 71 70 67 68 68 66 68 68 70 70 71
59 59 61 62 61 61 61 60 59 59 59 59 58 58 58 59 59 58 58 57 58 57 58 59 59 59 64 58 74 74 72 74 75 75 74 74 72 73 68 66 66 65 65 67 69 70 70
59 58 58 58 59 59 59 58 58 58 58 58 58 58 58 58 58 58 57 57 58 58 58 59 60 65 59 64 75 74 70 73 73 74 72 74 75 71 69 63 67 65 61 67 68 67 66
58 59 58 58 58 57 57 57 57 58 58 58 58 57 57 57 57 57 56 57 57 58 59 59 59 63 59 70 74 69 73 71 72 74 72 74 75 71 68 67 64 62 61 60 64 65 64
59 59 58 58 57 57 56 56 57 57 58 57 57 57 56 56 56 56 56 56 57 58 59 59 61 59 59 66 65 71 73 69 70 71 72 73 72 67 65 61 59 59 59 57 60 65 64
59 59 59 58 57 57 57 57 56 57 57 57 57 57 56 56 56 55 55 57 57 59 61 65 63 54 63 63 67 68 71 71 66 67 65 66 66 62 63 60 56 59 56 57 58 63 63
59 59 59 59 58 58 57 57 56 56 57 57 57 57 56 56 55 55 56 61 57 54 56 60 59 59 60 66 68 66 70 67 68 66 59 62 59 57 64 63 62 57 56 56 61 63 57
57 58 58 58 58 58 58 58 57 56 56 56 56 56 56 56 55 55 59 56 58 58 53 61 59 58 61 61 59 64 70 63 61 59 61 55 53 64 59 58 56 56 54 55 59 59 56
55 56 57 58 57 58 58 58 57 56 56 56 56 56 55 55 55 55 57 58 65 63 53 57 59 57 59 61 60 64 66 65 61 58 57 57 59 59 57 55 54 55 53 54 52 57 60
53 53 55 56 57 57 57 58 57 56 56 56 55 55 54 54 52 59 54 63 65 62 46 53 50 56 57 61 55 68 69 66 59 57 58 57 63 56 56 55 56 52 57 54 51 50 48
52 52 52 54 56 55 55 56 57 56 56 55 54 54 53 54 56 53 58 65 64 58 34 53 50 63 59 57 58 57 69 63 57 55 56 55 53 53 53 55 56 53 55 53 52 50 49
54 53 52 52 53 54 54 56 56 56 56 55 54 54 53 51 55 60 59 61 57 39 32 46 51 49 48 53 55 58 58 64 65 56 55 57 59 58 58 56 57 57 52 51 51 50 39
53 53 52 51 51 52 53 54 56 56 55 55 54 54 54 56 50 61 60 52 36 33 53 47 47 50 51 48 50 53 51 49 50 43 45 53 52 57 59 53 55 55 50 42 40 39 40
53 53 53 52 51 51 51 53 53 55 55 54 54 53 54 56 56 57 51 42 29 46 48 53 51 50 47 52 51 50 50 47 53 52 50 44 41 53 57 56 52 51 51 43 32 38 43
53 53 53 53 52 51 51 52 53 53 54 54 53 52 52 53 54 54 42 31 39 48 51 49 50 46 46 51 51 50 50 50 53 53 48 45 46 56 55 58 57 48 43 55 44 45 37
52 52 52 52 52 51 50 50 51 53 53 53 47 45 48 53 53 48 37 35 44 50 52 51 45 49 45 48 48 50 48 55 52 57 60 52 44 53 52 56 57 52 57 39 42 31 32
51 51 51 51 51 51 51 49 50 53 52 52 44 39 50 55 52 39 31 38 46 53 52 47 47 45 48 46 50 48 50 53 55 55 58 56 50 47 50 48 49 47 46 47 47 44 36
50 50 50 50 51 51 51 51 49 50 52 48 42 34 52 54 35 36 34 44 50 49 53 48 48 46 47 47 46 47 48 52 56 56 48 54 50 43 47 58 59 58 52 50 37 35 39
50 50 50 50 50 50 50 51 50 49 50 45 36 39 47 51 31 33 42 43 48 47 47 48 45 48 49 46 42 47 49 51 54 54 50 52 44 38 42 47 52 49 53 53 50 46 36
49 50 50 50 50 50 50 51 51 50 50 45 38 32 36 40 47 42 39 40 40 48 46 47 45 49 46 44 48 44 46 49 51 52 48 50 47 41 38 41 45 36 43 48 45 34 39
49 49 49 49 49 50 49 50 51 50 48 41 37 34 38 30 34 43 44 43 40 39 46 48 43 43 43 39 41 41 46 49 51 51 50 49 40 44 47 49 48 45 45 47 44 44 37
49 49 48 49 49 49 49 50 50 49 48 38 33 35 39 39 42 41 41 39 41 43 44 42 41 45 45 39 43 41 44 45 45 49 47 48 39 43 41 47 47 44 48 49 49 49 48
49 49 49 49 49 49 49 49 48 50 47 35 37 44 44 39 39 37 39 42 43 45 45 48 46 43 41 44 49 51 50 49 48 46 44 42 40 37 33 43 41 34 43 47 49 52 50
48 48 48 48 48 49 48 49 47 49 47 41 42 41 37 33 38 39 43 44 43 45 41 46 47 42 48 53 50 49 48 48 48 48 49 41 39 38 33 36 24 46 53 52 50 51 53
48 47 46 46 47 49 48 48 46 48 47 43 44 42 38 33 41 40 41 42 43 44 41 44 47 50 52 48 39 34 36 35 37 45 46 47 41 31 29 32 40 45 48 40 39 43 53
47 45 43 42 46 47 48 47 46 47 47 44 43 46 42 37 36 43 41 43 40 39 38 40 48 52 48 41 36 29 29 34 35 36 44 45 44 36 34 27 25 40 53 52 48 35 54
44 43 41 44 43 47 48 47 47 48 48 48 44 50 45 37 43 42 38 40 46 43 40 42 43 41 47 36 30 30 32 41 32 32 33 32 32 28 30 29 36 47 48 49 32 38 48
47 46 43 43 43 45 46 47 48 49 49 50 46 52 49 40 43 45 47 44 45 45 39 43 39 40 36 31 33 34 32 39 38 36 38 36 33 30 31 27 25 46 45 37 41 42 45
46 46 46 45 43 44 46 48 48 48 48 50 43 50 52 47 44 48 50 51 49 49 47 46 44 43 44 38 40 41 35 38 38 31 46 32 37 36 37 39 41 48 43 42 44 44 43